GFSSW_850_rhum_000.txt.gz
RH
77 74 72 78 82 84 82 81 75 82 83 81 60 53 59 44 42 66 99 90 59 53 50 53 48 51 44 38 34 32 37 32 28 24 22 19 20 18 18 17 16 16 20 29 28
80 76 64 80 82 78 73 69 72 75 80 70 58 59 81 69 81 99 87 79 67 53 50 53 47 45 42 36 34 35 44 29 19 19 26 24 23 20 19 18 17 17 22 31 23
81 82 84 72 82 78 82 83 80 76 69 68 55 53 81 89 98 90 98 70 73 57 54 48 46 42 42 39 33 32 41 29 20 20 24 24 23 22 19 25 18 17 18 23 22
67 78 78 73 70 72 74 69 59 67 74 75 52 57 74 94 89 61 85 63 73 63 64 53 48 44 42 42 33 38 28 23 20 21 24 24 22 22 20 19 19 18 20 22 24
81 76 65 76 78 76 88 77 66 72 81 78 59 69 83 100 85 68 37 60 79 92 81 56 48 44 45 35 30 32 25 22 21 19 25 22 22 24 21 19 18 18 18 22 27
75 70 66 59 59 54 69 71 63 70 77 73 68 77 96 95 50 68 71 40 78 86 79 54 47 43 38 33 30 24 25 23 22 21 22 22 22 21 19 20 19 18 18 21 26
66 72 66 65 68 62 62 63 66 69 82 86 74 83 99 84 49 70 91 74 68 84 69 54 47 42 37 34 24 24 29 29 24 22 22 21 26 24 18 19 20 18 18 19 20
78 78 80 71 62 58 64 80 80 82 86 89 99 94 92 70 77 74 88 95 77 66 60 54 48 42 34 25 25 29 31 39 25 22 20 22 32 19 16 18 18 18 18 18 19
72 73 76 83 77 71 74 81 97 99 100 99 90 81 75 81 85 71 86 84 66 61 55 60 46 35 27 34 40 32 36 32 26 21 22 25 30 20 17 17 17 17 16 16 16
89 87 96 96 94 82 77 90 98 95 95 85 87 96 84 74 78 68 82 75 68 70 64 53 40 34 33 33 49 34 32 26 26 26 24 27 27 20 15 15 16 15 15 14 15
86 94 100 96 97 87 88 100 96 90 88 88 79 75 66 96 96 95 83 76 68 61 66 47 43 40 31 29 26 28 26 24 18 24 23 26 24 18 14 15 16 14 17 18 18
81 92 99 99 80 96 96 96 98 93 99 97 96 94 97 89 99 100 87 76 77 84 51 46 43 26 23 26 27 27 27 26 22 22 26 26 25 16 15 15 15 19 22 24 24
76 84 93 88 98 94 95 90 88 96 96 100 98 89 89 98 100 100 81 76 73 78 55 39 29 22 30 33 31 30 31 31 31 25 28 27 30 22 17 18 19 22 25 27 28
95 100 100 100 100 88 80 84 89 100 93 97 90 89 89 98 94 96 80 70 77 74 32 28 27 30 32 32 30 34 27 29 31 34 40 27 39 25 23 26 26 26 28 28 30
91 98 100 100 88 86 86 80 91 100 99 93 95 98 99 88 92 86 54 48 46 29 28 33 35 34 34 30 26 37 29 28 29 34 34 29 37 27 26 31 30 28 28 29 30
84 80 86 82 90 86 86 85 93 97 99 96 92 89 82 82 72 76 74 50 22 26 27 30 24 26 27 28 27 27 28 30 30 35 45 26 28 31 28 30 33 29 29 31 32
68 70 68 71 66 66 74 82 97 96 94 96 93 84 74 76 70 57 38 33 36 39 38 31 26 21 21 27 25 29 36 48 53 52 45 23 32 30 21 26 29 32 31 31 33
52 55 60 52 54 63 69 92 90 89 90 86 89 83 82 73 66 44 34 43 32 35 36 48 48 29 23 26 30 31 33 51 57 52 39 25 39 28 20 19 22 27 31 33 35
46 47 51 42 48 69 93 87 93 78 77 84 85 84 91 83 71 60 40 44 44 42 44 44 46 28 28 23 23 32 43 28 40 32 44 35 25 22 20 23 22 26 31 34 35
42 50 47 39 53 67 70 74 76 64 62 64 78 72 88 83 72 58 52 52 58 52 47 40 52 33 31 25 22 23 23 37 40 45 44 36 28 32 26 25 25 30 31 34 36
46 53 36 48 52 57 70 70 68 59 55 61 49 62 71 76 61 50 49 56 49 52 46 44 45 51 37 41 36 32 32 28 30 32 43 42 36 24 26 23 24 32 33 35 37
52 56 47 46 58 59 73 58 53 55 51 51 51 48 49 50 49 47 59 59 51 47 50 53 53 60 51 38 37 31 31 30 42 39 38 41 43 25 28 33 31 32 35 36 38
51 45 50 46 67 69 59 59 57 56 59 51 56 51 45 56 63 57 63 54 52 60 60 51 52 67 64 50 43 47 36 33 39 42 53 46 40 26 28 32 31 32 36 38 43
50 54 48 45 44 51 52 55 62 56 56 51 53 47 47 57 53 64 61 61 58 56 51 50 50 52 53 46 40 49 46 42 45 52 46 43 38 29 29 33 29 25 37 39 44
47 57 54 62 56 49 46 42 51 56 52 46 51 46 44 56 56 57 54 57 49 49 48 52 50 44 43 38 35 38 41 40 50 45 51 35 35 28 25 26 25 34 41 42 43
56 45 43 46 43 34 40 48 46 47 50 50 56 46 43 54 50 56 49 43 49 45 44 50 51 41 41 31 27 34 32 29 34 37 38 37 37 26 25 36 38 37 39 46 48
52 45 44 50 44 38 51 49 51 42 48 51 47 47 58 49 40 38 40 43 44 44 45 46 44 43 44 33 38 49 38 38 36 33 33 39 32 29 31 40 41 42 43 45 49

GFSSW_850_rhum_003.txt.gz
RH
73 74 70 72 72 76 75 81 76 74 81 82 85 79 58 49 47 47 54 85 79 54 54 52 51 49 51 41 36 34 47 40 31 29 26 24 28 22 19 18 16 17 21 21 22
66 77 75 84 68 75 79 75 72 70 77 78 74 67 56 68 82 74 35 68 75 54 51 53 52 48 45 38 36 39 55 40 26 28 27 27 24 23 23 20 20 22 21 25 26
61 65 75 80 83 69 70 77 84 81 78 69 67 61 55 76 97 85 29 55 74 59 52 53 49 47 46 43 42 38 50 39 33 29 24 25 23 22 25 24 20 20 17 23 25
74 65 69 77 82 74 72 76 86 77 75 69 62 62 55 91 85 32 24 33 71 76 61 56 52 49 50 51 40 47 36 33 31 25 24 27 23 23 22 22 21 19 19 20 21
81 73 67 62 77 83 69 73 78 59 66 64 60 75 78 100 73 64 55 19 68 79 67 56 53 50 55 46 43 45 38 32 29 23 23 24 26 24 22 19 20 20 18 19 23
60 63 61 57 52 55 68 84 90 76 64 70 71 81 98 97 45 66 84 28 62 79 68 59 52 49 47 45 46 31 30 29 25 26 24 27 25 24 20 19 20 20 19 18 20
75 72 74 66 57 57 54 60 71 67 60 79 72 74 99 85 42 52 68 84 63 73 75 64 51 50 45 46 35 32 37 34 30 27 28 21 26 26 17 17 20 19 20 19 18
74 75 74 72 72 63 63 62 63 70 65 82 84 82 92 53 52 67 53 90 75 72 69 65 55 54 53 42 30 34 34 45 36 28 26 22 36 26 18 20 19 18 18 18 19
85 90 85 85 87 67 59 70 82 79 79 93 91 90 85 74 71 46 56 94 83 82 77 75 70 56 48 41 48 41 50 43 36 26 27 26 32 25 18 19 19 17 17 18 17
92 98 99 100 99 89 78 90 94 99 99 95 88 88 78 73 60 72 58 87 90 87 84 81 83 51 44 46 64 52 44 38 35 25 27 29 32 28 20 17 19 19 18 20 20
98 99 100 98 99 91 93 100 96 98 97 81 73 81 70 55 63 86 76 95 84 74 86 81 84 73 54 43 38 37 36 35 25 25 26 30 32 28 19 17 22 23 24 26 26
98 92 100 87 85 86 91 91 82 78 83 68 87 64 62 64 84 86 90 88 69 83 68 72 73 49 36 36 37 35 35 34 26 26 27 29 31 20 17 20 26 28 28 29 28
97 100 95 92 79 99 98 97 81 81 86 95 81 86 71 95 89 91 97 80 66 73 73 73 56 38 34 36 38 33 33 36 36 32 29 31 37 21 23 25 28 28 29 31 33
99 100 96 93 99 95 93 90 94 99 94 97 95 92 89 98 97 99 93 76 87 73 69 51 32 37 38 39 34 35 30 30 33 39 47 33 47 28 30 31 35 31 30 31 32
86 100 95 100 94 90 85 94 95 99 98 87 89 91 95 93 94 91 89 80 86 70 57 43 38 37 40 34 31 38 31 30 30 36 38 34 41 36 35 38 39 38 32 31 30
70 87 93 88 79 78 81 94 99 100 99 92 94 94 84 95 84 87 77 70 70 72 37 35 29 31 33 29 30 31 31 32 36 42 54 41 39 37 39 40 39 37 33 32 31
58 67 72 83 84 94 99 99 100 100 95 94 94 77 79 87 75 71 79 81 78 53 44 32 25 20 24 30 25 30 43 58 57 60 59 30 36 36 28 35 34 41 36 34 33
53 52 56 64 76 89 95 100 99 91 92 88 84 80 88 84 77 68 59 61 31 32 49 55 48 27 23 28 34 35 42 64 64 63 50 29 40 31 25 31 30 32 35 35 35
43 49 53 60 70 83 98 95 99 86 81 87 90 87 92 88 65 59 50 52 56 41 46 49 49 30 28 24 26 35 45 37 45 43 52 47 34 23 32 38 39 38 37 36 36
39 51 50 55 66 81 84 91 92 85 77 77 86 81 79 67 61 60 62 57 64 54 50 43 55 35 32 27 24 26 27 41 49 48 48 47 33 39 32 34 36 45 40 38 38
52 57 45 56 68 78 90 87 79 71 65 76 76 77 69 78 64 57 68 59 52 53 48 48 53 55 38 41 42 40 36 30 39 47 52 53 43 30 27 29 35 41 39 38 39
54 58 49 56 74 83 87 67 58 66 61 56 59 63 68 71 55 73 76 66 54 52 57 54 61 70 56 39 38 35 36 36 48 45 49 49 45 28 39 36 36 39 37 39 40
52 48 44 46 87 87 66 67 66 66 65 60 62 55 53 58 70 68 68 59 56 59 57 52 60 77 62 48 45 48 42 38 44 50 53 49 45 30 37 40 35 41 40 39 41
53 61 42 44 52 68 68 66 71 59 59 55 56 50 56 64 61 70 68 62 56 55 50 48 50 52 60 48 49 54 48 44 48 59 52 53 42 34 34 34 33 32 36 43 46
48 59 58 69 55 55 52 55 62 65 54 50 54 50 54 64 60 65 64 60 50 49 47 50 49 45 41 38 34 38 42 44 56 53 51 32 37 31 32 34 33 34 42 45 49
52 53 47 55 45 51 60 55 56 56 56 57 63 60 58 65 59 61 58 54 54 46 49 50 53 39 37 33 33 34 34 36 39 42 49 47 44 32 29 28 41 45 44 47 50
50 53 40 50 51 56 57 53 53 55 49 49 51 60 61 50 41 39 42 47 50 49 51 50 46 47 43 44 44 49 42 41 39 34 34 43 34 31 33 38 43 44 47 52 50

GFSSW_850_rhum_006.txt.gz
RH
49 56 71 76 74 71 71 68 72 82 83 80 81 83 80 64 53 85 73 64 84 75 64 60 56 52 53 48 39 35 50 47 33 29 27 24 30 24 22 21 18 17 20 21 22
45 55 67 76 87 83 75 74 76 77 76 72 82 81 76 70 63 87 50 49 76 62 64 55 53 52 53 43 37 40 58 49 34 28 35 30 28 25 25 25 22 20 18 20 22
49 51 59 69 76 76 77 77 76 73 74 73 72 73 71 74 92 81 39 33 62 66 56 54 56 54 52 44 42 42 52 42 36 32 33 30 27 25 25 28 22 22 21 27 27
54 62 68 65 75 73 77 73 70 72 77 79 69 64 72 81 87 58 34 28 57 74 61 58 59 54 55 55 45 49 40 37 35 34 35 29 24 27 24 22 21 21 21 22 25
59 66 69 70 63 63 69 73 76 81 83 80 81 68 86 100 72 56 68 28 46 82 74 73 59 54 60 52 47 49 45 39 36 34 32 27 28 30 25 21 20 21 21 20 22
71 68 60 60 60 57 50 69 69 79 75 63 76 73 95 96 43 71 90 59 31 85 80 72 57 50 48 50 50 42 38 34 30 28 28 30 28 27 23 21 19 19 21 20 20
80 75 69 69 69 60 53 53 70 84 85 65 73 88 98 83 47 50 80 87 42 79 80 63 55 50 50 50 43 33 44 40 33 29 30 26 31 27 20 20 19 17 22 21 19
88 82 86 80 70 72 66 74 56 82 75 63 75 98 92 58 52 58 63 82 74 89 65 58 59 59 55 48 36 34 37 45 35 33 29 28 44 30 20 21 21 18 22 21 22
99 97 98 90 90 86 70 64 63 62 66 63 95 99 77 59 62 48 64 69 82 97 90 84 73 65 53 52 48 46 51 47 41 31 29 30 36 28 21 22 19 21 21 20 22
96 100 99 99 88 92 77 72 80 81 82 93 91 88 81 82 52 50 52 63 81 95 98 98 93 70 51 48 71 54 51 44 41 27 36 34 34 30 23 19 19 21 26 25 23
94 98 96 99 99 93 90 96 100 100 100 89 85 74 70 63 65 58 46 65 90 98 94 98 93 91 74 44 45 42 40 41 36 30 32 36 33 31 26 24 26 28 30 31 29
92 98 96 99 93 93 92 98 85 86 93 78 92 75 80 66 71 84 73 86 93 88 78 99 93 74 59 52 42 41 43 44 36 29 26 28 30 31 21 28 30 31 32 30 29
92 100 97 97 90 98 88 90 97 82 76 77 76 77 74 68 75 80 91 93 80 77 83 83 74 64 50 44 46 46 46 42 40 35 32 32 40 24 27 31 34 33 32 33 33
92 100 99 96 98 92 99 99 88 82 92 90 87 71 76 67 88 88 94 90 72 74 69 71 51 56 54 46 40 48 37 35 34 39 44 35 53 31 34 36 37 36 32 34 35
85 100 98 100 96 96 99 88 93 99 98 87 85 80 74 79 93 98 97 90 70 68 72 69 51 54 46 42 39 39 34 32 32 39 40 38 45 41 37 40 43 43 34 34 37
65 96 93 85 84 85 94 93 98 100 98 95 97 97 89 92 93 97 100 78 62 58 56 47 35 40 40 34 34 36 33 44 47 48 57 45 45 42 44 37 42 43 35 34 38
50 73 97 98 96 90 91 99 100 100 91 95 95 83 81 89 90 86 91 90 82 76 76 62 32 24 29 33 27 36 46 61 59 62 61 39 43 38 32 38 34 44 38 35 35
42 52 72 93 100 100 99 100 100 94 90 79 79 81 88 77 84 85 87 80 62 51 61 72 49 31 24 33 37 40 45 64 64 70 55 33 42 32 30 32 32 35 35 36 35
37 42 48 54 78 100 100 99 96 86 78 82 74 85 97 80 75 75 78 60 50 52 46 49 49 32 29 24 32 37 48 40 50 49 55 49 40 26 45 51 46 44 39 37 35
38 50 57 66 75 100 99 93 93 79 68 70 88 84 90 72 72 68 80 58 66 50 47 47 53 38 32 27 26 35 34 46 55 54 53 50 41 41 42 53 53 53 42 38 37
57 63 65 77 86 100 96 94 92 70 76 90 77 82 69 72 65 70 71 63 56 55 49 49 52 53 37 42 45 39 39 35 45 53 54 55 47 36 36 45 49 49 40 38 38
60 62 68 84 85 87 92 90 88 90 93 83 53 57 70 72 64 77 77 68 58 52 56 54 63 70 53 40 37 38 40 38 48 45 54 52 46 30 37 34 37 40 37 39 40
55 58 76 77 83 87 67 73 88 90 78 68 79 68 59 68 75 71 71 61 58 56 58 53 68 80 60 52 47 50 42 40 47 52 56 55 49 35 43 36 36 41 42 40 43
57 58 51 70 66 73 70 68 74 77 73 62 62 62 66 67 65 72 71 62 55 54 52 47 54 59 63 54 55 58 55 47 45 59 49 57 40 34 36 38 41 38 32 41 50
50 59 60 57 58 59 56 60 66 65 62 60 58 54 59 65 63 71 66 57 50 48 47 44 49 45 42 39 39 45 49 56 57 50 46 39 44 33 35 34 32 31 34 47 53
51 55 53 60 50 56 62 55 61 62 58 62 65 54 54 62 59 65 62 56 53 47 50 48 51 37 36 35 36 36 35 37 44 48 52 47 43 33 31 32 41 43 48 50 53
55 52 47 59 56 55 59 56 54 58 50 52 54 49 51 46 41 46 50 49 50 49 51 47 43 41 38 48 44 45 44 44 38 36 34 36 31 35 37 48 52 50 49 50 51

GFSSW_850_rhum_009.txt.gz
RH
36 38 41 47 64 74 78 75 65 62 76 80 82 78 89 82 75 67 71 44 72 85 74 64 58 54 53 53 43 37 51 54 40 31 28 28 35 26 24 24 23 19 22 22 23
36 37 39 52 56 67 66 63 63 77 72 78 80 80 84 83 88 86 48 36 53 83 71 65 64 60 54 54 40 42 60 52 38 26 34 35 35 30 27 26 24 21 22 21 21
57 53 54 54 66 79 74 71 70 76 77 77 74 78 90 86 93 77 46 34 42 80 75 62 60 56 57 47 42 46 54 44 38 32 36 38 35 28 27 30 24 23 22 22 24
62 56 62 64 63 64 79 76 73 78 76 71 71 74 75 84 82 81 44 32 31 82 88 70 61 60 58 58 47 50 43 40 37 35 40 39 34 30 27 24 21 21 21 22 24
47 53 56 60 62 62 66 76 77 65 65 80 78 73 84 99 78 67 85 43 31 77 97 72 64 57 64 57 51 53 48 42 39 39 35 31 34 32 28 23 21 22 20 20 22
62 67 64 62 54 57 55 60 81 72 71 79 81 81 90 94 59 52 84 76 48 50 84 75 62 54 52 52 55 47 46 43 38 37 33 34 33 31 26 22 22 22 20 20 22
81 81 79 73 69 72 64 61 55 77 69 79 58 84 94 81 58 53 67 85 84 46 84 68 62 54 52 52 47 42 42 40 37 35 36 30 36 34 24 24 21 20 18 19 23
93 98 93 87 85 75 76 75 70 68 72 79 70 92 96 64 60 68 59 83 77 72 86 67 69 57 55 50 38 36 40 47 36 33 32 31 46 35 23 24 23 22 21 21 22
85 92 98 96 96 89 77 77 73 73 71 82 78 94 86 67 66 53 75 77 74 76 96 80 75 65 59 63 58 45 54 50 42 32 31 33 40 33 25 24 22 23 22 23 24
80 91 98 99 93 91 88 71 67 71 79 86 82 95 82 75 58 54 61 74 84 84 100 99 81 84 66 68 81 58 51 50 48 34 36 35 40 32 27 23 22 24 26 26 26
83 91 95 95 98 99 93 92 96 96 89 85 88 88 78 57 63 53 49 70 85 89 91 96 95 91 82 66 55 50 44 43 42 34 34 41 39 33 29 25 28 30 31 32 30
89 95 97 96 98 100 98 87 91 87 96 86 88 80 81 73 86 69 51 70 83 86 82 98 91 72 67 52 47 44 46 51 40 35 36 35 39 35 27 28 30 33 35 36 34
90 100 100 98 99 100 90 90 91 98 88 82 86 87 76 79 72 90 61 73 81 79 83 81 80 72 65 69 60 50 50 50 43 40 34 38 44 37 28 32 35 36 37 38 37
89 100 100 100 100 97 97 90 88 88 96 89 88 67 70 78 74 71 66 71 78 83 73 84 66 78 79 66 61 74 45 43 44 44 51 38 59 42 34 40 42 41 40 41 40
71 100 100 98 98 99 97 97 99 100 100 77 84 73 67 73 88 84 74 89 74 73 83 81 77 80 86 64 44 55 37 41 42 42 43 42 51 46 37 44 46 46 41 42 38
66 74 100 100 90 93 97 100 94 99 99 93 85 85 81 83 75 98 98 99 59 67 59 57 56 63 60 47 40 36 37 45 51 52 62 50 48 46 46 36 44 45 42 41 38
63 57 82 100 96 90 95 98 100 99 86 97 92 84 79 83 91 86 91 96 76 83 80 59 57 42 34 36 36 39 47 65 64 67 67 45 52 37 31 35 37 46 41 40 39
55 51 51 96 100 95 96 98 100 92 95 85 85 81 90 77 86 80 95 95 64 58 68 66 82 40 30 38 44 47 47 65 64 72 58 46 49 35 35 36 30 35 36 39 38
44 46 54 54 98 99 99 100 95 85 80 87 89 95 95 79 84 87 95 83 59 52 60 64 55 33 29 29 35 41 51 44 53 55 64 54 45 33 48 52 49 44 40 39 36
46 63 72 81 74 100 97 95 90 71 67 70 84 90 86 83 88 87 91 71 54 46 40 48 53 40 32 28 27 37 39 50 60 62 60 54 49 46 42 52 57 57 46 39 40
70 77 90 93 94 100 98 94 83 66 71 77 72 86 68 79 79 88 83 64 59 54 52 47 46 53 38 42 44 38 39 44 50 58 57 60 50 37 33 51 56 53 41 38 42
73 75 100 95 100 96 95 94 64 67 93 87 65 61 68 67 72 79 85 69 59 56 62 52 61 63 50 44 40 39 40 40 53 48 57 58 50 36 44 45 50 47 42 42 41
68 94 100 100 93 94 96 96 88 92 86 73 60 59 64 70 83 78 75 63 60 56 60 57 68 80 63 56 51 50 44 40 50 54 60 57 48 35 45 40 41 45 43 41 41
71 78 100 100 90 77 76 94 95 90 73 70 72 66 64 68 68 79 76 63 56 55 52 47 62 60 57 59 60 60 55 48 47 62 55 58 43 33 43 42 41 40 36 40 45
65 60 66 84 74 64 62 75 90 85 77 74 71 67 64 71 68 78 68 60 51 49 48 42 50 47 46 46 52 54 58 57 52 47 48 40 50 34 33 36 31 32 34 39 48
63 61 57 66 54 57 59 60 67 67 73 80 72 67 64 61 60 71 64 59 55 49 47 46 54 39 38 40 36 35 37 60 57 52 51 50 46 38 34 36 42 46 46 47 54
56 59 52 64 58 57 61 63 60 56 54 62 56 61 64 49 45 50 51 51 52 51 52 44 45 40 38 47 42 41 46 42 37 39 39 36 30 39 50 56 50 47 45 46 51

GFSSW_850_rhum_012.txt.gz
RH
35 36 38 39 42 54 66 76 80 91 87 82 75 76 83 86 92 85 82 41 37 89 80 70 66 60 54 52 48 38 53 58 44 36 29 27 38 31 30 28 24 23 23 23 21
39 42 40 38 40 49 63 70 75 76 70 69 71 76 84 88 95 96 71 52 37 78 88 77 71 70 59 56 45 45 62 54 41 30 30 34 39 36 32 28 24 22 23 22 21
78 63 53 51 49 52 64 64 66 62 69 75 77 74 84 93 99 89 63 55 37 61 94 82 73 71 58 53 46 48 57 47 40 34 33 42 41 35 31 34 25 22 21 21 20
80 80 65 62 64 60 58 73 67 67 70 75 77 77 82 99 92 92 75 50 44 45 97 91 71 63 64 62 48 50 44 42 39 37 39 44 40 37 32 28 22 23 23 22 20
49 54 73 59 60 64 62 63 64 78 73 72 75 75 91 98 86 70 84 81 58 52 94 97 72 62 68 60 54 57 50 45 42 41 44 40 40 38 31 27 22 23 24 23 21
66 72 74 70 67 57 56 55 56 68 70 69 70 82 90 97 73 58 60 81 92 80 75 86 69 59 57 56 57 51 49 47 45 42 41 39 38 34 30 25 24 23 22 21 20
79 89 92 83 78 67 63 57 50 54 69 70 79 93 89 80 62 62 58 56 85 84 80 75 72 58 53 56 50 48 49 44 38 35 40 34 40 40 28 27 25 23 22 21 19
77 92 93 95 91 84 72 70 64 49 53 70 85 82 94 78 58 65 84 57 77 89 74 71 72 64 56 50 42 45 41 52 41 34 32 34 36 33 22 27 24 23 25 24 22
65 72 86 97 98 90 84 77 82 65 56 76 96 84 85 72 62 57 74 77 88 84 80 86 74 70 59 62 61 47 61 53 47 34 36 38 46 30 28 26 24 23 27 30 27
79 76 84 92 93 99 95 85 83 78 75 92 97 92 74 83 68 52 53 82 92 77 98 97 80 86 80 78 83 72 55 50 53 36 37 40 44 33 29 26 25 25 30 34 30
78 91 96 96 92 99 92 98 81 88 89 85 86 84 74 73 81 63 46 72 94 82 92 85 98 92 82 66 60 57 50 56 43 36 36 42 44 36 31 29 27 28 36 39 33
71 93 100 100 94 99 100 79 70 78 92 79 95 86 66 86 87 70 60 77 89 75 77 99 91 72 72 67 58 47 50 52 50 38 38 42 43 38 37 30 26 31 39 41 38
71 82 100 100 99 100 99 81 75 83 89 84 78 94 89 77 80 84 60 70 84 67 82 85 77 66 70 64 62 56 60 58 60 47 41 45 47 41 32 32 35 36 40 42 36
67 74 100 99 100 100 100 97 94 95 100 89 87 75 81 86 85 70 54 66 76 71 67 89 87 74 76 80 67 87 55 48 47 50 59 42 62 48 36 40 45 44 45 43 39
69 71 96 97 92 93 96 100 92 100 96 72 78 67 63 83 71 82 40 60 88 78 75 91 97 89 80 70 67 73 47 50 47 51 48 46 55 49 38 45 48 52 47 46 43
62 66 85 100 93 98 96 100 96 100 96 92 80 88 88 73 73 80 74 71 72 65 66 70 66 78 84 69 56 47 42 45 55 54 68 52 50 52 44 42 45 47 45 47 44
60 67 71 81 91 99 96 100 99 100 93 93 84 79 76 90 77 79 86 88 89 90 85 68 78 59 51 65 44 47 49 64 68 70 72 49 57 49 36 36 39 47 42 47 46
62 69 82 74 100 91 94 96 100 89 97 77 78 77 81 80 79 82 84 90 90 58 72 86 94 61 40 60 70 55 54 68 68 74 61 52 57 39 36 47 36 35 36 46 46
61 56 92 83 100 91 94 100 98 90 83 90 77 78 84 71 79 76 87 89 79 56 68 71 78 42 44 35 58 49 56 46 60 59 70 61 47 39 44 53 52 47 41 47 46
59 75 94 92 100 97 96 99 94 82 75 74 90 80 84 72 93 92 93 78 76 52 48 55 57 43 34 29 30 44 43 53 62 64 68 61 51 50 35 42 54 59 51 47 46
81 91 98 100 99 99 99 96 91 68 64 71 77 86 75 84 77 84 86 79 61 55 45 47 51 53 38 44 44 40 46 51 54 62 61 63 50 41 38 39 55 58 46 45 45
81 89 99 97 98 93 96 90 80 77 80 82 66 64 68 79 78 87 87 76 54 56 56 47 60 65 49 45 40 38 42 44 60 56 63 62 54 35 48 54 53 52 45 43 43
79 99 100 99 100 99 93 89 76 83 87 81 66 58 55 71 87 86 88 66 60 58 61 57 65 81 65 55 54 49 45 43 52 56 64 60 51 39 48 52 50 50 46 42 42
81 98 100 100 100 95 95 91 90 95 89 72 69 60 67 73 76 88 86 64 60 56 51 46 64 59 65 55 60 63 55 49 49 64 62 60 43 35 44 43 44 43 42 43 44
78 71 80 98 96 83 73 89 94 93 80 70 70 62 65 78 78 82 71 67 55 54 52 44 57 51 48 53 55 56 57 56 53 48 53 46 51 38 34 35 35 35 38 42 47
68 67 70 70 60 71 63 85 88 68 77 74 77 71 66 68 65 80 69 63 62 52 50 48 55 42 42 42 38 44 53 60 54 54 44 50 50 40 40 40 48 47 46 47 50
61 62 57 66 60 59 62 72 64 60 81 64 64 68 61 54 51 54 53 55 55 51 52 46 47 47 50 45 41 38 44 67 58 52 55 61 47 40 56 55 48 45 41 43 44

GFSSW_850_rhum_015.txt.gz
RH
38 34 32 33 38 41 49 61 69 80 89 93 94 89 85 85 90 84 85 53 47 77 93 82 72 69 60 54 48 38 49 53 46 39 34 25 37 34 34 32 27 24 25 26 23
40 39 40 39 35 37 43 47 56 66 80 88 86 83 80 86 92 94 70 67 53 39 84 98 80 74 66 56 50 45 58 53 42 34 31 30 40 38 36 33 28 24 22 22 23
42 55 54 49 48 50 49 80 63 61 69 72 70 71 72 88 100 95 63 58 55 49 54 99 89 84 69 58 51 49 56 50 41 36 34 38 43 38 35 38 27 24 22 21 21
55 48 45 51 55 62 59 55 83 81 72 63 71 74 81 94 90 90 78 75 57 60 53 98 95 77 70 64 50 52 46 43 40 38 41 44 42 42 37 31 26 27 25 23 21
62 55 48 62 61 52 62 62 60 62 74 69 75 80 89 99 90 78 77 86 78 99 76 95 97 72 71 63 56 56 50 47 42 42 46 46 47 43 38 34 31 24 24 24 22
67 70 72 73 73 68 63 53 56 60 72 72 69 87 89 98 75 62 77 65 84 99 92 93 88 66 65 60 57 54 48 46 46 44 45 43 42 39 34 33 31 27 25 24 22
73 92 86 82 91 85 77 62 57 55 59 71 70 86 96 83 62 59 59 59 58 83 95 82 76 66 58 62 54 52 56 49 45 41 39 37 42 44 27 26 31 29 25 22 24
72 88 85 83 94 94 90 79 67 63 53 63 77 94 98 86 65 57 66 65 58 59 76 75 82 70 59 52 52 54 47 66 48 37 35 32 45 31 27 32 30 26 24 27 31
53 64 60 65 82 94 94 86 75 74 79 66 89 97 90 69 60 52 58 73 82 60 75 77 92 75 62 56 55 52 76 60 53 41 41 39 42 34 27 26 28 25 26 32 34
60 74 74 89 89 94 98 99 83 87 84 86 96 96 85 82 72 63 51 55 89 78 98 92 100 85 74 70 82 65 66 54 53 41 41 40 42 34 31 29 28 26 29 35 34
62 65 82 92 96 97 100 100 90 94 91 76 85 75 76 74 66 68 57 59 82 97 83 84 97 95 75 71 60 55 58 58 54 38 38 41 42 34 31 31 32 31 36 39 37
50 69 85 92 99 98 100 96 74 65 91 74 86 89 80 88 90 80 61 71 90 84 75 84 96 76 68 69 57 56 56 55 50 41 39 43 41 34 35 34 29 30 42 40 40
53 70 81 98 93 99 99 96 80 89 90 84 73 94 93 75 86 74 78 69 87 69 78 85 77 65 70 74 70 62 63 62 60 50 43 45 44 40 33 32 36 34 40 39 38
54 68 80 100 95 99 99 100 93 92 100 92 89 79 85 76 76 65 72 68 85 68 59 84 86 71 73 76 70 82 56 55 54 62 67 42 56 47 36 36 44 49 49 42 42
54 64 79 98 99 90 94 99 100 100 98 82 84 67 74 69 70 75 67 62 77 65 63 90 96 78 81 74 64 74 61 59 56 57 50 49 51 43 41 39 46 52 52 47 43
54 60 75 88 97 97 99 100 95 100 95 95 85 92 88 80 70 69 72 63 82 60 55 90 93 69 67 67 63 46 47 48 50 49 62 52 47 46 39 35 47 51 53 52 47
64 68 76 79 99 99 99 99 100 99 84 97 91 88 75 88 78 74 76 78 98 84 79 88 95 94 76 65 63 56 66 98 78 65 65 53 55 42 38 35 39 44 50 52 47
73 80 93 86 83 98 99 99 99 76 91 73 78 79 84 82 79 78 80 89 88 91 62 97 97 80 68 77 83 81 69 68 70 71 59 56 56 36 34 44 41 39 44 50 48
98 94 100 88 92 97 97 100 89 82 90 82 79 81 84 78 77 82 82 78 80 80 60 83 78 62 47 54 71 77 85 48 62 62 66 59 48 37 39 48 51 50 46 51 48
90 98 96 100 99 99 98 98 89 89 88 68 68 71 83 81 82 84 88 71 73 73 57 62 64 51 38 38 40 57 49 70 60 65 69 61 53 47 36 38 55 57 57 55 50
74 100 100 100 100 97 100 98 86 76 83 70 80 87 71 76 87 84 89 78 70 74 53 50 55 56 44 48 48 56 67 57 53 61 61 58 45 40 38 39 44 56 50 50 51
87 92 99 98 97 94 97 87 83 84 73 69 66 76 79 63 80 86 90 78 62 62 54 45 59 75 56 47 45 43 49 47 58 60 62 57 49 37 48 48 51 56 46 46 46
88 99 100 99 99 97 88 90 85 83 71 83 75 61 64 73 90 84 79 63 67 65 60 52 66 79 64 52 57 50 44 44 51 53 61 56 48 38 50 55 54 53 45 45 49
93 99 100 100 99 99 94 91 92 87 89 88 68 61 72 81 76 88 84 72 66 58 49 43 61 64 70 61 61 60 52 49 44 58 57 53 41 36 42 48 55 53 46 44 46
85 86 94 97 97 97 97 92 88 95 87 89 72 62 68 93 90 86 82 70 61 58 51 48 55 53 49 50 52 56 57 53 49 43 44 45 49 40 41 44 46 43 46 47 49
82 77 80 76 70 98 96 95 88 92 88 78 74 63 66 80 76 86 75 69 65 57 55 49 57 45 45 51 53 58 59 50 46 52 49 48 49 41 41 42 47 48 45 45 47
72 70 65 61 62 73 70 84 91 89 87 70 62 68 74 59 53 56 52 54 56 54 55 51 50 54 58 45 42 50 50 62 50 56 43 52 39 48 58 58 54 52 50 52 52

GFSSW_850_rhum_018.txt.gz
RH
30 31 32 30 29 30 37 66 74 81 91 95 96 90 91 88 90 94 94 59 54 64 79 59 78 77 80 61 50 40 36 36 33 32 28 22 28 31 32 29 24 24 24 28 23
38 37 41 42 39 34 30 33 36 48 69 82 91 91 90 90 91 99 70 57 52 54 77 94 82 81 70 58 52 39 40 35 29 27 28 28 32 34 33 26 24 21 22 25 27
46 46 46 51 45 46 46 46 47 45 53 64 74 78 77 81 99 88 62 53 52 62 87 89 98 92 67 54 49 42 41 32 33 32 30 33 34 35 34 32 25 23 22 23 27
56 57 42 40 46 47 54 52 53 80 75 60 65 72 76 92 62 93 78 73 62 83 93 79 80 92 75 57 47 46 39 35 34 38 38 35 36 36 35 35 31 30 30 29 25
63 61 42 42 58 58 48 54 57 66 71 69 64 71 88 98 73 82 79 76 74 82 98 73 83 83 70 55 47 46 36 38 38 40 39 41 39 36 37 33 32 33 33 29 26
66 69 67 75 79 73 70 62 53 59 74 74 73 78 97 86 71 66 71 68 68 88 98 75 79 65 62 58 49 43 43 40 38 40 39 42 35 38 31 30 29 28 29 28 26
63 73 87 88 84 79 72 76 65 56 56 73 76 83 100 77 66 60 59 63 65 67 80 81 82 78 58 63 56 44 48 42 40 41 37 39 39 34 30 25 25 24 26 30 25
49 81 71 74 70 75 79 87 81 74 56 57 81 89 93 82 66 65 64 68 61 61 71 75 85 100 75 55 57 52 54 56 36 38 38 37 41 26 27 24 24 24 25 36 32
46 84 76 71 68 72 82 95 90 84 81 66 82 94 79 77 75 59 72 72 80 69 68 77 91 99 70 66 68 60 62 57 41 37 35 36 36 25 26 26 23 21 26 35 41
47 76 78 72 82 92 86 91 98 83 92 88 85 96 80 75 75 72 72 65 67 84 79 91 91 96 75 72 84 61 59 40 46 34 34 37 36 26 24 26 24 22 27 34 38
46 65 73 82 91 98 94 100 99 99 99 76 73 67 76 81 76 80 74 72 66 83 87 73 94 95 84 59 46 42 40 46 40 33 37 36 35 29 25 26 23 24 27 34 40
44 55 73 81 85 99 99 99 87 77 84 94 86 81 84 82 84 75 82 65 68 78 82 70 95 72 70 59 45 42 46 45 37 35 36 36 38 32 26 23 24 23 28 35 44
45 51 68 78 100 100 100 98 98 89 95 91 86 86 85 79 76 70 80 61 58 73 94 77 76 68 68 51 52 52 49 44 43 42 41 39 38 29 25 26 28 27 30 37 40
47 52 64 79 99 92 99 100 100 96 100 91 86 82 84 74 77 66 76 57 59 75 92 61 62 74 73 57 48 60 43 42 52 59 57 39 46 32 23 25 29 30 36 39 43
55 53 62 84 98 99 93 93 100 95 95 73 85 82 75 66 61 64 74 61 67 77 89 84 84 90 79 57 48 45 48 48 53 59 58 46 48 31 29 25 28 31 38 42 45
80 59 64 78 94 100 97 98 99 99 92 96 89 84 75 68 52 74 72 63 75 77 68 53 81 78 58 49 47 50 50 47 43 46 60 41 40 30 23 23 28 32 40 44 47
98 76 67 69 93 97 100 98 100 98 80 98 97 75 66 71 68 82 70 76 99 99 98 67 86 86 53 66 57 48 54 94 88 78 54 38 41 29 23 25 26 32 40 44 51
98 99 84 82 77 95 100 98 99 72 88 87 71 70 71 66 63 76 64 70 88 89 80 99 98 91 59 62 73 58 52 53 60 56 46 44 42 26 24 29 30 29 38 46 52
100 99 98 97 92 94 98 100 81 79 88 94 68 78 67 63 56 68 61 62 74 77 90 84 99 89 80 64 57 77 68 40 44 46 42 35 32 27 28 31 34 32 40 48 52
100 100 79 83 99 100 99 98 88 79 86 82 69 62 66 61 65 69 66 53 62 63 65 49 96 85 89 76 65 66 51 72 49 53 51 39 38 30 26 26 36 35 41 47 52
100 95 95 99 100 99 100 99 89 82 85 92 56 57 50 58 56 63 59 62 52 50 60 52 52 65 71 83 75 70 84 73 47 43 41 38 32 25 26 28 30 32 38 46 54
84 96 100 100 97 97 98 92 82 81 86 80 59 41 45 48 54 93 58 64 48 46 64 54 38 55 77 47 47 51 58 56 59 51 42 37 31 25 29 31 35 35 40 48 53
90 99 100 99 98 97 90 90 86 86 89 84 73 41 40 43 52 83 54 44 59 54 50 42 44 60 60 53 43 54 52 49 40 38 42 43 34 28 34 37 41 39 42 49 55
91 98 100 100 99 95 94 93 94 84 77 83 74 52 41 44 47 65 66 59 62 54 51 44 44 39 50 41 40 54 49 44 46 50 41 38 30 28 33 36 40 42 42 48 57
72 81 88 98 95 94 90 87 88 94 88 92 82 54 44 46 66 62 63 68 65 60 58 51 47 42 41 43 38 42 48 45 47 42 44 35 35 28 23 31 36 41 42 45 51
76 80 93 81 85 91 95 88 89 83 86 87 92 56 44 43 58 67 66 61 67 59 60 48 51 43 43 46 43 44 39 41 44 42 38 33 33 25 27 34 36 40 44 45 49
90 70 73 54 60 94 92 92 92 78 89 70 67 57 56 46 50 47 49 51 50 58 60 51 50 47 50 41 45 51 43 42 36 33 32 39 30 31 37 35 38 42 44 46 51

GFSSW_850_rhum_021.txt.gz
RH
36 36 33 32 31 29 30 47 76 90 97 100 97 97 94 95 95 92 91 72 65 54 51 72 63 76 70 62 48 40 36 36 30 27 23 21 23 22 27 26 22 20 21 24 26
38 41 41 40 42 41 34 28 30 48 68 76 81 94 96 93 98 100 74 67 60 60 71 63 56 54 66 58 47 41 39 33 23 21 23 22 26 28 29 25 22 21 19 21 22
47 54 54 44 49 46 43 42 33 34 37 48 67 86 92 92 92 78 78 56 56 56 68 67 69 80 63 55 46 41 42 28 25 24 26 25 28 27 29 30 26 22 21 23 24
55 61 61 42 45 52 46 47 44 45 65 58 59 71 73 82 57 73 51 65 76 94 90 71 59 70 67 64 46 43 34 31 27 29 32 31 28 29 29 29 28 29 28 28 27
55 66 62 40 52 66 63 53 51 52 68 78 68 66 80 84 62 75 72 75 70 78 83 70 55 54 54 47 52 44 34 32 31 30 33 33 31 32 31 30 29 28 28 28 28
42 66 68 61 69 78 77 72 63 47 53 61 74 69 93 73 52 55 73 76 71 70 74 71 55 49 46 47 46 46 36 34 31 32 32 33 31 31 30 29 27 25 24 24 25
38 51 70 79 89 88 90 84 75 63 47 55 76 87 95 71 62 62 64 62 62 64 67 75 64 51 52 51 44 48 47 36 34 32 31 32 36 34 29 27 24 19 18 20 26
43 43 77 76 79 73 77 96 90 77 61 51 63 97 96 76 75 72 69 67 65 62 58 60 77 59 66 59 50 47 58 66 36 31 31 35 45 27 23 24 20 18 19 24 33
82 46 58 74 65 67 83 79 96 86 80 67 65 96 78 71 76 67 66 62 59 66 60 56 66 68 79 86 81 60 65 63 51 29 30 34 40 25 24 23 21 19 18 24 32
91 67 48 76 76 75 93 91 99 94 92 96 89 87 70 68 66 70 66 64 59 58 60 55 65 75 84 91 92 66 61 55 53 31 33 36 35 27 25 22 22 20 17 23 29
85 83 49 70 76 84 99 100 100 99 100 86 74 62 58 60 69 75 64 66 65 56 68 59 86 87 73 78 51 46 49 50 36 26 30 32 33 26 22 23 22 21 18 22 30
69 78 50 66 84 89 98 99 96 87 93 94 76 70 62 78 69 70 65 63 59 63 51 69 92 58 47 62 76 52 48 43 30 28 33 33 31 26 23 24 24 21 19 22 34
71 58 50 69 80 90 99 98 99 91 96 94 88 80 73 75 68 58 65 62 47 54 54 76 61 52 46 73 81 61 53 37 35 32 34 35 38 32 27 25 23 21 19 24 34
92 54 51 70 84 84 100 97 100 99 100 86 89 86 88 95 86 65 64 60 52 56 52 75 59 78 56 77 77 71 38 37 35 46 49 36 42 25 22 24 23 21 21 27 33
98 67 53 65 95 98 98 100 100 100 96 69 82 87 82 93 54 55 54 65 64 54 92 84 76 85 70 82 75 50 38 38 39 43 50 52 51 30 22 23 23 21 24 31 35
100 85 62 77 78 97 97 100 98 99 92 91 89 90 83 85 60 60 57 63 56 61 92 61 59 63 60 69 75 49 43 44 44 48 70 45 42 29 26 22 19 22 28 34 36
98 100 77 92 88 98 99 99 100 97 72 96 98 94 76 69 65 58 76 80 96 99 100 77 88 84 78 91 80 55 62 92 83 76 51 30 37 27 22 22 21 25 30 35 39
99 100 98 88 96 99 100 98 99 67 80 91 91 75 78 52 52 62 90 96 73 85 100 100 98 92 75 88 82 73 61 49 64 54 40 34 41 27 21 22 22 26 32 36 41
100 99 100 98 99 100 99 99 88 78 89 95 94 89 75 50 52 65 91 72 55 66 100 90 92 82 90 84 60 69 54 38 39 34 35 37 30 23 23 28 26 25 32 38 42
100 100 98 99 99 100 98 96 93 76 87 91 96 59 62 56 58 62 74 53 48 58 77 81 99 94 92 66 69 56 38 56 41 48 44 34 29 29 26 24 28 26 32 38 42
100 99 93 100 100 100 98 98 93 79 86 95 90 66 44 44 46 61 60 46 37 48 76 84 98 98 89 92 84 71 58 54 39 38 37 37 29 21 23 24 25 27 31 38 42
100 96 98 98 98 96 97 95 87 82 90 90 78 54 39 34 42 52 49 42 37 45 86 74 81 100 93 62 48 57 54 48 47 49 35 33 32 21 23 27 27 27 32 38 44
94 90 100 98 98 97 94 94 91 90 88 91 86 57 32 35 45 54 52 32 48 49 57 58 57 99 99 83 67 63 59 54 42 39 40 36 34 23 28 29 29 30 33 40 46
89 98 100 100 91 89 96 95 96 84 86 82 64 44 37 37 34 48 57 43 47 39 47 46 46 42 54 55 66 67 63 50 46 48 41 35 30 26 28 31 31 33 35 40 46
90 87 76 97 94 93 90 87 95 94 86 77 87 53 42 40 39 43 46 47 47 50 46 52 48 37 31 34 40 47 52 53 54 45 44 33 31 24 23 26 28 32 35 40 46
89 69 90 86 77 84 92 93 95 89 89 94 93 59 40 33 35 51 49 48 57 55 50 50 49 40 42 38 36 37 37 41 42 40 36 32 31 23 21 23 29 32 34 39 45
96 76 70 50 62 85 83 89 87 83 80 75 76 70 45 29 28 42 44 40 44 54 57 56 56 46 48 38 42 50 37 36 36 34 33 39 31 25 28 28 29 32 35 37 41

GFSSW_850_rhum_024.txt.gz
RH
28 31 39 43 44 36 30 29 47 76 87 92 94 98 100 98 96 94 78 70 73 67 55 43 65 59 75 71 58 45 53 52 40 35 31 20 22 20 23 25 24 23 20 24 23
33 38 45 52 52 49 44 36 29 34 66 86 93 90 96 96 96 99 67 63 70 68 54 65 56 48 55 64 61 51 59 50 31 27 27 22 24 26 28 27 25 24 22 20 22
38 48 56 59 49 47 44 44 43 39 36 40 61 77 82 90 94 79 66 53 67 75 61 80 63 59 66 58 57 52 60 41 31 26 24 25 27 25 28 34 28 26 27 27 26
36 52 61 56 42 45 51 46 48 49 50 54 46 48 59 81 67 69 57 67 76 98 94 88 68 56 61 62 52 55 44 39 34 30 28 31 29 31 28 29 29 28 28 28 28
38 47 64 56 41 52 62 62 57 56 58 69 73 54 69 89 66 69 52 55 64 70 93 84 69 53 58 50 55 56 45 37 33 32 31 30 33 34 31 30 30 29 28 27 27
54 40 58 65 60 71 77 71 70 64 60 63 64 66 73 77 56 54 62 62 68 64 70 78 68 55 47 46 47 48 49 44 38 32 30 32 33 32 31 29 29 29 28 25 24
76 43 44 66 73 87 81 76 80 82 69 62 72 86 96 70 57 58 56 60 64 63 59 62 65 64 46 47 44 42 55 47 45 35 34 31 38 38 32 30 29 28 26 18 19
71 62 44 69 75 81 69 61 78 87 87 68 62 94 90 78 59 68 68 63 62 61 56 57 61 64 71 59 61 60 57 74 49 46 34 36 50 36 31 28 29 26 19 19 24
71 87 70 49 79 74 66 76 79 84 96 83 63 91 71 66 74 59 69 63 60 59 59 56 53 68 64 70 87 72 82 68 62 43 38 37 46 34 31 28 26 23 21 20 29
68 80 93 52 76 85 80 83 90 90 98 98 95 84 70 62 65 69 70 65 60 54 58 60 53 74 81 78 86 78 82 61 67 51 43 44 39 35 29 27 24 22 21 22 29
83 60 92 64 65 84 89 93 96 99 100 83 80 66 56 65 60 64 64 63 61 58 65 55 73 86 74 69 65 57 59 62 48 38 45 45 39 35 29 29 27 25 22 22 29
86 61 83 68 64 83 95 99 98 91 95 96 79 78 61 65 62 60 63 61 61 71 57 65 84 58 52 57 63 67 75 71 50 38 42 41 37 34 30 28 25 24 23 22 35
88 84 65 56 72 87 96 96 98 100 98 93 88 86 75 69 73 58 65 61 55 66 65 74 62 56 50 56 62 61 76 72 79 41 35 40 46 40 30 25 23 23 24 24 32
91 94 66 61 77 71 95 99 100 100 100 90 92 89 88 92 94 75 65 65 67 68 58 60 49 52 68 61 56 71 58 63 77 56 67 43 66 42 34 31 29 26 24 32 36
94 98 81 50 89 97 93 91 100 99 97 75 80 82 88 91 73 69 71 69 81 68 57 85 69 64 67 73 61 63 56 76 72 73 70 60 63 50 34 32 31 29 22 33 35
94 99 92 71 75 92 98 94 98 98 94 90 84 85 84 88 81 66 67 65 67 72 63 68 63 74 56 52 61 61 68 85 86 68 86 56 65 51 36 31 30 28 25 34 36
96 99 98 72 77 75 100 99 100 99 67 96 95 85 78 82 80 71 68 75 88 99 97 81 83 68 76 77 60 69 90 99 100 99 89 50 55 46 26 24 25 28 31 35 36
96 100 100 82 94 96 100 97 99 54 79 88 91 85 97 68 67 62 83 95 70 77 96 89 72 89 78 91 78 87 95 92 97 91 59 38 58 41 27 24 22 26 32 36 41
95 100 100 97 94 96 97 99 80 64 86 95 96 100 97 63 54 60 68 70 65 71 98 100 98 78 62 76 74 87 99 76 52 38 51 49 34 26 32 32 29 33 36 39 43
97 100 99 100 95 100 99 94 80 68 86 91 97 90 80 60 64 82 68 56 65 60 67 83 99 86 81 83 85 85 70 71 66 59 63 54 46 42 37 39 32 38 40 41 44
98 100 97 100 100 100 97 96 79 82 88 95 96 86 65 55 53 83 77 53 56 63 71 81 93 95 96 94 95 97 85 64 52 50 61 58 45 32 31 34 35 36 39 42 44
100 98 94 100 98 96 96 84 89 90 89 90 92 82 63 44 49 55 66 49 40 66 93 80 99 100 98 81 79 68 60 57 55 65 56 46 45 28 32 30 34 30 38 41 44
98 97 100 99 98 97 84 92 94 92 89 94 94 83 53 55 45 44 47 36 47 58 76 85 96 100 100 86 92 83 56 53 52 50 57 50 48 34 38 35 30 32 38 41 45
94 96 100 100 96 83 87 97 98 93 90 84 81 72 67 65 34 48 48 46 45 38 52 78 93 99 98 87 72 76 65 59 60 64 50 43 41 40 42 41 38 33 37 42 46
86 93 85 98 96 94 88 94 96 97 92 87 87 84 68 51 40 41 51 50 56 45 60 63 86 79 71 66 62 68 65 65 67 57 54 41 36 36 40 42 39 33 38 44 47
97 89 89 85 74 82 90 94 96 92 91 92 90 72 66 48 36 40 46 50 54 54 52 50 73 53 47 62 65 65 58 60 57 54 52 49 41 26 26 30 34 34 37 44 47
96 75 79 68 76 89 84 90 87 88 85 79 79 78 75 51 28 55 33 38 47 55 65 60 66 58 58 42 42 54 46 54 52 50 50 56 39 29 33 36 35 33 37 42 46

GFSSW_850_rhum_027.txt.gz
RH
36 32 34 42 46 41 34 29 29 40 70 86 97 100 100 99 96 92 79 68 72 68 65 56 42 50 63 71 74 67 74 73 61 49 39 29 23 21 22 24 25 24 24 22 23
36 37 44 54 56 46 41 39 36 30 34 71 83 93 100 100 100 98 66 67 74 75 66 59 62 63 57 66 76 72 84 68 45 40 36 30 25 25 29 30 29 26 26 24 24
35 38 51 60 57 44 40 42 44 42 39 33 41 72 85 94 90 74 62 58 64 90 66 62 63 70 62 60 67 68 79 55 45 38 36 32 30 27 29 33 30 29 30 28 29
54 37 50 64 53 40 51 54 50 49 48 48 48 43 57 87 91 62 54 48 80 90 91 80 64 74 65 76 60 80 63 59 50 45 43 36 30 32 30 31 29 29 29 30 29
73 50 41 67 60 42 58 65 66 59 50 50 66 66 70 82 78 64 53 55 56 66 77 94 90 79 68 60 58 69 57 54 51 46 42 37 36 35 34 31 30 29 28 29 29
75 81 41 53 68 63 73 79 77 72 63 51 56 67 74 98 47 52 52 56 60 66 70 75 82 72 68 57 56 52 53 53 56 50 41 38 38 36 32 32 32 30 30 29 29
86 69 56 40 62 72 88 81 87 84 77 65 57 79 84 67 52 58 61 66 58 60 66 61 68 74 68 62 52 57 60 49 46 52 52 45 45 44 32 32 32 31 30 29 29
91 69 63 41 53 73 81 72 61 76 88 85 65 68 88 64 48 62 60 62 62 62 62 56 57 58 66 69 64 69 73 76 50 52 50 46 59 42 33 32 33 32 31 30 23
85 77 80 72 44 76 74 66 68 85 84 97 82 62 78 58 66 52 64 60 59 60 59 51 56 57 66 78 85 88 90 84 68 51 52 53 58 40 34 33 33 32 29 28 25
95 86 70 90 60 73 80 76 78 88 96 99 88 97 77 61 61 62 65 69 66 59 58 62 58 75 93 86 86 77 89 81 84 55 56 60 60 45 33 33 35 31 30 24 26
90 95 61 91 80 65 83 84 90 98 100 85 82 69 58 61 61 62 66 71 68 65 74 62 88 89 82 86 70 68 76 80 66 51 56 55 55 49 40 33 37 31 26 27 33
86 94 73 86 83 60 84 88 84 87 95 90 80 87 68 64 69 61 64 70 68 80 72 77 88 66 60 63 79 75 84 84 65 57 57 56 58 45 39 38 34 32 28 31 41
92 93 84 80 74 74 80 82 87 89 99 90 84 99 90 77 76 72 62 65 69 80 76 82 65 54 60 67 72 74 83 79 70 62 61 64 63 54 42 34 32 30 27 32 36
92 96 97 84 74 69 93 84 87 100 100 84 91 90 93 90 86 76 70 63 65 78 71 71 58 59 69 72 62 76 54 54 60 72 86 58 92 60 45 40 36 29 28 33 40
94 97 99 79 59 75 70 79 99 100 96 74 81 82 88 90 76 76 78 82 94 87 79 89 72 68 69 65 62 69 52 60 61 76 84 76 83 65 44 46 37 32 34 39 39
98 99 100 86 90 93 95 90 87 93 95 91 84 84 91 87 78 72 80 77 82 93 90 89 68 75 61 52 53 55 65 69 69 77 97 81 90 73 53 40 37 35 38 44 46
98 100 100 90 84 98 97 82 98 96 62 91 90 80 75 78 85 74 84 95 91 98 96 91 85 74 76 87 72 70 84 90 97 96 85 72 82 72 39 33 33 37 45 46 46
100 100 100 96 73 72 93 95 99 64 79 82 83 75 91 77 84 82 85 90 83 83 97 97 94 85 71 72 74 83 81 87 87 73 69 72 99 55 39 31 30 38 43 47 54
100 100 100 97 86 88 90 99 83 68 76 91 94 100 95 76 72 77 86 77 69 75 91 94 91 70 64 60 58 75 92 62 94 97 80 71 52 32 35 40 44 45 48 58 61
100 99 100 100 95 100 97 91 80 73 85 90 100 94 94 83 82 77 76 62 67 64 62 85 97 67 79 84 68 71 59 91 99 95 98 68 51 48 44 42 47 48 50 60 62
100 99 100 100 100 99 98 95 69 66 78 93 97 98 91 93 72 86 80 64 53 58 64 95 100 90 97 95 86 91 91 79 78 72 96 79 58 39 43 38 47 48 49 59 59
100 94 100 100 98 96 100 85 74 79 82 89 92 95 93 77 86 77 85 66 51 63 85 92 99 99 93 79 69 71 75 78 86 100 86 60 51 35 39 39 42 47 49 55 54
98 99 100 100 98 98 86 77 80 82 93 95 95 90 72 72 87 60 54 47 59 69 85 93 99 100 99 96 91 94 82 74 87 82 69 64 52 42 41 41 39 47 50 54 55
96 98 100 100 95 90 91 90 95 92 93 90 90 85 87 84 72 73 51 52 63 59 66 84 98 100 100 91 86 97 94 86 77 81 71 60 56 46 43 45 50 46 48 51 53
93 94 87 98 98 90 86 93 97 99 94 94 95 91 83 89 75 66 54 51 61 53 70 89 99 96 92 81 72 74 74 76 83 77 65 51 50 50 48 46 45 48 50 54 57
96 97 86 89 81 96 95 96 95 94 93 95 96 82 83 84 67 48 55 60 66 60 62 73 98 89 92 65 66 68 65 71 70 66 58 57 50 35 42 41 43 50 51 56 59
94 86 83 87 84 94 95 94 84 86 86 83 86 85 84 76 64 56 50 52 50 62 59 65 79 88 84 68 65 72 69 67 65 57 56 62 48 38 44 44 44 49 50 53 55

GFSSW_850_rhum_030.txt.gz
RH
36 33 36 45 56 54 45 37 30 29 55 83 100 97 98 100 96 94 82 77 69 65 65 58 49 50 62 65 75 76 85 84 66 57 47 31 30 25 19 22 24 25 27 26 28
58 36 36 54 64 61 50 44 39 32 28 48 88 96 99 100 99 95 69 75 74 71 65 62 53 62 59 64 68 85 96 80 56 48 46 37 31 30 30 31 30 28 28 26 27
78 46 37 58 65 54 45 42 41 40 38 34 38 71 86 89 86 69 54 56 61 93 66 65 58 70 65 62 70 81 88 64 54 46 42 44 38 34 31 36 30 30 31 30 29
86 72 38 46 67 47 43 54 54 51 47 45 47 41 40 74 63 61 55 53 56 94 90 76 71 76 68 81 68 82 70 66 62 56 53 53 42 37 33 29 28 29 28 29 30
88 78 66 39 65 52 46 63 65 64 57 52 56 62 52 86 52 61 58 58 57 83 89 91 91 82 78 65 61 74 68 61 61 60 58 53 51 46 39 35 30 29 29 27 29
85 87 80 55 46 66 58 72 74 71 68 58 60 62 70 90 41 44 66 58 60 62 72 83 81 73 82 73 68 58 57 58 58 58 59 56 52 46 40 35 33 32 30 27 26
82 90 84 73 43 64 74 86 79 83 80 74 57 67 91 64 48 58 52 56 68 64 70 70 73 79 76 72 66 64 73 62 56 49 53 53 65 60 44 37 33 32 31 30 30
79 85 90 67 48 57 72 79 69 60 77 87 81 61 75 58 54 60 60 65 71 70 65 65 60 58 62 69 70 75 74 85 54 51 51 55 76 53 42 37 36 34 32 30 32
79 77 82 73 64 58 78 73 66 68 80 94 96 73 66 58 54 53 55 64 64 63 63 56 58 58 66 82 88 85 95 84 75 49 57 64 64 51 44 39 38 35 32 33 32
83 87 97 76 87 55 80 79 75 78 90 99 99 95 76 60 55 58 52 62 65 64 62 63 61 76 94 92 85 78 86 85 81 66 56 63 65 56 45 42 39 35 33 33 33
80 82 96 85 92 76 78 93 89 98 100 91 86 79 60 60 61 63 61 62 68 71 78 68 90 92 81 88 78 75 79 88 73 60 69 66 61 51 48 49 45 41 34 33 33
84 77 88 93 90 93 76 92 82 86 90 76 74 90 77 68 75 64 65 72 74 86 76 82 89 67 66 69 83 91 92 86 66 56 58 71 73 58 48 44 45 41 38 34 31
84 82 89 94 95 98 67 73 79 83 93 84 80 98 96 82 81 73 66 70 74 83 80 87 64 58 68 73 79 80 93 84 82 65 56 53 65 62 51 47 41 40 37 35 33
87 88 92 97 100 92 98 63 91 92 98 87 88 88 90 93 86 78 68 67 69 82 78 81 65 64 68 75 72 87 68 70 68 65 90 63 83 64 55 51 47 40 38 36 36
95 94 99 98 89 77 58 78 86 97 86 68 90 89 92 84 78 80 77 72 92 85 82 87 82 77 74 69 63 74 55 59 60 61 71 69 85 70 58 55 50 44 38 35 35
90 100 100 100 75 52 59 81 98 87 93 91 84 86 92 87 81 77 83 80 92 87 91 92 73 78 66 55 55 60 66 69 70 75 97 66 76 65 64 54 47 42 38 35 44
95 100 100 98 80 69 84 100 95 96 61 92 90 87 84 84 77 79 92 95 99 100 94 95 97 82 74 77 66 61 84 96 97 96 82 53 76 58 60 54 41 36 39 38 49
95 100 99 98 85 92 88 92 98 63 84 73 72 74 85 74 74 86 91 93 87 89 94 99 90 95 81 81 82 80 78 92 93 99 62 74 86 66 50 38 36 38 36 52 60
98 98 100 100 90 86 88 99 84 69 74 76 75 88 87 75 76 87 90 89 84 87 95 96 90 73 68 65 62 84 95 63 88 82 98 82 75 56 52 46 48 49 56 63 69
96 99 100 99 93 88 94 88 76 76 78 76 88 87 87 80 95 97 91 72 70 72 65 78 95 78 69 74 69 62 62 89 95 98 98 88 72 41 48 56 59 58 61 70 79
98 99 99 100 88 99 98 98 78 79 76 87 86 95 95 88 83 89 81 65 61 64 71 70 98 88 90 99 90 97 89 75 65 78 95 98 78 40 37 47 57 58 64 75 80
99 99 100 99 98 97 99 82 68 76 79 83 83 94 95 94 95 85 86 65 52 56 90 87 100 98 89 75 71 72 74 69 76 70 70 98 74 45 41 48 47 53 65 74 75
100 96 100 99 99 98 94 76 75 81 82 89 95 91 83 92 98 79 63 53 54 62 92 93 100 98 99 99 84 81 70 62 53 80 72 89 71 45 50 52 50 58 67 72 75
99 100 100 100 88 92 89 83 89 81 78 87 93 90 92 96 78 86 72 51 53 60 79 89 100 99 96 91 89 99 84 70 61 88 69 95 85 56 50 53 60 59 66 69 68
98 96 88 90 98 90 81 83 88 97 86 90 96 95 95 95 90 90 73 66 68 65 85 92 100 100 97 94 95 78 90 83 78 68 78 61 80 62 48 51 57 59 65 70 75
98 95 84 82 88 87 87 93 91 91 93 97 99 86 93 94 81 62 61 59 65 70 86 88 100 100 99 84 94 93 82 78 82 85 92 69 59 42 51 51 59 60 64 68 73
97 83 71 87 85 92 95 84 87 80 86 81 90 95 87 88 75 71 68 65 60 70 75 86 97 100 100 77 90 99 94 88 96 84 80 74 47 47 46 49 62 60 59 62 68

GFSSW_850_rhum_033.txt.gz
RH
91 57 38 37 48 62 57 46 37 34 46 71 83 94 100 100 98 100 92 75 73 70 66 64 58 50 57 56 75 76 85 87 66 63 49 36 34 29 28 23 25 26 28 27 28
94 83 46 41 53 70 62 49 40 41 36 46 73 94 95 98 100 100 74 77 77 75 67 67 62 51 59 63 67 88 96 77 59 52 48 37 36 35 32 33 30 29 28 26 30
92 94 76 46 60 69 55 49 43 46 46 38 32 75 90 91 92 77 60 62 70 83 79 74 65 62 66 63 74 87 86 66 62 52 47 49 44 41 37 39 32 30 30 28 31
86 91 80 57 93 72 47 52 55 53 52 48 40 34 43 76 68 61 59 59 56 91 97 88 79 69 72 82 72 80 70 72 67 61 62 60 50 44 38 35 32 33 32 31 31
81 83 87 75 47 84 51 57 65 65 60 53 50 59 55 80 42 60 57 54 70 84 97 97 89 80 82 70 66 75 71 65 61 64 64 61 65 62 53 48 41 39 34 31 30
83 80 82 87 76 50 70 56 75 74 70 61 54 60 70 84 40 40 59 56 61 76 82 93 89 83 83 82 75 64 64 63 56 56 59 62 61 60 53 48 45 42 36 32 30
82 80 80 87 77 54 67 77 88 83 83 74 62 59 83 56 50 47 46 54 57 71 68 78 87 86 85 80 71 71 80 69 63 55 56 50 59 61 54 55 50 44 37 33 31
78 78 85 92 87 62 54 80 92 77 74 86 79 71 69 57 59 50 63 69 60 68 72 70 70 65 64 65 72 78 79 88 57 58 54 51 64 54 47 47 51 46 39 35 32
79 71 80 85 86 66 55 81 86 70 78 84 91 83 74 60 53 51 59 62 70 71 72 66 62 61 61 82 88 86 91 90 73 53 56 66 64 48 40 48 47 43 38 36 34
86 79 82 87 90 74 61 87 85 76 85 96 100 89 71 62 57 58 55 58 67 64 62 62 62 76 79 87 88 78 80 83 81 61 62 64 64 59 49 52 52 48 44 39 35
99 81 86 85 98 88 76 96 92 88 96 89 81 79 64 65 61 64 56 63 68 71 79 71 88 89 73 84 83 85 86 87 77 62 72 77 76 66 56 52 52 52 47 44 36
100 94 95 83 98 95 83 86 80 88 89 88 94 86 71 72 77 66 64 68 74 88 80 85 94 76 70 74 85 93 93 91 75 64 63 65 65 58 46 47 53 48 48 43 40
94 100 100 88 97 100 95 73 80 87 87 76 79 97 97 79 83 75 67 71 79 91 89 88 64 59 67 78 82 84 92 80 81 68 65 71 61 43 38 45 50 50 45 41 37
82 84 99 95 100 98 100 87 74 82 97 82 91 88 91 86 83 76 66 66 72 90 86 86 66 70 74 77 79 88 70 71 76 85 94 62 79 53 47 49 51 48 48 44 41
79 85 100 98 98 99 90 78 78 85 97 72 91 93 95 84 76 83 76 69 80 82 84 86 90 88 87 75 66 74 60 72 79 87 86 72 88 63 51 48 49 58 49 44 41
86 85 99 100 98 85 87 73 87 91 95 89 88 88 92 86 80 79 81 78 90 86 80 72 70 80 76 63 59 63 73 78 94 80 95 67 81 57 45 51 56 54 48 44 40
79 91 98 99 92 90 72 89 98 95 66 88 83 79 76 79 75 79 88 96 97 99 96 99 96 86 80 84 67 63 99 97 97 97 85 58 72 58 44 50 52 51 45 40 40
82 92 95 98 95 72 83 88 98 67 88 68 75 83 89 81 80 86 87 95 87 94 93 96 89 88 80 84 86 79 86 92 95 90 77 58 79 56 41 34 29 28 41 40 46
90 94 97 100 95 84 87 94 83 69 76 74 71 83 77 72 70 87 92 84 74 84 94 98 91 78 80 72 69 95 96 68 88 93 96 79 64 46 40 43 53 50 38 41 48
90 99 97 100 97 95 89 82 76 68 73 67 89 78 74 74 86 93 93 74 72 78 70 77 97 76 74 76 70 74 67 94 98 93 93 81 76 48 40 30 21 52 60 59 66
82 99 94 99 100 90 97 98 76 80 72 82 84 81 85 79 85 93 87 71 72 79 74 73 89 89 96 98 85 92 98 80 69 86 96 99 66 55 39 31 34 64 66 73 78
97 99 100 100 100 98 98 84 67 88 80 85 78 77 86 81 86 91 89 66 57 65 91 74 99 97 82 81 68 69 81 78 77 88 74 95 69 46 56 50 58 73 73 83 90
99 97 100 99 99 100 89 80 75 89 87 81 85 76 75 95 99 86 77 57 56 66 82 88 100 97 95 96 97 100 96 95 69 62 72 69 50 53 39 65 56 75 85 91 90
99 100 99 99 97 84 94 87 86 75 77 82 86 82 95 97 84 89 85 61 54 57 67 82 100 99 91 85 98 99 95 97 85 76 68 66 50 38 38 63 71 78 86 93 86
98 98 95 98 98 80 75 81 83 94 79 80 95 95 97 99 93 86 80 75 63 61 81 88 99 98 95 93 95 100 92 84 84 64 69 58 68 59 43 56 67 77 86 90 90
92 97 91 80 90 90 86 88 80 79 92 95 97 86 94 98 75 82 79 73 62 82 86 92 98 100 97 84 95 100 97 77 72 60 63 75 67 47 50 56 66 74 79 85 89
98 70 85 89 85 92 93 85 81 79 88 80 93 96 96 87 73 74 72 75 73 76 91 96 99 100 98 99 97 100 95 78 76 65 59 90 67 52 58 57 64 71 73 78 80

GFSSW_850_rhum_036.txt.gz
RH
88 97 86 45 39 46 58 58 50 44 37 48 60 98 97 97 99 100 92 73 77 72 68 64 63 55 51 54 70 74 86 90 72 66 52 38 36 31 32 30 26 27 28 27 29
81 90 92 77 39 59 67 59 48 45 42 35 63 87 92 100 100 100 78 72 80 78 71 69 65 58 55 62 72 88 97 78 63 57 48 42 41 39 36 38 34 29 28 25 26
90 83 94 92 63 49 71 54 44 43 43 40 37 75 97 98 95 83 72 79 83 85 89 77 73 64 66 66 73 90 89 70 66 60 60 55 50 46 42 48 36 35 34 38 35
79 88 81 89 80 50 64 50 53 53 53 50 47 38 54 91 75 59 64 70 80 71 96 93 86 68 74 78 69 80 77 78 72 65 66 67 61 63 53 45 39 34 41 35 35
78 82 88 81 86 71 60 50 69 67 63 60 61 60 48 57 48 62 58 60 66 89 92 96 96 78 81 73 70 77 77 67 64 61 62 65 70 72 66 59 52 42 44 40 36
88 79 85 82 84 83 53 66 64 80 72 67 60 71 65 66 44 39 59 53 84 91 93 100 91 84 83 85 77 71 72 69 64 57 57 64 62 62 58 54 51 49 46 41 38
82 88 84 82 80 90 72 63 71 86 82 80 70 64 74 54 52 49 46 62 58 78 86 86 98 84 79 85 72 74 85 76 70 62 62 53 65 66 51 52 53 50 48 45 37
100 96 85 85 87 93 78 59 89 90 84 85 83 80 75 60 56 56 60 51 52 59 74 72 78 82 72 66 67 79 82 95 62 64 57 55 70 53 40 47 55 46 48 42 36
99 100 91 88 84 91 83 56 87 88 65 75 90 93 81 66 56 54 57 66 66 68 75 70 68 64 63 76 75 73 94 94 76 57 59 71 70 53 49 46 52 54 52 46 38
98 100 100 89 90 93 87 72 90 85 71 90 100 96 77 63 58 60 56 63 69 71 70 66 65 79 78 77 95 86 98 84 86 64 67 73 74 60 53 51 53 50 50 50 47
87 97 99 92 99 98 90 95 94 91 87 93 91 78 69 69 62 64 60 63 69 67 80 74 88 92 76 74 70 89 94 94 80 66 78 77 72 62 55 59 64 58 54 50 44
81 80 97 99 99 100 92 85 65 68 94 77 88 92 79 78 75 68 67 67 73 89 80 84 95 76 69 72 86 91 90 78 65 68 72 69 67 55 51 52 52 53 53 53 43
86 80 88 94 100 100 93 84 68 68 78 73 76 97 85 82 85 76 72 71 79 92 94 90 67 66 75 82 85 88 93 80 73 68 65 75 64 38 34 36 42 41 42 46 49
96 87 87 97 100 99 100 94 77 68 91 79 97 89 92 92 79 71 67 64 80 90 89 91 70 73 79 83 84 85 70 76 79 87 90 71 75 44 41 40 35 35 45 48 47
95 86 71 92 99 100 90 97 76 64 98 78 90 97 93 75 76 86 72 68 76 82 84 81 90 94 90 77 72 75 66 77 79 91 95 82 92 59 48 44 42 61 46 43 41
89 87 85 78 96 98 76 92 75 86 94 92 88 91 94 87 79 83 83 73 84 78 79 74 68 76 81 70 68 64 74 79 87 96 97 70 84 56 41 36 40 48 40 38 42
93 79 89 80 100 97 96 85 98 96 67 89 86 80 73 84 81 79 88 96 95 99 99 84 92 78 76 85 74 76 97 97 97 95 84 62 76 58 40 37 43 45 45 41 38
91 88 85 81 100 99 93 93 96 72 88 73 75 77 78 67 72 85 87 91 84 91 95 92 87 90 78 79 76 86 80 91 92 93 82 61 82 53 44 36 32 30 33 33 44
92 84 83 85 100 94 96 97 79 74 74 75 79 78 86 81 77 87 88 80 61 86 98 96 91 72 82 78 70 94 96 69 91 74 94 72 75 51 40 35 38 52 39 32 30
94 87 98 96 99 100 95 85 70 66 71 70 85 80 87 83 88 90 88 74 70 76 67 75 95 74 79 80 78 81 67 97 98 95 93 84 79 62 45 40 31 26 33 39 44
93 91 98 97 97 100 99 89 74 76 63 75 80 88 75 73 77 84 83 75 71 78 74 79 88 89 92 98 83 97 98 100 79 87 92 89 54 50 52 57 62 56 26 31 32
99 98 99 100 99 100 100 81 76 87 80 81 73 76 81 77 75 83 94 70 63 78 91 75 96 96 82 58 67 62 90 80 97 92 87 88 57 44 66 63 64 67 62 59 65
99 98 98 100 98 99 90 83 79 90 86 81 84 75 73 80 97 85 77 62 64 79 88 74 98 98 84 92 78 100 96 96 84 92 81 82 55 32 31 35 72 87 94 95 92
100 100 100 100 99 91 94 86 94 75 83 78 78 71 85 96 87 92 86 69 63 65 67 71 91 94 85 70 78 100 98 98 97 96 79 74 52 34 33 48 63 85 97 99 94
99 99 99 97 99 89 76 74 91 95 81 81 92 81 76 98 93 97 93 76 67 63 69 82 99 98 94 85 87 96 100 98 98 86 90 59 55 44 47 46 56 70 97 100 93
97 99 98 80 92 94 81 93 79 91 84 87 93 70 78 97 91 88 74 74 74 83 89 87 100 100 96 83 96 99 98 100 95 92 79 62 59 40 48 57 60 74 96 99 96
99 99 97 92 95 98 92 86 81 72 84 74 78 83 91 87 89 86 78 72 80 81 87 96 100 100 92 91 100 100 99 98 95 75 70 79 56 42 55 56 65 75 90 93 93

GFSSW_850_rhum_039.txt.gz
RH
78 92 88 93 78 46 44 61 66 53 43 33 35 74 89 95 100 99 87 73 78 77 69 67 65 57 52 53 70 73 78 78 64 60 45 40 37 33 33 33 31 28 27 30 31
82 80 86 91 85 77 46 74 62 52 44 37 31 56 100 99 100 99 77 81 80 82 77 73 68 59 55 63 76 81 89 74 62 53 48 45 44 40 38 40 37 34 32 34 29
88 82 85 86 88 83 48 65 57 46 49 45 35 36 88 96 99 88 83 80 82 82 96 83 74 63 62 65 74 90 83 69 66 62 66 64 61 52 45 51 41 36 34 35 40
76 90 83 94 85 80 76 59 54 50 55 55 48 38 48 97 84 64 67 62 71 90 99 97 87 68 72 73 71 82 78 83 70 63 63 66 64 67 59 48 44 41 36 38 41
100 82 88 84 97 83 80 56 59 62 65 62 58 54 47 56 81 63 64 63 63 73 97 98 89 74 75 73 71 80 76 70 67 63 61 61 71 66 64 55 53 52 49 42 42
100 99 86 86 96 90 76 77 61 67 74 69 62 64 62 60 43 44 64 56 76 88 89 92 80 86 79 82 74 71 75 73 68 64 60 61 59 66 51 46 48 48 47 42 42
99 100 97 91 93 97 89 75 58 69 86 83 74 69 69 56 53 46 57 60 79 96 97 93 87 79 83 87 79 72 83 72 70 68 64 57 64 65 52 53 51 48 50 42 36
99 99 100 96 94 100 92 86 55 80 90 90 92 85 74 64 62 56 46 51 62 80 80 77 89 91 87 71 64 72 68 82 63 64 62 54 57 49 44 45 52 50 48 38 26
94 92 98 99 97 100 100 95 57 95 93 72 93 97 81 73 66 61 59 56 56 65 77 72 72 67 65 75 81 73 84 90 74 59 60 64 68 54 55 56 58 55 55 54 46
86 82 82 95 100 100 100 98 79 96 85 76 99 96 79 66 60 59 57 66 69 73 73 70 67 76 73 77 84 84 95 88 84 61 66 68 67 56 52 51 50 52 49 48 50
92 82 71 92 99 100 100 100 98 94 82 72 87 78 73 72 66 68 60 68 70 70 85 74 82 89 78 76 70 82 90 87 66 61 68 67 66 56 50 52 55 52 48 49 44
76 87 86 81 94 100 100 96 72 53 92 66 91 88 78 75 74 73 66 67 72 87 79 88 91 72 69 72 77 79 84 78 65 58 66 68 68 53 48 46 42 42 44 47 37
84 87 89 77 94 98 99 92 73 62 62 75 71 98 83 78 85 76 69 73 79 92 90 88 67 67 73 79 83 87 90 78 75 64 60 66 59 36 31 36 38 42 43 42 42
84 90 96 96 85 87 100 92 77 72 87 75 94 84 88 84 81 69 69 64 80 89 90 91 73 74 84 84 82 85 68 71 79 84 82 64 70 40 33 30 27 29 34 41 40
85 84 97 98 97 99 92 96 78 62 83 73 97 95 93 81 68 86 75 66 80 83 83 82 86 94 85 76 76 75 64 72 77 86 93 75 89 47 45 43 38 34 30 29 29
71 79 89 91 82 83 100 96 83 86 98 95 89 94 95 78 80 86 80 73 79 72 78 73 69 73 76 70 68 66 78 74 85 94 95 65 82 53 39 33 31 28 28 29 34
92 96 85 99 92 75 98 100 99 91 67 95 89 87 78 86 84 78 91 92 95 99 97 86 85 77 71 80 76 73 100 92 92 96 79 60 78 55 38 36 34 33 33 30 29
97 100 89 86 77 98 99 99 96 73 82 66 71 78 83 75 75 84 84 93 86 89 92 88 86 83 76 78 64 80 79 86 93 87 74 65 75 50 40 36 34 34 34 30 30
97 84 88 67 91 99 98 98 82 71 77 77 74 80 84 68 74 76 88 82 75 82 93 96 88 67 82 78 68 84 96 67 88 70 87 58 53 38 31 34 39 35 33 38 33
95 92 88 73 86 98 98 98 68 68 72 74 87 76 83 77 91 91 91 74 71 73 64 77 93 70 78 81 79 82 69 94 96 95 91 68 66 51 44 35 39 55 54 54 31
99 93 73 87 97 100 99 100 79 71 62 71 82 88 79 89 85 89 81 74 71 78 74 75 81 80 85 94 84 89 95 99 95 96 88 70 48 38 34 42 64 63 69 62 51
99 100 91 99 99 100 100 82 81 87 74 80 73 74 76 79 80 76 77 79 65 80 88 77 92 98 82 68 66 64 72 79 96 93 92 81 62 31 54 67 63 65 69 68 68
100 100 100 96 97 100 94 87 86 85 81 76 84 76 75 83 89 75 74 62 69 79 87 78 97 95 80 80 78 94 79 70 94 94 95 93 58 31 32 39 52 62 84 80 91
100 100 100 98 99 83 98 96 95 80 84 77 82 70 80 86 79 83 79 67 68 72 70 65 96 87 85 61 62 98 97 99 98 96 76 88 60 42 38 37 51 52 85 92 95
100 100 100 100 98 82 84 76 93 93 84 78 89 75 77 86 86 90 74 77 74 67 67 85 100 90 78 76 82 96 97 96 98 88 94 59 67 54 43 57 52 51 79 95 98
99 99 98 84 98 87 87 82 79 90 88 95 84 84 76 87 74 90 81 79 76 77 75 88 98 98 96 82 82 99 95 100 97 88 94 80 76 54 44 56 62 65 79 89 98
98 99 100 91 96 99 95 88 80 80 79 71 79 80 78 78 73 74 77 76 78 82 88 89 97 100 95 78 84 94 97 99 96 88 80 94 69 55 54 50 56 69 78 92 97

GFSSW_850_rhum_042.txt.gz
RH
78 80 82 96 87 84 71 37 48 65 54 47 38 63 90 84 84 100 95 81 81 74 67 66 68 63 54 57 72 64 37 32 31 29 26 30 27 25 28 26 29 26 27 36 30
90 77 85 80 97 88 80 56 41 68 50 46 38 52 86 96 98 100 95 80 83 76 77 77 68 62 52 54 59 48 44 33 27 30 31 30 32 29 32 28 26 28 32 39 32
99 97 81 88 88 94 83 79 41 60 48 46 44 40 81 100 96 90 90 92 86 80 86 82 73 62 52 55 56 50 49 33 45 42 50 45 44 41 33 31 29 27 29 38 43
90 100 98 85 86 98 88 80 57 56 53 53 51 46 51 91 54 80 79 82 79 90 91 93 77 62 52 51 51 57 49 47 48 54 56 51 48 47 39 30 33 40 40 41 40
100 100 99 96 89 89 98 81 78 53 61 64 60 57 48 76 69 58 64 64 64 99 96 93 77 65 59 51 56 53 43 49 49 58 52 48 46 44 43 42 44 45 47 44 41
99 100 100 100 98 91 98 90 79 56 61 72 65 61 72 49 41 51 61 58 74 93 98 95 85 72 64 59 55 53 56 54 54 51 49 50 43 41 40 39 37 38 41 42 40
98 95 97 99 100 93 93 98 81 62 63 79 75 65 74 60 51 42 66 58 93 98 91 91 83 77 68 62 68 61 60 45 44 44 46 48 47 43 38 36 36 36 34 35 34
90 84 85 92 99 100 95 100 90 64 70 88 86 84 78 64 59 52 44 64 70 90 96 93 83 79 66 65 55 54 53 53 41 47 44 47 41 27 34 36 37 36 34 33 34
92 91 85 77 90 99 100 100 98 70 86 96 91 92 79 76 71 61 55 61 64 84 77 88 82 62 64 55 55 51 45 52 49 46 46 49 45 34 47 40 39 34 36 38 38
97 80 74 81 81 91 100 99 99 88 99 79 95 94 88 73 66 63 60 65 67 74 77 70 60 56 51 57 49 44 55 49 49 40 44 46 45 36 39 39 37 37 37 39 40
92 79 80 78 85 80 99 100 100 100 100 71 70 72 77 75 68 64 64 73 67 62 62 63 68 71 52 50 47 53 54 58 46 42 45 41 37 33 30 32 31 32 33 33 33
77 77 79 71 85 85 98 100 88 71 85 82 92 78 84 79 74 81 74 64 63 64 62 74 79 53 49 50 57 56 58 54 45 41 45 42 40 32 29 30 30 29 25 23 24
78 81 72 84 82 63 77 99 79 53 57 86 85 84 86 80 69 75 70 66 57 69 67 66 56 52 58 62 66 60 60 54 53 45 44 48 43 29 22 22 24 26 26 26 25
86 76 73 81 79 93 78 99 97 64 94 77 80 72 88 79 67 76 67 61 63 63 64 63 51 59 63 63 57 63 48 56 59 61 65 49 52 31 25 24 22 21 22 24 26
95 89 82 91 94 86 98 99 99 88 95 67 87 87 80 63 69 84 75 65 63 64 67 71 70 73 71 63 55 61 51 54 57 66 70 59 83 32 23 28 23 20 20 21 23
93 86 93 96 98 69 78 93 100 97 86 90 90 88 88 67 68 84 79 71 62 63 67 55 58 58 54 53 55 55 61 61 60 78 85 45 62 33 17 15 18 18 20 20 21
96 98 98 97 100 85 80 100 99 95 62 93 83 87 74 76 84 72 85 88 83 95 90 68 68 59 60 66 62 67 84 77 80 89 64 35 44 39 20 24 24 22 19 21 23
87 98 97 93 92 94 97 100 96 66 67 63 71 77 87 67 77 77 82 90 65 65 70 74 73 67 65 65 67 85 66 64 69 54 33 42 53 27 21 26 26 24 21 28 30
98 99 99 72 77 91 99 98 90 56 62 67 72 80 87 75 71 74 79 73 65 69 82 74 79 58 62 60 55 64 85 56 73 57 65 38 28 21 19 20 20 22 32 35 35
100 94 86 71 74 82 98 84 86 60 56 57 73 62 77 76 70 69 71 55 56 53 49 64 89 57 62 68 64 60 50 80 88 81 65 41 36 33 26 25 24 24 33 35 42
98 96 85 79 84 100 98 100 76 60 56 60 67 71 64 68 65 70 63 60 52 58 55 63 69 72 75 82 68 80 89 77 75 75 68 67 42 23 24 22 22 37 38 41 55
100 100 86 88 99 99 100 96 67 66 71 64 57 58 60 64 69 63 63 56 56 61 71 58 77 84 74 48 45 44 58 62 92 84 87 81 62 27 28 27 40 37 34 44 65
100 99 99 100 96 100 96 91 75 70 68 64 69 60 58 62 74 60 59 54 62 58 61 62 92 86 69 72 60 76 65 59 84 86 92 87 58 29 30 38 35 34 35 41 68
100 100 100 99 97 79 97 96 91 82 71 67 68 60 61 65 63 75 70 60 63 56 61 60 78 85 73 47 52 93 86 92 99 96 71 74 58 38 30 33 30 31 37 54 72
100 100 100 100 92 74 71 74 79 81 74 68 71 61 63 73 71 76 68 66 68 68 66 68 99 79 76 65 61 72 83 94 99 94 95 59 52 41 37 39 36 36 44 65 83
100 100 99 80 77 71 73 71 66 79 66 76 65 64 59 64 58 73 65 68 70 64 74 75 88 81 95 60 64 91 80 94 96 96 97 92 80 46 42 42 41 48 57 75 86
99 100 99 85 82 78 77 67 67 61 70 63 60 68 70 61 57 55 68 70 72 73 76 80 90 95 91 63 67 82 84 96 94 88 80 97 64 47 48 53 50 56 61 64 88

GFSSW_850_rhum_045.txt.gz
RH
100 98 87 86 90 94 94 83 71 36 53 58 48 37 75 93 76 85 98 84 81 74 67 72 64 58 54 49 45 48 38 32 26 19 17 17 20 21 20 20 20 18 20 31 40
98 99 99 93 91 90 99 86 78 48 56 55 45 38 58 96 98 90 83 92 81 76 82 69 57 54 48 47 48 46 38 29 17 15 18 20 22 21 24 23 20 21 22 31 39
91 93 99 98 93 92 94 94 81 61 56 50 45 42 52 92 97 90 81 87 83 82 81 70 59 52 43 41 44 42 40 24 22 33 31 27 24 28 26 28 20 19 21 30 36
100 99 87 98 100 96 94 99 85 76 55 49 48 48 41 98 63 87 83 86 89 90 94 77 64 53 46 45 39 43 34 30 29 36 42 40 35 30 28 28 23 23 29 32 33
88 97 98 90 100 100 100 91 95 78 58 55 59 59 52 83 64 67 77 83 86 91 97 80 67 54 48 39 39 44 39 32 36 40 42 44 40 36 34 33 31 30 32 36 37
92 95 99 97 89 99 100 96 98 83 67 61 65 62 80 54 53 63 69 73 77 84 91 86 78 64 53 47 45 39 40 38 38 38 40 42 38 36 33 31 31 32 32 33 36
91 89 88 82 82 79 99 100 95 93 72 73 71 66 84 58 56 59 64 70 84 74 88 90 78 72 57 55 54 50 52 40 36 37 37 39 42 39 34 32 30 28 28 27 28
91 88 89 89 83 80 93 99 92 100 76 82 79 93 75 68 68 52 63 70 84 82 74 78 78 67 55 56 48 49 43 45 30 33 32 37 42 22 26 27 28 27 26 26 26
91 92 91 74 79 74 85 93 97 100 74 86 93 94 70 75 69 64 58 60 74 82 90 86 76 64 56 50 44 42 43 38 31 29 34 40 40 24 30 32 27 26 26 26 26
95 88 90 70 77 76 81 87 97 100 85 97 99 86 75 66 70 67 64 56 64 63 70 67 58 52 49 46 46 39 42 36 33 30 35 37 36 28 28 30 30 31 30 29 27
93 85 76 80 74 65 81 82 100 100 100 83 80 58 69 69 73 71 66 58 59 58 56 53 56 57 43 37 35 43 42 40 33 29 34 34 32 27 23 23 24 25 25 25 25
92 86 81 85 77 72 82 99 99 100 96 74 71 70 69 68 67 66 65 56 53 61 47 67 76 43 37 39 43 45 47 42 34 30 37 35 33 27 25 23 23 23 23 23 22
91 83 81 87 79 70 95 90 76 100 94 78 74 64 77 75 57 66 64 53 48 52 54 63 49 44 46 50 53 49 48 44 42 35 34 37 37 25 20 22 23 23 23 23 23
93 87 81 83 81 97 94 98 86 100 100 87 78 68 76 69 63 64 62 53 50 53 54 54 43 48 51 54 48 54 37 42 46 52 54 40 56 31 22 19 19 18 19 20 21
80 84 91 96 99 95 88 95 93 100 97 70 71 63 71 59 60 67 60 59 52 48 52 63 59 56 58 50 44 52 45 48 49 57 66 53 63 34 18 16 15 15 16 17 18
91 90 89 96 99 90 97 86 100 99 97 92 89 72 74 54 61 66 63 62 51 48 53 48 47 49 50 46 46 49 53 55 55 63 87 47 46 32 16 12 13 11 15 17 18
85 86 94 94 98 98 95 98 98 96 69 94 85 78 70 65 67 70 75 81 71 91 85 59 56 49 46 56 51 59 68 78 85 89 65 26 31 31 16 16 16 16 16 16 17
98 100 98 99 91 96 95 100 96 96 68 55 73 72 76 65 69 61 69 85 57 52 60 72 78 54 56 59 63 65 66 64 68 49 37 27 41 25 14 17 19 19 20 18 19
98 98 97 99 99 98 87 96 91 78 57 71 74 90 78 64 72 70 65 67 53 51 72 61 68 49 51 52 51 68 89 53 70 53 60 35 21 16 15 16 16 17 19 21 24
99 97 94 99 98 96 92 77 100 56 50 57 73 62 84 70 71 59 77 54 56 45 42 53 83 52 53 53 52 51 43 79 87 81 60 32 29 28 22 20 19 20 20 23 28
98 98 94 96 92 98 93 93 95 49 47 50 55 56 56 66 56 61 63 52 44 47 49 52 61 70 63 75 66 67 73 66 52 61 59 57 37 20 24 22 22 21 20 28 31
100 98 99 91 93 100 88 92 80 58 62 52 45 47 52 51 57 56 55 48 43 43 58 52 68 82 70 45 41 43 56 59 85 65 70 71 58 26 25 24 24 24 28 30 29
100 100 97 91 99 100 82 94 80 64 60 55 57 46 41 51 60 50 48 46 47 47 51 53 79 82 79 63 47 58 52 49 66 79 92 90 58 24 23 27 26 29 31 28 29
99 100 98 98 92 85 94 96 89 70 63 53 54 45 48 55 48 56 56 56 53 47 55 49 65 84 71 59 53 98 71 66 98 96 69 70 56 40 35 36 34 28 29 32 32
99 100 98 99 81 89 68 92 73 71 61 55 57 50 50 60 60 59 52 66 61 62 57 60 92 69 68 58 56 62 68 68 96 96 97 68 70 56 53 48 40 38 36 34 49
98 100 98 68 63 78 68 91 74 71 62 58 54 49 45 52 46 56 55 59 64 62 64 70 86 74 92 62 57 68 54 55 73 95 93 95 93 62 48 40 48 45 39 57 64
98 99 100 79 59 58 56 50 53 57 59 50 48 54 56 53 48 49 50 52 64 65 75 84 97 98 78 55 51 76 69 75 92 90 93 90 58 45 48 61 79 76 80 71 74

GFSSW_850_rhum_048.txt.gz
RH
86 99 97 100 98 95 89 91 88 80 62 46 63 51 42 72 85 83 87 85 82 83 63 78 69 62 56 50 42 38 50 49 40 31 25 15 17 18 19 19 18 18 18 30 49
95 95 96 98 99 99 97 89 94 87 76 46 60 48 41 66 98 98 65 90 97 83 73 70 62 56 54 51 44 49 62 53 32 23 25 23 19 20 22 20 20 20 19 27 33
93 94 97 100 99 100 99 99 99 95 81 52 55 44 40 62 95 83 76 77 85 84 71 75 60 50 51 45 45 46 59 37 27 22 32 34 31 23 26 29 23 21 19 24 33
91 91 90 94 97 97 100 100 95 100 85 67 52 48 41 84 68 75 78 73 79 82 85 82 65 52 51 48 39 49 39 38 36 31 37 40 34 36 27 27 26 25 24 27 31
93 93 92 87 99 99 98 100 100 98 93 75 52 60 45 89 76 75 59 75 86 88 88 84 62 55 54 44 40 42 37 35 33 32 35 40 42 44 39 32 29 28 29 30 33
92 91 95 93 90 97 96 97 100 98 100 82 56 64 56 63 56 71 54 71 83 88 86 82 70 59 64 50 45 38 39 39 38 35 36 38 39 39 35 34 34 34 31 30 32
63 64 90 93 89 94 94 92 96 100 99 92 65 68 85 67 54 56 57 59 75 74 89 81 79 72 62 54 50 49 56 48 44 41 40 37 46 44 37 36 33 30 30 30 31
81 68 73 92 90 92 67 81 78 99 95 99 77 81 81 69 68 58 56 62 68 70 76 80 82 74 74 56 48 56 56 68 37 36 35 39 54 35 30 33 34 32 30 28 27
91 86 76 81 91 90 72 71 74 90 98 99 96 94 74 73 67 64 57 59 69 70 69 77 79 67 56 60 64 53 58 55 43 34 32 39 47 34 28 28 31 28 28 27 26
90 79 79 90 79 73 76 82 66 73 94 100 95 96 75 70 67 65 56 58 67 79 84 80 71 68 60 66 69 50 56 45 40 39 39 44 44 34 28 27 30 31 30 26 26
80 78 84 74 76 77 77 83 86 86 89 90 91 61 65 62 67 63 57 55 58 69 68 67 72 75 58 54 46 43 45 50 36 30 35 38 37 32 27 26 26 26 26 27 29
76 75 78 78 78 79 80 96 94 98 94 89 93 60 64 66 66 67 61 57 57 66 52 62 76 48 38 38 44 43 51 52 40 31 36 40 40 33 29 27 24 24 24 23 24
76 73 88 84 84 71 89 88 99 97 99 91 97 66 68 61 60 66 59 52 55 62 60 66 52 44 48 47 53 52 55 50 47 40 39 43 46 37 27 27 27 26 24 23 22
76 74 92 91 88 93 83 94 100 91 100 97 92 72 71 63 57 63 60 51 48 57 46 54 44 44 53 55 49 58 42 43 47 54 68 49 81 41 30 27 24 22 22 23 23
82 85 88 88 95 97 91 96 89 89 96 94 94 74 73 56 61 65 60 52 54 50 54 66 53 58 58 51 45 51 46 48 51 62 71 58 78 55 26 26 19 20 19 18 18
92 88 83 74 89 77 91 96 97 95 94 100 87 76 75 58 56 62 62 56 51 46 48 52 44 49 50 44 43 49 52 56 58 68 90 66 65 56 28 22 19 17 15 16 16
88 90 100 100 99 79 90 88 99 97 98 100 96 75 65 68 67 64 71 75 79 90 88 60 60 48 46 54 50 55 59 91 98 99 91 35 57 48 26 21 21 19 16 17 16
90 98 91 92 97 95 100 100 97 79 100 78 75 73 69 68 72 70 78 82 60 56 75 79 83 61 50 56 67 69 71 94 85 86 68 45 55 35 22 18 19 17 18 18 19
97 95 96 92 99 96 92 98 76 100 85 94 77 95 76 65 73 75 79 66 57 56 68 73 74 49 51 50 52 68 86 56 76 61 84 52 28 21 17 18 18 19 19 19 19
99 98 98 86 94 92 93 74 90 96 67 67 87 69 86 74 73 68 75 56 54 50 46 56 85 53 56 52 52 58 49 84 94 94 85 53 40 36 26 28 24 23 21 21 21
99 99 98 82 93 96 95 97 94 87 58 58 59 61 56 72 59 62 64 51 44 48 47 48 60 69 64 76 74 72 78 68 67 80 90 86 52 29 32 32 34 32 26 25 27
99 100 97 83 94 99 98 80 95 85 57 45 42 47 55 53 60 53 60 50 43 44 56 50 70 94 79 54 53 55 62 66 89 82 85 97 71 32 33 29 30 33 30 28 28
98 100 94 95 94 96 83 94 93 91 59 52 49 42 41 53 66 52 51 44 43 47 58 57 84 80 71 63 50 62 58 58 64 80 85 90 67 28 30 35 35 36 36 31 30
98 98 98 97 97 76 85 99 96 73 59 49 47 41 48 52 47 55 61 52 48 47 48 49 70 90 95 74 71 91 70 64 80 98 74 75 66 51 45 51 54 54 51 43 39
98 96 99 95 98 76 83 90 85 72 57 50 54 45 48 55 53 54 63 65 56 64 51 61 90 77 76 66 60 67 73 76 88 84 95 67 69 63 70 65 60 61 70 62 50
98 100 98 94 90 75 78 95 78 67 65 53 55 47 43 52 51 54 54 60 68 64 64 64 92 82 92 65 62 77 67 66 66 70 95 94 95 74 58 46 54 65 67 81 73
96 99 100 81 82 79 77 81 65 60 57 46 49 54 57 59 50 49 51 46 54 68 68 84 90 97 86 63 60 76 65 63 83 85 90 97 78 63 67 57 81 88 89 87 80

GFSSW_850_rhum_051.txt.gz
RH
93 94 94 86 96 99 98 97 96 99 91 80 52 46 53 47 52 84 86 52 69 73 77 64 62 60 58 56 48 44 65 72 58 48 37 24 27 20 19 18 18 19 30 47 55
92 94 94 94 94 99 99 97 99 98 97 87 71 44 48 45 53 86 56 65 80 71 82 75 74 64 62 55 52 54 72 61 42 38 34 30 34 29 21 20 20 19 31 46 44
89 91 93 92 93 93 95 100 97 97 100 91 78 49 46 48 80 44 41 59 90 86 81 73 69 59 60 57 52 50 70 50 44 36 34 39 36 33 29 29 22 21 22 30 27
95 91 87 91 94 92 91 98 98 100 94 100 81 52 51 63 82 79 70 62 85 84 82 67 74 74 59 62 50 62 49 46 42 39 38 42 41 43 40 32 31 26 25 27 36
92 94 92 93 91 93 89 94 98 98 100 97 89 56 63 77 77 70 66 78 91 87 77 82 83 71 63 57 50 52 48 43 41 38 38 36 43 46 43 40 32 29 30 30 32
78 79 76 92 92 92 89 89 92 87 99 98 99 63 72 90 48 64 60 54 81 85 80 79 74 61 59 62 55 48 44 46 44 44 43 41 40 39 40 33 34 34 30 33 33
84 82 86 63 85 92 95 89 94 74 94 99 100 82 90 58 52 62 62 55 74 84 88 78 80 68 65 60 52 51 60 58 52 48 49 39 50 50 37 37 38 37 33 32 33
81 76 89 75 61 85 91 94 93 79 68 98 100 93 90 58 56 59 51 62 73 77 72 80 88 77 68 57 49 59 60 79 51 45 47 45 57 43 34 38 39 36 34 32 31
76 80 76 71 74 87 83 71 91 67 62 77 100 88 80 61 69 62 51 60 67 70 71 77 84 73 67 65 69 60 75 77 63 39 44 50 53 41 36 35 37 34 36 34 31
85 73 73 74 71 70 77 78 60 66 60 63 96 94 90 76 68 68 52 62 71 69 78 80 74 72 71 74 93 67 75 56 54 42 38 46 53 44 33 33 33 30 32 33 32
76 74 74 73 73 69 82 81 70 96 100 82 93 84 65 68 68 67 55 59 73 74 90 79 88 94 82 72 61 60 53 54 48 38 38 48 50 41 34 31 31 30 28 27 29
75 72 74 76 72 72 75 85 76 95 94 83 98 71 63 68 66 61 58 59 72 86 62 78 87 65 58 61 64 62 58 58 48 37 41 47 46 38 35 33 30 30 29 26 26
73 68 76 80 74 78 94 94 92 96 98 94 74 91 70 65 67 63 55 59 62 72 66 82 57 50 57 60 56 56 58 58 55 48 45 53 52 45 36 34 31 29 28 27 25
76 88 92 88 78 85 87 94 98 78 100 96 90 94 75 62 71 64 56 56 59 67 64 61 50 50 61 63 54 64 51 50 54 62 76 53 83 63 39 29 28 30 30 28 26
94 91 82 89 96 86 91 98 96 95 96 84 91 89 67 67 67 66 58 53 62 64 61 72 60 56 60 59 50 60 51 57 59 68 76 70 77 60 48 31 26 20 19 23 22
88 86 87 94 99 97 86 97 98 90 91 100 96 88 78 64 64 64 63 55 48 53 56 58 47 53 56 47 49 51 55 58 64 76 97 76 71 57 39 29 20 23 18 19 20
80 88 98 98 98 98 87 98 97 96 94 100 100 75 74 75 74 70 70 73 79 94 99 63 63 50 48 60 51 56 70 93 89 95 92 60 76 64 40 31 27 26 18 17 17
96 93 89 85 92 95 94 98 100 76 89 94 90 73 89 71 75 73 74 86 70 65 91 88 92 67 55 62 72 72 71 92 94 98 82 56 78 48 29 28 20 19 17 17 17
95 93 96 84 90 99 94 98 82 97 98 99 93 99 99 78 79 77 75 76 69 64 81 87 80 56 55 51 60 74 87 65 82 74 92 69 46 30 25 28 23 22 21 22 20
98 95 96 97 96 95 94 90 92 95 99 88 100 82 96 83 81 78 78 64 56 56 55 61 88 59 58 54 54 62 58 86 94 88 92 71 54 41 34 38 35 36 32 29 29
97 90 99 93 89 89 99 94 90 91 94 91 77 74 70 79 73 75 75 59 53 55 55 51 72 89 66 76 75 74 84 71 76 88 92 96 65 37 34 34 34 36 36 36 35
98 99 100 94 91 99 100 86 99 94 90 78 59 59 62 68 71 62 75 59 46 51 64 54 75 94 84 62 58 66 73 65 91 76 94 94 83 40 35 36 41 39 49 48 47
98 98 95 98 98 95 92 96 97 89 77 56 54 48 52 59 69 57 57 48 45 49 55 60 80 80 82 68 64 78 67 68 70 87 93 94 74 35 40 39 38 53 62 60 58
94 98 86 82 99 98 98 100 98 82 78 52 48 45 51 61 64 69 66 58 49 54 49 49 75 82 89 78 77 84 71 72 78 98 79 83 63 48 44 44 55 64 64 58 58
94 99 100 99 96 96 94 96 92 77 63 51 51 52 54 62 64 69 69 68 64 57 56 65 91 81 80 76 74 76 79 76 84 71 90 61 62 54 53 66 67 68 63 65 70
98 99 98 98 95 84 97 97 95 68 71 58 57 51 57 65 58 69 70 69 72 65 64 71 90 80 93 72 75 83 72 73 73 70 67 66 74 63 64 65 62 88 90 88 88
98 99 100 95 88 97 97 92 81 66 56 51 57 71 76 71 59 55 51 54 65 75 69 82 82 96 94 66 69 85 73 73 72 75 67 91 76 70 74 73 92 97 96 90 86

GFSSW_850_rhum_054.txt.gz
RH
100 100 92 92 91 93 94 95 98 100 100 100 89 80 49 56 52 51 84 48 37 77 73 74 78 72 58 61 52 50 72 82 60 53 41 29 33 25 21 21 19 22 27 22 44
93 99 92 92 92 93 89 94 99 98 99 99 99 86 60 54 66 49 37 49 56 74 75 68 76 64 69 62 54 59 80 69 50 44 40 34 35 32 27 22 21 27 34 44 55
91 92 94 96 91 98 94 92 99 99 95 100 100 96 71 57 74 38 33 40 55 79 76 76 75 72 68 62 57 59 76 53 48 44 41 42 41 39 35 30 26 32 52 55 56
94 90 72 77 94 90 90 90 92 90 98 99 100 100 77 63 77 78 75 41 63 77 76 86 79 79 68 70 57 65 53 45 45 42 45 44 38 44 41 33 32 37 34 45 60
84 86 82 74 78 81 90 92 90 91 91 99 100 100 84 84 59 68 70 62 89 92 88 82 82 80 70 63 56 58 52 47 44 44 46 40 45 47 44 34 30 35 37 34 31
89 81 78 81 82 69 85 93 90 92 93 89 98 100 94 92 42 36 63 77 77 91 86 81 75 72 60 61 62 50 48 46 45 47 47 46 45 41 41 36 32 32 32 33 33
97 81 78 72 78 77 75 94 92 89 90 67 97 100 100 78 46 63 61 55 70 73 86 76 78 68 61 62 54 53 58 56 53 48 50 44 51 55 39 36 36 31 29 28 29
77 79 83 84 71 72 69 86 81 89 67 56 66 100 99 75 57 77 67 63 73 85 78 74 84 73 68 57 52 61 64 73 53 46 44 47 58 46 37 37 38 35 30 28 24
75 78 76 75 74 73 72 73 72 67 53 64 96 99 94 76 57 59 56 64 75 80 79 89 89 89 79 69 70 65 77 73 64 46 47 57 60 44 36 39 37 35 35 32 29
88 75 74 70 68 73 76 73 68 64 59 72 85 96 97 79 57 56 59 60 74 76 78 95 95 87 94 79 94 79 78 67 64 43 51 55 64 50 38 40 39 36 34 31 30
76 74 69 68 72 80 84 79 65 77 98 84 83 87 84 73 64 60 60 62 75 80 92 86 87 92 85 72 59 62 62 63 52 42 43 47 48 47 40 37 35 35 31 28 28
74 68 70 77 80 74 91 90 91 95 97 78 77 89 92 75 74 69 59 61 77 86 85 86 89 72 64 68 69 70 75 75 54 43 43 50 53 43 38 36 33 30 30 30 27
75 85 92 92 79 80 85 85 92 96 94 81 81 98 93 72 71 71 60 67 78 82 82 87 73 60 60 62 74 67 65 61 59 52 47 56 42 39 38 34 32 31 31 30 27
92 85 92 92 89 88 79 91 97 99 97 83 91 92 99 66 72 66 59 62 68 76 70 65 52 54 61 66 58 68 51 53 57 62 74 57 72 60 44 44 33 30 29 29 29
81 83 84 84 99 100 90 83 100 100 99 78 96 81 88 64 68 65 57 54 70 68 64 80 61 64 67 64 53 62 53 56 59 71 74 69 77 56 44 36 26 20 21 18 17
82 81 98 98 98 99 98 95 99 92 91 98 91 95 85 70 64 62 62 56 52 57 60 59 51 52 54 52 51 53 60 68 75 80 93 71 73 57 42 32 21 22 20 19 18
78 92 98 91 97 100 90 98 98 93 92 99 100 96 80 79 75 72 75 71 79 96 97 66 64 51 50 64 55 60 72 93 90 97 80 65 82 65 45 38 33 32 24 21 22
94 98 88 79 97 97 92 98 97 94 93 98 96 85 97 75 75 75 76 83 67 74 90 90 94 65 54 61 73 67 71 89 79 98 88 63 78 48 37 30 24 24 27 28 30
83 83 98 95 94 82 94 99 95 98 100 100 96 100 97 83 84 76 72 80 70 64 79 82 79 58 57 55 59 73 84 65 87 78 94 73 54 32 35 37 34 36 36 37 38
77 86 99 100 86 77 93 93 99 96 100 94 100 89 95 95 93 75 70 65 62 60 56 66 91 62 60 52 55 62 63 86 92 75 84 70 66 48 34 36 36 45 42 43 46
78 89 96 92 88 88 99 99 97 92 98 96 90 78 84 82 79 77 70 64 54 58 54 56 76 97 67 75 79 80 84 81 78 87 91 96 58 43 36 36 44 47 42 55 56
78 97 93 90 86 97 100 100 99 97 95 86 62 67 75 73 72 72 76 66 50 55 68 58 81 94 88 65 60 67 75 71 90 73 95 88 74 43 44 42 44 41 50 58 60
89 92 90 85 99 98 90 99 99 96 86 67 58 53 57 68 72 65 65 50 50 55 66 59 77 92 85 69 68 78 76 71 72 86 94 92 71 41 44 37 39 46 60 66 67
90 95 86 84 94 99 100 100 98 83 88 54 55 51 58 68 65 71 65 67 51 50 49 54 73 79 86 74 80 87 80 79 81 97 87 86 65 46 44 44 47 57 64 67 66
95 99 99 92 91 96 94 96 77 78 58 56 57 60 63 79 70 79 71 66 62 60 61 63 87 86 82 76 74 73 76 80 87 72 87 64 68 52 44 45 56 69 83 86 88
97 99 98 98 95 96 94 96 84 71 70 70 83 63 66 72 67 77 75 74 68 62 68 69 84 76 89 74 80 89 80 79 76 71 70 67 68 45 44 68 74 92 91 90 83
96 98 99 83 88 96 96 89 86 72 66 65 64 73 77 74 64 56 53 56 65 72 79 74 86 91 92 71 72 90 80 77 73 72 64 78 59 51 70 73 91 85 84 82 85

GFSSW_850_rhum_057.txt.gz
RH
94 97 94 97 92 91 97 97 94 88 97 98 99 99 96 91 55 59 65 37 41 70 86 73 80 79 77 64 57 52 76 86 59 58 46 33 34 29 27 25 22 22 22 31 32
96 94 97 94 96 96 96 95 98 93 100 95 95 100 100 95 80 81 27 34 42 77 99 79 75 79 77 67 58 61 83 73 54 47 42 37 38 38 33 31 23 29 32 41 46
96 91 84 84 93 81 93 96 93 92 91 90 89 98 97 100 86 58 32 28 34 63 92 77 79 78 74 66 62 64 77 56 51 44 46 46 44 39 40 38 29 34 61 67 65
92 80 83 86 79 75 76 80 88 94 98 92 86 94 99 100 74 76 79 61 33 65 98 82 89 82 76 76 62 68 59 52 48 42 46 46 42 45 40 38 32 36 48 64 73
92 92 86 75 75 72 72 79 73 94 91 89 91 96 100 100 74 67 68 74 39 82 93 91 97 80 77 71 61 65 58 52 47 44 48 46 46 50 47 35 35 34 35 35 42
82 82 80 80 78 78 81 68 95 91 91 88 92 99 100 98 73 59 40 86 47 89 92 88 92 77 73 64 68 55 54 50 46 45 47 48 48 43 42 36 37 38 36 34 34
80 82 80 77 79 75 78 72 91 93 95 92 100 99 100 93 66 50 38 72 63 92 89 86 79 76 72 68 59 54 60 57 56 51 52 47 54 61 42 38 37 34 36 34 32
89 82 84 75 72 75 74 73 92 78 93 93 96 98 98 89 79 64 65 69 78 76 80 74 80 74 68 58 57 66 64 78 54 55 49 45 58 44 36 36 38 37 34 32 30
91 76 76 74 78 87 70 71 70 62 85 80 93 88 92 72 80 66 83 70 76 76 75 85 78 83 70 68 77 67 88 82 64 50 50 58 63 45 38 38 40 36 33 29 26
85 83 76 84 68 72 78 72 59 64 77 73 87 95 92 86 76 68 77 71 71 87 95 99 94 98 90 76 91 87 76 69 67 44 52 63 71 55 43 44 45 41 38 35 32
82 82 70 75 89 82 84 78 66 72 96 79 81 72 82 77 75 72 66 63 70 88 93 96 94 93 90 78 61 67 68 66 56 44 45 50 54 45 39 40 43 39 37 36 33
86 87 82 87 93 82 76 83 91 95 97 76 65 90 84 94 89 72 62 64 74 91 89 90 96 84 78 85 84 71 75 74 60 49 46 53 57 45 39 37 34 32 32 32 31
88 78 78 78 84 79 85 85 98 100 97 74 82 73 89 100 74 75 67 64 80 92 83 82 74 64 70 78 80 76 77 67 62 53 51 61 51 43 34 34 32 32 30 31 30
90 85 80 82 86 91 86 94 90 100 99 73 85 82 95 98 78 71 62 70 84 90 80 70 57 64 68 69 68 78 53 56 58 62 75 59 69 57 41 42 39 31 25 24 24
82 62 64 95 100 100 91 98 98 99 99 78 86 94 94 94 78 76 60 64 76 69 73 89 65 71 71 66 55 64 54 59 63 75 69 70 77 54 41 34 28 28 25 24 25
90 100 100 98 95 92 96 97 99 92 95 93 85 93 99 76 65 66 63 58 58 67 62 65 54 51 54 58 52 57 60 70 80 76 89 68 66 49 40 32 29 31 27 30 30
100 96 87 89 99 99 87 99 91 95 82 99 94 100 87 76 75 77 85 72 94 99 100 69 67 53 53 66 57 60 69 89 80 94 77 71 76 61 45 42 37 37 37 38 39
87 94 90 86 96 92 82 89 95 92 98 100 96 99 98 76 80 90 77 83 67 76 92 94 93 65 54 62 72 65 66 83 66 95 85 69 84 54 38 34 30 40 41 37 38
77 89 95 99 97 81 78 95 91 99 100 100 99 96 98 87 88 90 78 76 68 62 80 83 83 60 56 58 58 76 83 64 88 80 94 74 57 33 34 39 44 44 42 44 46
76 82 98 96 86 86 90 93 100 99 100 99 99 88 96 100 99 91 74 65 64 59 56 66 94 64 60 56 60 61 64 83 93 77 75 60 66 42 37 40 47 51 44 46 53
70 82 87 92 97 85 98 98 100 100 99 88 85 85 87 85 79 74 70 66 54 63 56 64 76 96 68 71 81 82 89 84 80 85 84 89 42 47 37 41 48 49 44 50 58
76 93 83 95 86 98 99 100 100 97 89 90 61 68 78 70 68 72 70 63 53 58 64 61 80 97 84 65 62 68 74 74 86 78 97 91 73 42 45 47 41 43 47 59 66
85 85 81 86 99 99 98 98 98 96 88 77 60 58 56 65 71 67 66 52 52 57 65 58 78 95 85 68 70 75 75 70 76 84 98 95 63 44 51 45 41 43 52 70 72
90 95 82 87 94 99 100 100 93 90 90 65 59 56 61 75 69 73 72 70 56 51 53 53 74 78 86 68 81 92 85 80 82 95 88 86 69 50 44 47 41 43 77 78 82
93 97 100 98 92 94 88 80 79 79 65 64 60 63 70 77 74 82 72 68 63 63 62 64 85 82 75 74 74 76 76 88 84 79 85 70 72 55 46 46 43 72 83 83 85
87 99 99 99 90 82 84 91 80 81 80 79 81 75 74 70 67 80 73 68 66 62 69 68 88 82 88 73 80 88 80 77 83 77 78 71 72 48 44 44 65 86 82 82 78
88 96 99 82 93 87 94 90 84 76 68 70 69 75 81 82 65 59 56 61 63 71 80 72 88 90 94 74 75 87 83 81 75 74 66 79 58 45 56 69 82 83 83 76 79

GFSSW_850_rhum_060.txt.gz
RH
89 97 99 96 95 98 87 93 93 96 97 92 62 97 96 100 99 96 92 34 37 60 72 62 84 85 85 80 62 57 78 87 66 60 45 35 34 31 29 28 26 23 24 32 37
95 92 93 80 77 85 87 83 88 92 88 95 93 99 94 99 99 99 66 55 33 44 92 95 80 88 96 77 61 64 85 75 54 48 43 39 39 39 35 35 28 25 42 34 41
98 95 94 81 84 85 72 74 72 79 89 85 96 94 99 100 99 92 64 63 46 38 94 98 83 88 85 73 66 67 77 54 52 45 45 47 46 41 42 39 30 32 54 60 64
87 87 79 84 82 74 69 71 90 78 82 90 86 90 100 100 90 67 74 88 38 40 98 99 92 86 81 83 67 71 63 54 44 46 47 48 44 46 42 38 33 35 39 67 83
80 77 76 78 82 83 75 75 82 74 83 86 87 91 95 98 92 70 62 89 76 62 95 98 93 83 76 75 67 71 61 55 48 47 49 48 49 49 46 38 37 36 37 38 53
87 85 93 89 81 81 76 78 75 91 88 83 81 95 98 98 84 71 72 63 84 76 92 97 90 78 71 71 68 60 58 55 52 50 48 50 50 47 43 37 38 36 33 34 36
86 92 76 71 85 94 89 84 74 75 74 80 93 87 93 96 87 73 72 66 69 71 96 95 90 77 74 70 63 59 65 59 57 53 53 50 60 65 42 40 39 37 34 32 32
88 85 75 77 74 80 91 87 85 82 90 87 82 88 98 71 72 82 93 54 75 78 94 86 90 76 71 62 63 70 64 82 59 58 52 46 59 45 37 41 39 35 35 35 31
78 75 75 81 81 80 78 76 78 70 84 83 91 85 83 70 81 75 88 88 77 85 83 76 81 83 76 72 75 74 93 87 69 56 52 60 65 45 42 44 43 37 31 34 33
77 92 81 84 80 80 82 76 65 64 69 88 88 92 65 82 79 74 79 75 80 86 92 96 95 91 84 75 86 81 72 78 76 50 55 65 73 56 42 45 49 40 36 36 36
94 84 90 81 80 92 84 72 72 74 88 70 70 72 60 73 83 79 77 72 80 85 95 96 96 95 84 73 67 74 74 73 60 47 47 54 58 50 40 40 42 36 35 34 34
92 93 93 87 79 82 82 87 90 90 98 76 70 81 68 98 97 84 80 68 73 91 87 96 99 82 70 71 66 64 73 73 60 52 48 56 60 48 41 41 36 34 31 32 31
93 95 92 94 92 78 72 84 92 93 99 80 75 84 74 94 96 91 72 65 78 83 89 84 92 89 91 92 89 79 78 72 66 54 54 62 54 45 34 35 33 32 32 31 29
83 90 96 93 92 78 97 99 96 100 98 78 83 88 75 96 94 78 71 66 78 83 83 81 78 92 90 94 90 100 64 59 59 64 77 59 74 56 42 37 36 35 28 31 30
100 97 95 91 99 100 98 99 100 98 97 66 88 90 98 98 95 84 67 68 86 89 84 92 77 76 83 74 64 70 56 61 64 75 68 66 73 50 38 33 32 39 43 46 42
87 81 78 75 89 93 99 98 99 89 92 88 86 97 98 97 90 84 64 63 65 77 70 71 54 58 59 61 55 61 64 72 77 73 86 65 63 42 39 37 39 37 46 48 44
81 82 76 84 93 97 88 94 88 96 90 98 97 100 100 94 88 75 79 83 94 98 100 83 78 56 55 67 57 58 69 87 74 89 78 72 76 58 46 44 40 39 48 49 50
84 84 80 95 85 79 83 88 95 89 99 100 88 99 100 91 96 95 92 97 86 82 96 94 96 65 55 62 72 69 65 81 61 88 73 71 84 52 41 38 41 43 47 48 52
73 65 93 87 74 85 90 97 96 98 98 100 100 100 99 91 93 97 85 81 77 64 80 83 94 61 57 59 56 72 86 62 87 80 92 75 60 38 38 41 46 41 46 50 58
70 71 75 80 90 99 98 96 100 100 100 99 100 93 99 94 99 99 82 67 70 61 56 66 95 71 62 56 63 62 65 80 90 81 71 54 58 37 41 43 47 49 47 50 62
71 81 72 94 100 91 98 99 100 99 98 93 83 89 91 86 77 78 73 67 58 63 62 64 77 90 67 72 81 79 89 82 78 85 78 78 37 44 44 46 46 50 44 52 68
80 87 67 83 86 98 99 100 99 93 91 68 62 72 77 69 73 72 72 62 55 55 66 63 82 95 86 66 62 66 76 72 85 83 97 92 62 39 45 46 43 43 42 54 72
90 83 70 85 99 98 96 95 93 90 89 62 62 58 56 67 68 66 64 58 54 55 63 62 79 96 89 71 67 77 75 70 75 84 97 84 49 42 52 52 44 43 46 67 77
90 96 80 82 95 97 92 94 85 85 72 61 63 60 68 76 71 73 72 70 56 52 54 54 74 78 86 67 80 92 87 76 78 94 88 90 67 51 44 47 47 45 54 80 81
89 96 100 98 94 96 84 84 87 94 70 65 71 68 68 76 76 83 75 68 65 66 64 63 87 78 71 71 74 78 82 86 83 80 85 69 76 58 51 48 46 46 80 80 77
92 96 92 95 86 92 86 90 89 84 78 82 86 78 70 71 68 81 74 69 69 66 68 68 93 84 87 71 81 89 80 83 84 78 81 73 77 49 46 44 48 78 82 81 76
91 98 97 81 92 88 96 89 86 74 72 79 73 77 83 82 71 62 60 65 65 73 80 75 87 93 91 80 81 88 84 81 82 80 73 88 61 45 49 53 76 83 84 79 75

GFSSW_850_rhum_063.txt.gz
RH
92 96 98 93 92 80 73 83 84 82 84 90 82 94 72 92 99 100 99 80 56 50 77 65 92 93 90 79 64 59 70 69 57 56 42 36 34 30 27 25 26 23 24 30 40
86 89 83 82 77 80 75 66 82 72 85 84 84 96 94 97 100 95 99 80 75 43 81 98 83 98 94 86 65 62 72 66 52 48 42 38 35 36 35 36 30 25 27 28 32
84 77 78 80 78 78 79 78 69 80 76 74 82 79 93 97 98 88 70 69 68 68 67 94 87 91 95 78 69 68 68 55 53 43 41 46 45 41 41 41 32 30 45 52 52
83 82 84 78 77 92 80 81 83 80 76 81 74 79 94 98 91 68 71 91 97 100 67 92 99 94 80 82 72 73 65 54 45 49 50 52 46 46 43 36 35 38 38 52 78
79 71 79 88 93 92 85 86 82 77 76 82 70 79 97 90 93 83 90 78 90 99 71 98 94 86 74 73 71 71 62 56 49 48 50 49 50 47 45 39 38 38 37 38 47
82 78 82 74 81 81 89 92 89 95 90 86 70 82 97 92 70 79 88 86 79 93 90 97 86 85 76 76 69 63 61 56 54 50 50 52 52 50 44 39 36 36 34 34 35
87 76 77 78 72 70 81 92 93 92 95 82 77 86 97 80 57 65 80 76 77 83 90 95 84 69 71 69 70 60 70 64 54 55 52 51 56 61 42 40 38 38 35 34 33
76 81 77 72 70 73 90 92 86 85 95 89 79 86 94 68 44 74 77 75 73 67 63 88 89 74 68 65 69 71 67 81 60 53 52 46 52 44 40 40 43 38 36 31 29
80 80 81 79 78 76 76 86 68 68 74 91 84 97 94 67 68 47 76 86 78 76 85 74 95 84 75 73 75 80 89 84 66 58 54 48 58 47 46 44 44 41 39 37 32
93 87 95 93 91 83 79 80 66 61 63 71 98 93 77 60 62 55 67 87 91 94 99 90 86 85 85 79 79 86 82 83 68 55 61 66 67 56 46 41 42 39 36 34 35
90 90 93 94 92 86 95 85 72 69 84 66 73 73 78 78 81 68 80 88 87 93 94 88 95 94 79 74 61 68 67 76 69 50 49 57 58 48 41 40 41 36 32 30 32
96 95 98 97 91 92 96 97 78 85 90 84 79 87 76 78 97 74 82 81 84 94 86 98 98 80 69 73 65 64 71 74 60 51 50 56 54 45 40 41 38 37 36 36 35
98 95 90 92 99 88 94 97 95 97 97 81 84 80 77 72 98 97 86 72 70 89 86 95 93 87 88 80 81 72 70 74 65 54 54 58 52 43 34 34 34 34 33 34 32
91 81 80 84 81 97 99 99 97 100 94 71 79 89 83 82 96 90 86 66 73 86 84 95 89 88 95 95 86 94 66 63 60 66 75 58 62 51 39 38 42 47 47 44 41
88 80 80 87 89 99 100 99 100 98 92 91 94 86 95 95 95 95 63 68 88 90 84 97 94 92 97 94 88 94 81 60 64 72 66 63 63 45 36 38 42 44 53 55 49
82 79 80 88 95 95 96 97 99 89 95 92 87 97 98 100 96 99 78 71 78 80 73 86 74 84 78 83 76 65 62 66 71 69 78 63 60 39 39 38 41 43 52 58 53
74 78 88 97 98 93 99 100 94 95 94 90 91 97 100 99 94 77 77 87 94 99 100 99 92 70 62 70 56 60 70 82 75 84 66 72 74 47 41 43 40 45 51 59 59
59 65 72 74 86 98 100 89 93 95 99 97 94 100 100 94 94 82 89 97 86 86 96 94 97 78 61 69 78 67 68 78 58 71 62 70 76 45 42 41 40 45 52 59 63
51 60 64 76 95 97 100 96 98 100 99 98 94 99 100 97 95 91 91 99 92 65 85 88 97 62 62 59 59 68 77 58 85 80 81 66 56 39 42 45 45 45 47 52 68
52 58 62 81 95 100 97 95 100 98 99 100 99 95 97 100 97 88 88 83 79 64 57 71 96 72 65 58 61 61 63 77 86 75 65 49 50 42 49 45 44 47 48 53 73
50 61 66 85 85 87 98 99 100 99 98 92 87 95 86 98 85 78 80 71 61 63 59 67 76 90 67 74 78 75 84 78 73 75 61 56 33 41 46 46 47 47 46 60 74
62 83 69 77 92 99 99 98 99 93 94 85 62 71 76 70 72 74 73 65 56 54 71 64 82 95 88 66 62 63 74 68 82 81 90 85 48 36 43 50 50 45 45 59 76
79 73 68 83 99 99 87 85 90 90 80 60 63 59 61 69 70 69 68 63 54 54 62 58 80 92 85 74 67 76 73 68 73 81 94 69 42 42 50 50 43 47 47 67 79
81 94 78 79 96 97 100 94 87 73 73 65 63 61 68 77 73 71 79 70 56 63 57 54 73 76 82 65 79 92 86 74 77 87 81 84 57 45 43 46 44 45 58 77 78
86 97 99 98 94 92 88 90 89 95 70 70 70 73 66 75 75 85 74 70 69 67 63 61 86 78 67 73 74 77 85 80 81 78 79 64 72 54 49 51 49 47 67 80 78
96 98 97 94 87 90 89 91 92 88 82 84 85 82 69 76 72 82 74 71 69 68 66 68 97 82 85 72 80 88 78 83 74 74 74 72 72 48 47 45 48 73 80 81 78
90 93 100 82 93 90 96 91 91 77 78 83 77 80 84 83 75 62 60 64 66 73 78 74 86 87 88 79 83 92 84 81 82 79 70 86 64 48 48 51 78 82 83 81 77

GFSSW_850_rhum_066.txt.gz
RH
96 84 87 86 83 74 73 77 82 69 78 83 80 71 71 78 81 93 97 98 88 64 76 88 92 97 95 69 63 51 37 33 35 36 28 27 27 26 25 20 22 22 25 40 40
88 86 87 74 77 81 81 78 85 81 80 87 76 79 83 97 89 87 83 76 67 75 90 89 85 97 89 71 60 41 37 28 22 26 29 31 25 24 25 22 23 23 31 36 46
94 89 83 94 80 82 90 92 89 74 74 76 72 70 80 87 89 54 69 67 74 79 90 84 74 98 85 74 59 45 40 28 41 38 34 34 30 31 25 28 21 22 32 64 46
83 78 76 75 76 90 91 91 77 84 81 72 86 76 75 96 59 90 79 67 68 89 98 86 86 95 78 77 60 56 42 38 38 48 44 41 34 31 30 23 29 36 39 48 82
91 92 82 78 77 88 82 71 92 94 84 78 79 73 85 97 84 75 96 99 97 98 97 80 77 77 73 68 63 61 46 45 38 47 46 48 40 30 34 34 40 40 37 40 52
92 88 79 76 72 81 77 90 94 92 92 91 80 76 94 95 56 52 70 89 88 86 98 78 74 70 60 59 66 55 52 48 43 42 47 45 42 44 36 35 38 38 37 39 40
93 91 86 79 78 74 92 96 94 89 92 90 93 85 97 71 60 64 73 90 87 95 95 75 84 68 57 59 59 56 59 50 46 45 43 43 44 42 36 35 31 32 32 34 38
86 84 91 79 86 83 80 78 85 84 86 86 91 94 88 75 57 47 62 76 86 77 99 75 96 74 58 56 59 60 56 67 44 42 48 39 32 29 34 32 28 27 27 28 31
91 90 89 88 93 94 88 79 80 83 95 96 98 90 77 72 74 51 63 79 85 84 88 83 98 84 70 55 67 60 55 52 48 43 38 44 33 25 32 35 32 32 32 31 31
91 91 91 91 91 87 87 85 78 67 70 86 99 92 77 61 66 76 73 77 91 80 97 88 96 96 83 67 63 58 54 49 46 51 44 43 39 40 41 43 36 32 31 33 34
95 99 98 94 94 100 82 96 87 85 94 68 71 62 72 72 68 76 78 77 98 93 85 72 94 97 88 56 37 34 49 51 46 40 52 48 45 39 35 36 33 30 28 28 29
92 88 88 82 78 83 89 97 86 91 72 75 79 80 79 82 78 84 72 94 88 95 58 82 97 70 64 60 50 47 50 48 54 45 43 45 45 38 35 34 33 32 30 29 32
89 83 77 71 79 91 98 100 95 92 88 77 84 81 75 74 78 98 79 93 66 87 67 78 85 71 78 76 68 53 44 45 48 48 43 44 43 39 32 30 31 32 34 35 36
91 78 71 70 80 86 99 98 99 98 92 66 75 81 85 88 80 88 78 85 70 94 83 82 84 80 79 88 72 87 52 50 51 52 55 45 37 38 31 37 34 38 41 42 43
97 75 77 74 87 97 98 96 98 95 87 89 85 95 88 77 99 91 84 77 66 96 89 98 95 96 99 89 78 94 50 51 53 56 54 51 47 36 31 39 40 41 47 51 52
81 65 66 74 76 92 94 98 98 91 90 85 78 98 95 99 96 97 97 81 70 83 85 94 91 84 84 87 77 78 61 52 51 54 75 48 49 33 29 31 39 42 48 54 58
72 64 61 63 80 87 98 99 93 84 85 85 82 95 100 100 96 92 84 73 75 97 100 96 98 92 85 97 93 84 83 94 84 79 57 54 56 33 33 32 36 42 50 58 62
64 60 69 76 91 99 99 89 76 81 97 86 94 100 99 84 95 90 90 86 70 64 83 96 98 97 91 73 73 68 60 59 60 59 43 58 50 34 33 31 38 44 49 60 65
59 55 65 79 96 99 99 88 98 99 97 99 89 99 100 92 95 86 96 92 82 65 82 88 99 86 82 64 52 60 72 46 68 62 52 37 42 33 36 36 38 41 47 59 68
52 55 72 84 88 94 89 95 97 85 97 98 100 66 96 71 84 65 74 82 64 56 49 64 94 72 61 55 52 54 47 63 76 67 51 37 35 36 45 41 40 40 42 53 70
52 61 72 80 73 86 100 100 100 92 94 87 74 69 64 66 59 62 72 66 57 53 47 52 60 85 63 68 64 61 64 61 50 54 40 30 23 25 36 37 36 38 43 57 70
53 92 76 72 91 98 98 94 90 79 88 80 58 57 60 54 56 57 64 56 53 48 52 56 61 84 79 59 54 52 54 47 65 73 66 60 32 27 32 33 39 37 44 63 78
68 64 67 74 99 90 74 74 75 68 63 56 55 50 50 54 58 57 59 55 53 50 48 48 64 85 82 64 60 66 59 53 57 71 79 49 34 32 33 35 36 38 45 67 73
79 94 80 84 95 86 94 93 74 73 62 60 55 50 52 56 52 62 62 59 59 56 57 45 58 72 60 56 64 93 71 60 89 81 58 52 39 35 34 34 35 43 54 69 71
87 97 97 94 80 80 75 75 71 79 62 61 56 61 53 58 60 67 64 59 58 60 52 47 74 68 61 62 63 68 75 69 82 67 77 45 43 33 33 36 42 47 66 74 73
96 98 97 85 80 73 78 80 78 76 72 68 68 65 56 58 59 61 57 56 53 54 52 54 84 71 79 65 68 78 67 68 65 57 56 53 53 34 36 40 44 65 76 75 73
92 98 99 76 76 73 94 89 86 76 75 74 65 62 65 68 68 57 57 55 54 55 60 58 69 73 80 68 70 76 68 66 66 59 55 66 46 37 40 41 53 72 78 76 73

GFSSW_850_rhum_069.txt.gz
RH
94 79 82 81 84 75 80 82 80 79 87 86 81 80 84 81 79 80 76 90 84 83 61 74 83 91 94 74 55 39 38 38 33 28 24 18 22 23 22 19 17 18 16 42 67
80 83 76 79 78 78 74 75 82 74 69 78 79 75 75 72 96 82 63 80 88 93 92 82 61 85 92 68 58 46 41 30 23 22 22 23 23 23 21 20 16 16 21 44 57
81 79 89 94 84 76 82 94 94 93 89 75 82 69 73 78 90 66 60 55 72 92 94 67 56 70 87 68 55 47 39 27 19 29 26 27 25 21 20 19 16 16 17 36 47
79 90 87 85 94 86 75 90 94 87 87 76 75 77 80 94 67 92 56 59 74 92 93 66 56 66 69 72 57 47 38 29 26 37 37 30 25 19 21 18 18 18 26 37 55
83 87 91 86 76 80 75 86 93 93 90 79 83 75 84 84 76 68 73 89 91 92 99 86 53 52 59 51 56 50 34 35 36 41 38 33 31 22 23 25 28 33 37 32 41
80 83 80 77 83 76 78 76 85 84 90 86 85 77 89 72 54 57 67 60 94 91 92 93 52 47 48 49 56 54 45 41 38 36 41 42 32 30 26 26 29 31 31 32 32
81 84 86 92 93 77 78 75 76 83 78 79 84 98 87 67 57 58 67 58 70 93 89 93 59 47 53 50 53 53 57 48 40 36 38 40 42 39 31 30 28 28 26 26 29
92 90 87 85 79 80 84 90 80 78 81 79 78 96 85 65 64 60 57 66 55 77 91 92 70 60 47 52 48 61 54 60 48 40 38 40 38 25 31 30 27 24 22 24 25
82 96 94 87 87 87 88 78 89 74 76 90 94 97 63 66 66 60 58 60 68 81 89 89 84 80 51 70 68 61 76 51 40 36 39 43 34 20 28 28 25 23 21 20 21
81 89 89 78 81 80 85 98 86 71 83 91 94 88 65 51 58 60 59 61 80 88 95 96 91 96 70 80 94 61 55 38 39 40 38 42 40 27 28 29 26 23 22 23 23
84 89 81 69 68 78 78 99 93 85 86 61 66 54 57 60 62 61 62 69 95 100 98 93 83 92 80 59 47 32 36 35 31 39 41 38 33 32 27 34 31 26 23 22 23
90 87 73 76 70 74 93 97 87 95 65 62 65 61 58 62 60 51 71 74 81 100 76 73 84 68 70 54 53 40 33 33 32 33 44 36 36 29 30 30 30 28 23 21 21
94 90 70 76 77 97 94 99 97 92 94 64 66 66 62 65 55 59 80 75 85 97 60 62 65 55 82 76 71 69 40 34 38 42 42 37 39 35 30 30 29 30 30 28 29
95 94 72 72 92 94 96 98 99 96 90 58 65 75 69 64 60 71 94 90 71 86 55 51 72 56 74 94 86 64 33 30 37 49 46 39 30 29 28 30 28 28 30 32 34
99 99 72 75 91 95 93 95 98 96 76 83 92 94 79 79 99 82 82 94 76 89 81 97 80 81 79 92 87 78 46 38 43 44 46 50 49 33 29 35 31 31 37 40 41
99 96 65 88 100 87 92 98 95 92 82 90 77 85 86 92 98 99 96 92 85 91 74 90 80 80 82 87 88 51 50 51 50 53 78 41 41 38 33 31 33 34 38 43 46
96 70 69 73 92 92 99 98 94 82 68 83 81 96 100 99 100 97 96 96 94 100 99 97 97 90 86 97 89 76 83 98 98 92 58 40 49 30 27 26 31 34 40 49 50
59 60 73 80 92 97 99 98 79 77 93 75 82 99 100 99 100 84 64 77 69 69 96 99 99 100 93 94 96 96 97 98 72 62 46 46 53 33 26 26 35 40 45 52 53
51 84 100 96 92 99 99 96 94 93 97 100 89 95 85 76 82 65 75 74 62 53 72 95 100 95 91 78 78 95 89 47 51 42 41 36 32 31 31 30 36 38 43 53 58
51 88 85 80 88 98 87 85 86 74 91 100 97 54 76 56 55 51 54 62 54 47 44 58 96 95 92 75 54 66 53 66 78 61 47 33 30 31 35 37 34 37 40 48 60
57 75 70 71 85 85 98 100 100 81 84 88 55 53 49 48 44 49 54 56 47 46 41 47 58 87 67 88 78 59 61 55 50 51 42 33 24 25 33 33 37 36 40 48 59
75 91 67 67 87 92 80 76 79 65 77 71 53 44 45 42 46 49 53 49 47 40 45 47 57 80 71 52 49 46 48 42 67 65 58 61 36 25 29 32 32 37 42 52 66
81 78 68 88 96 80 65 62 62 56 53 49 47 43 39 44 52 48 51 47 47 44 42 43 60 83 74 58 53 60 50 43 49 76 77 47 38 25 30 32 32 34 41 54 66
88 95 73 74 77 76 84 83 60 60 49 48 44 40 40 44 40 53 55 52 53 48 50 40 50 70 61 58 58 91 59 53 86 80 49 46 34 34 33 33 29 37 43 56 65
91 90 92 83 73 68 61 57 55 61 49 47 46 46 44 47 48 57 54 52 49 51 44 40 67 62 52 52 54 64 68 61 88 65 76 38 34 30 30 29 31 42 53 62 65
99 99 98 77 66 59 67 70 65 61 61 54 52 48 42 46 53 52 48 46 46 44 44 44 75 62 80 54 56 70 58 59 60 53 47 43 43 28 27 35 39 46 62 68 67
99 97 99 68 61 62 81 81 76 64 62 62 58 50 54 60 52 46 46 44 43 46 47 47 58 66 72 60 60 72 60 57 57 50 46 58 41 35 37 37 42 54 68 70 69

GFSSW_850_rhum_072.txt.gz
RH
81 80 78 74 82 87 82 83 76 75 72 68 75 84 84 83 82 76 94 70 85 78 57 80 64 90 94 89 66 54 59 62 53 41 32 20 22 21 21 21 17 17 21 62 82
88 81 77 84 84 85 82 89 75 83 88 95 89 75 80 76 86 92 82 76 71 92 92 87 62 82 90 84 75 55 57 51 35 30 29 23 22 22 23 22 20 18 33 52 62
83 90 96 91 95 90 91 95 84 93 95 90 85 83 73 77 90 74 76 77 75 90 93 86 64 66 75 73 69 57 63 40 33 28 32 26 24 23 24 27 20 18 21 33 57
97 96 81 78 83 71 72 76 72 80 79 80 82 76 75 84 82 86 76 77 78 81 97 93 63 56 70 75 66 57 50 45 29 34 35 30 27 25 22 21 20 17 17 30 44
85 82 88 81 84 85 80 74 83 73 81 87 80 81 86 99 87 75 73 70 81 86 99 97 66 52 60 63 62 65 46 39 38 36 38 31 30 27 22 20 25 28 28 34 46
90 96 93 90 89 86 89 74 80 77 71 76 76 79 89 86 65 57 55 60 80 87 87 92 82 49 49 50 54 56 53 42 34 37 39 39 36 31 24 23 27 31 32 31 31
91 86 87 90 89 82 86 96 77 78 85 71 76 82 94 75 60 57 58 58 56 86 86 84 80 48 44 52 46 51 67 58 40 38 40 42 46 41 29 28 28 29 30 29 30
95 92 85 88 83 76 79 81 85 83 77 72 77 88 87 69 66 65 60 62 62 67 78 87 90 83 44 48 46 64 64 81 50 42 38 41 55 39 33 34 32 28 27 27 25
83 92 90 86 82 73 72 78 86 80 74 75 86 86 69 64 67 60 59 53 56 67 72 86 97 91 60 60 75 78 87 77 57 45 41 46 50 31 29 33 32 29 27 23 23
83 91 90 83 71 68 62 69 84 93 74 92 92 89 64 52 53 55 54 57 66 75 82 96 99 93 77 72 95 75 78 61 56 50 44 52 51 30 26 27 30 28 26 24 21
88 94 83 90 80 80 78 90 92 93 89 67 65 62 54 54 58 55 56 71 80 100 96 91 98 96 78 59 63 64 57 50 44 34 50 49 52 42 30 32 33 30 26 22 22
87 91 83 74 83 98 76 92 99 96 94 78 62 60 59 56 55 49 48 69 87 100 95 90 96 81 54 55 65 61 54 50 38 40 46 45 46 36 33 32 33 32 28 25 22
95 86 80 67 81 97 87 97 98 91 77 62 62 60 58 57 55 53 65 66 74 94 99 86 75 65 68 63 65 61 69 64 41 44 42 40 46 40 31 28 29 30 30 29 28
96 92 75 68 86 85 93 84 87 95 95 78 93 74 68 60 55 57 65 77 88 93 84 87 56 67 72 76 65 76 53 58 40 53 71 48 60 40 35 37 35 31 29 28 29
96 96 60 78 87 86 90 91 96 98 91 77 79 85 74 69 98 83 65 94 91 97 95 94 74 79 93 91 79 85 78 51 59 55 54 58 64 40 36 37 36 31 29 35 36
55 62 62 77 99 84 92 96 97 99 96 93 97 87 93 86 97 98 90 99 100 87 81 93 77 78 78 76 78 88 91 80 63 61 92 57 60 48 40 35 34 35 39 41 42
50 67 70 85 90 90 93 86 100 94 71 92 97 95 99 98 94 78 93 99 95 98 97 89 97 90 81 98 92 94 100 99 98 98 86 48 61 46 32 31 34 42 42 46 48
51 70 82 95 90 96 98 99 89 81 95 92 97 99 99 92 95 94 90 97 87 78 88 86 95 99 94 88 94 97 97 98 89 90 69 47 67 43 31 31 33 37 47 51 53
54 70 93 84 77 95 100 87 93 98 97 100 93 100 100 98 96 99 96 93 89 79 86 96 98 95 92 87 84 99 100 85 74 50 74 59 42 36 30 42 43 43 48 53 58
52 83 80 73 82 88 96 88 94 71 87 100 98 68 78 60 83 68 65 56 57 47 45 67 98 96 94 88 84 94 68 89 97 82 71 51 49 49 45 45 44 44 46 55 61
65 78 66 74 80 93 99 99 98 75 77 87 66 50 44 45 45 52 61 52 42 44 45 53 72 99 96 98 98 96 100 62 59 64 80 65 43 33 39 39 42 44 42 52 61
76 93 68 81 92 95 80 69 71 62 74 69 57 46 45 43 51 50 62 54 44 44 50 53 68 93 76 54 49 52 60 56 91 76 81 83 53 30 36 40 40 41 42 54 62
84 77 77 78 94 95 71 72 58 57 51 50 47 43 38 44 54 52 57 45 47 52 53 47 74 89 74 66 55 63 54 48 68 87 86 85 54 35 41 40 35 39 43 56 67
86 96 78 69 70 77 82 73 57 54 51 44 43 40 38 45 44 53 57 55 49 46 46 46 59 83 88 72 74 84 63 61 87 91 72 70 43 43 41 41 34 36 43 55 66
90 87 94 82 79 67 69 64 55 63 53 43 44 45 44 47 46 57 54 55 48 46 42 53 72 67 54 53 55 76 72 73 87 74 80 55 42 37 38 39 32 42 47 58 64
95 98 93 86 60 58 62 64 72 62 62 54 54 46 47 57 58 52 47 46 48 44 44 46 78 69 87 52 55 69 62 64 71 65 58 48 48 29 29 29 39 43 56 64 65
94 97 98 78 58 61 76 66 75 63 59 58 62 59 58 60 50 46 43 44 46 47 50 52 69 78 85 58 62 81 67 64 64 57 55 66 50 36 41 40 41 49 61 67 68

GFSSW_850_rhum_075.txt.gz
RH
86 84 86 94 88 92 94 89 86 82 79 70 73 70 66 74 83 80 80 68 51 85 66 84 76 54 94 86 84 78 82 80 72 64 53 40 42 30 21 18 19 30 35 60 75
85 96 92 84 82 82 83 80 82 77 86 97 95 95 89 78 76 79 69 59 80 64 88 79 82 70 96 91 82 76 83 64 48 47 45 37 43 45 47 23 23 52 52 63 63
94 85 87 78 75 82 83 88 69 83 85 67 72 91 81 83 94 76 68 71 78 83 84 72 82 74 94 84 79 70 69 49 42 40 34 41 55 36 40 30 22 57 52 51 41
89 86 88 90 94 90 88 85 86 92 85 77 82 73 72 83 85 82 83 84 90 89 80 89 74 81 90 88 75 74 58 51 41 37 38 36 31 33 40 24 23 24 29 38 38
93 89 87 96 86 82 90 92 83 82 79 75 76 78 83 89 82 76 80 75 89 88 80 96 84 76 84 69 70 82 60 52 48 48 43 38 33 30 26 24 26 30 33 54 59
100 90 93 88 86 85 86 85 87 87 75 73 74 75 86 94 62 63 71 66 87 88 78 89 84 71 63 64 73 63 64 60 49 51 45 42 36 32 26 24 31 28 34 36 45
98 86 96 97 93 87 74 77 80 86 78 73 77 77 87 63 64 77 64 62 71 90 82 92 92 77 53 60 59 64 80 73 61 44 46 42 46 44 30 27 30 32 30 29 31
95 93 92 87 83 75 66 64 80 82 82 76 79 90 90 52 59 60 65 66 66 74 83 86 94 91 84 50 52 63 68 90 67 46 42 44 60 44 34 28 31 31 31 29 28
97 100 96 89 83 70 62 64 72 84 80 73 81 82 81 64 59 54 54 60 70 64 67 78 89 96 70 69 77 77 94 82 67 52 46 47 52 37 35 31 33 31 30 29 27
97 99 100 84 80 76 69 83 82 91 81 81 91 86 55 58 58 57 56 58 64 62 81 86 91 97 87 77 90 77 86 81 80 57 56 56 54 41 28 31 33 32 31 28 27
97 94 88 83 78 80 68 78 87 86 95 77 72 67 58 55 55 55 60 64 63 78 100 95 96 95 81 63 63 67 77 76 67 51 58 61 57 48 37 32 34 33 32 28 26
97 98 95 75 86 81 66 87 98 98 95 67 73 69 62 63 56 54 55 65 77 93 97 96 96 83 69 57 67 71 73 70 51 47 57 62 58 50 42 40 32 31 30 28 27
98 98 81 70 87 82 70 86 98 92 89 65 60 61 61 58 56 54 56 71 76 97 100 100 89 84 68 67 74 79 84 74 58 50 47 56 60 56 44 37 33 29 26 30 30
98 94 65 72 83 83 79 72 85 86 96 86 84 76 64 60 65 65 56 68 84 90 92 98 68 76 74 74 68 87 61 62 63 63 93 50 79 53 45 41 36 34 28 31 30
66 63 65 80 84 84 93 91 71 89 94 99 86 76 70 68 80 81 67 81 79 92 95 82 80 95 90 74 68 82 80 78 70 84 60 62 65 55 42 44 36 40 32 30 30
56 69 73 73 90 85 91 91 84 93 94 100 98 94 91 84 96 93 91 97 96 95 95 91 72 81 79 82 82 78 85 85 81 90 99 74 69 58 55 41 39 34 32 38 39
58 74 77 84 81 88 99 86 91 94 71 95 99 94 100 100 97 82 94 100 99 99 99 97 98 88 78 95 85 84 94 99 99 98 92 66 70 50 39 36 34 45 43 41 42
54 72 72 87 78 96 100 91 93 81 89 77 83 94 100 86 97 89 100 98 100 96 100 98 98 98 89 83 86 95 96 97 92 96 80 57 80 56 39 32 36 42 44 45 47
56 75 78 78 84 87 91 95 98 93 89 99 88 100 100 86 82 99 100 97 85 79 87 94 100 93 86 82 79 95 99 94 89 62 78 66 47 37 43 55 52 54 50 54 58
61 83 75 80 86 91 91 93 98 74 86 98 99 75 96 98 96 96 88 68 63 58 60 86 95 93 88 84 86 94 74 98 99 95 84 68 60 58 45 62 60 60 58 61 63
73 79 78 83 76 77 98 92 93 78 83 92 84 74 58 70 67 72 68 55 48 46 50 69 81 99 94 95 92 99 100 92 81 98 86 78 55 40 40 53 56 54 57 62 64
68 92 79 77 79 98 94 79 65 69 72 75 81 63 55 53 63 69 72 59 49 50 59 58 79 99 93 77 72 75 90 73 91 93 84 90 60 33 42 51 45 46 52 60 64
80 82 78 78 95 79 73 71 68 61 62 55 54 48 44 51 66 62 61 53 50 55 57 53 78 93 87 70 60 69 71 67 67 82 85 84 61 44 47 50 45 48 56 61 65
82 95 70 67 70 76 84 80 68 59 61 50 50 48 48 53 54 62 64 57 50 46 55 50 70 76 85 70 76 84 69 66 74 84 80 76 55 50 45 45 42 44 49 58 63
80 95 95 98 85 75 68 67 71 68 58 55 51 57 55 53 55 63 58 60 50 44 43 56 74 65 59 59 70 78 74 78 78 68 74 55 48 49 43 43 37 36 44 58 64
85 95 95 93 86 62 70 71 69 66 66 72 77 72 66 73 68 67 51 53 53 47 47 57 79 70 85 56 59 70 70 76 68 62 64 60 53 35 37 35 36 40 47 59 64
54 93 97 84 81 66 72 72 72 74 65 62 66 75 68 64 63 60 47 49 49 51 57 61 74 84 87 62 65 81 74 74 75 67 61 67 51 38 38 39 46 49 54 59 64

GFSSW_850_rhum_078.txt.gz
RH
93 86 88 83 83 81 81 76 88 87 70 81 87 91 95 89 82 74 83 64 64 65 85 81 78 72 65 87 82 81 93 77 73 61 53 40 39 36 42 45 26 25 39 49 72
96 85 85 89 95 88 82 81 75 76 87 87 88 86 89 88 88 86 80 71 66 49 73 87 89 79 80 81 80 84 93 78 57 51 50 57 56 71 53 48 39 61 57 72 70
95 91 88 87 91 93 87 87 81 79 80 85 82 74 77 74 84 74 58 62 65 76 77 85 88 88 87 76 81 80 81 56 48 48 42 74 72 65 57 58 43 61 66 62 61
100 99 90 88 86 82 82 85 85 82 81 80 74 74 68 78 86 76 94 98 88 89 84 83 87 93 90 89 82 88 67 55 49 47 64 68 54 75 61 55 36 45 30 53 55
99 98 86 86 85 86 82 81 80 88 83 78 74 72 76 88 72 72 84 82 86 81 83 85 90 88 92 82 77 87 72 59 53 50 47 51 55 49 56 46 42 35 46 54 51
93 93 85 93 91 81 78 65 78 80 97 86 72 81 81 90 56 68 71 77 82 100 82 86 89 80 71 73 80 68 68 66 54 51 45 44 43 37 43 51 36 42 54 58 52
96 97 95 93 89 81 69 70 66 78 95 86 76 81 75 59 65 77 73 71 78 96 92 83 86 78 71 72 58 66 76 71 66 56 52 44 51 47 33 40 36 34 36 46 60
98 97 100 90 90 73 66 74 65 78 92 90 75 78 72 56 57 70 72 77 75 91 88 84 90 99 91 62 64 74 76 85 62 55 48 44 56 45 35 32 30 31 32 31 33
97 96 96 94 87 71 67 82 72 84 85 72 74 79 68 68 56 56 67 65 69 85 91 79 89 88 85 77 78 82 94 87 72 56 49 51 57 39 34 36 30 29 31 31 30
98 96 93 88 77 73 67 82 92 86 74 77 80 83 55 62 59 59 59 63 70 73 85 87 91 91 87 88 88 85 74 83 84 63 57 55 54 41 34 36 34 31 28 31 30
98 96 97 88 78 72 63 74 85 78 86 90 84 72 64 62 55 58 62 60 61 72 100 92 96 99 90 72 62 73 77 76 73 58 63 65 56 48 38 36 34 30 29 30 29
98 98 99 89 80 73 61 78 91 84 78 66 69 71 62 60 58 55 63 61 71 95 100 94 96 86 72 66 67 65 78 82 62 57 66 65 61 53 46 42 35 33 30 28 30
94 77 74 74 82 74 67 78 75 89 82 66 67 64 62 59 57 53 63 60 79 96 96 99 73 67 87 73 75 80 79 77 62 55 60 64 70 61 52 45 40 35 32 29 28
69 63 66 74 82 76 79 78 72 74 90 93 77 72 65 62 66 67 60 68 82 91 89 96 68 84 94 79 66 90 76 69 74 70 90 57 90 64 53 52 46 40 35 32 31
63 62 71 81 71 76 85 84 80 77 90 99 91 81 70 68 81 83 76 73 80 87 85 75 82 94 99 76 65 81 73 70 79 89 65 64 75 63 44 56 49 41 38 34 32
62 64 79 86 96 83 90 90 90 81 90 100 99 95 82 83 93 92 83 80 90 84 80 79 78 84 84 88 74 82 82 83 87 96 99 79 79 75 50 41 41 39 37 34 32
58 63 74 90 92 97 98 87 85 96 69 95 100 100 100 100 99 88 87 98 94 99 98 97 94 94 90 95 83 83 95 97 99 99 94 75 74 60 44 40 40 41 38 36 36
54 64 76 86 96 96 96 87 95 80 87 72 100 100 100 95 100 94 97 99 96 98 98 98 99 98 92 86 94 92 80 92 90 96 83 69 85 60 39 37 34 36 37 44 44
55 70 78 86 92 100 93 97 92 91 81 100 96 99 92 96 96 100 100 98 85 95 100 97 100 93 84 83 74 96 100 88 88 69 88 78 63 43 52 58 58 53 49 48 48
65 72 77 84 88 92 87 95 96 77 83 96 95 87 97 99 100 100 100 76 76 87 74 80 98 88 94 80 88 85 82 99 99 96 89 74 65 61 60 71 66 68 64 59 57
72 72 73 74 69 70 95 91 93 73 82 94 88 82 61 72 85 81 74 62 55 52 60 75 78 97 87 94 96 99 98 91 83 95 94 87 65 44 51 61 69 73 64 64 66
67 89 70 67 71 95 93 75 72 69 78 82 84 87 58 55 70 72 79 64 54 52 63 62 77 93 83 76 63 78 82 82 93 98 92 87 68 41 43 59 61 65 65 64 63
65 76 68 71 92 90 66 72 69 66 62 60 62 51 50 55 67 66 61 52 50 52 55 57 83 98 99 94 84 99 87 73 75 83 86 86 64 45 54 56 52 57 65 65 66
74 87 65 70 74 76 79 73 67 57 66 63 58 54 54 56 61 66 64 57 53 46 54 54 74 74 85 68 82 87 89 90 78 87 76 81 51 50 54 55 55 53 60 65 66
62 96 96 97 86 83 70 67 64 69 58 62 59 74 73 59 60 64 60 60 50 46 46 52 73 67 62 72 71 74 78 82 77 64 76 55 58 50 48 52 51 52 59 64 66
69 85 86 99 89 93 74 70 68 67 72 75 77 76 67 71 68 68 61 58 56 48 51 65 84 67 84 58 62 71 75 78 70 60 62 63 60 40 40 40 42 44 51 61 60
32 86 99 83 90 87 81 72 74 69 70 71 69 78 74 64 63 64 66 55 51 53 61 65 79 83 88 65 68 81 75 82 76 67 60 67 51 40 43 41 39 36 39 46 52

GFSSW_850_rhum_081.txt.gz
RH
98 86 86 86 86 90 92 82 78 72 65 94 81 80 83 88 87 94 87 81 73 60 88 88 84 80 80 68 84 86 96 80 75 64 53 39 40 37 40 47 45 41 58 72 69
97 97 95 88 92 88 83 90 85 82 78 82 84 78 78 82 82 83 87 76 68 54 77 86 90 82 80 84 81 85 87 84 60 54 53 59 48 39 48 56 45 42 81 75 76
98 98 100 93 82 80 88 82 85 89 81 74 79 79 76 74 72 58 52 53 90 73 88 97 86 97 94 86 83 84 78 59 54 52 52 62 63 48 57 65 48 46 64 68 70
99 96 94 83 87 96 87 81 84 75 89 92 74 75 74 71 83 69 98 98 96 86 77 91 90 97 93 91 75 86 74 60 51 62 60 65 55 74 67 62 51 48 50 61 73
94 96 91 89 94 88 84 86 93 76 72 98 86 78 77 86 59 62 88 88 85 97 79 83 95 92 93 83 77 79 72 65 57 55 54 54 57 57 61 63 55 49 52 45 63
94 89 95 93 97 90 75 74 95 63 78 97 98 76 80 93 64 76 69 84 88 91 79 87 90 83 81 75 75 68 66 66 60 56 54 54 53 55 53 63 58 48 50 47 52
97 94 94 88 99 87 75 96 87 58 81 98 81 82 74 57 70 78 78 84 75 81 96 90 76 84 78 76 63 72 82 76 70 59 55 47 52 55 47 68 57 66 51 58 58
98 97 95 86 90 77 74 69 61 71 90 79 79 84 64 69 61 75 75 77 81 74 100 95 84 88 94 70 68 70 73 90 70 68 56 48 62 48 52 66 76 62 51 42 54
99 98 92 88 89 74 66 71 78 86 76 75 80 77 56 66 62 64 70 70 78 66 97 90 88 87 83 87 90 84 95 90 70 66 53 56 58 44 51 67 62 53 47 33 37
98 98 94 89 80 66 69 67 84 76 79 74 74 72 62 64 60 58 64 71 78 74 93 98 83 95 93 88 88 82 92 87 80 73 58 63 55 44 47 46 43 40 40 33 32
97 98 92 98 79 58 64 75 74 77 76 81 81 70 65 60 61 61 61 69 73 79 100 91 92 97 97 76 63 78 73 84 76 60 65 67 57 51 42 42 42 40 40 37 29
86 99 74 96 82 64 62 63 75 78 70 66 65 69 63 60 58 66 69 64 69 93 99 99 95 86 80 71 68 68 80 82 67 63 66 71 72 54 46 44 38 34 42 37 29
68 78 60 71 78 68 63 69 76 73 76 71 67 65 64 60 57 56 65 66 78 94 95 81 77 82 93 79 78 78 71 84 67 64 64 63 73 63 51 49 45 40 33 31 29
62 66 68 68 81 73 77 76 74 80 89 89 81 71 67 64 70 72 68 69 79 92 85 82 68 95 98 82 75 86 66 66 70 73 87 65 94 67 52 52 52 45 43 38 33
64 68 76 77 80 79 83 85 73 80 90 98 92 78 73 65 77 79 84 71 79 87 82 74 77 88 100 88 70 82 71 73 81 82 71 70 81 74 49 60 50 46 44 41 37
64 69 79 78 89 88 86 80 83 81 89 99 98 92 82 84 86 91 77 71 91 83 82 87 82 78 86 87 74 80 81 88 86 92 95 79 84 84 62 47 45 46 41 40 38
64 73 84 86 88 96 94 79 84 95 75 96 100 100 99 93 94 91 87 94 85 98 96 99 87 90 86 98 84 81 89 98 98 99 92 77 86 67 54 41 39 37 34 40 38
59 76 88 90 99 98 89 83 91 79 89 92 99 100 100 98 99 91 88 98 90 94 97 98 99 97 91 92 92 85 82 91 90 92 91 77 92 68 51 42 37 34 33 37 39
59 74 86 96 97 99 89 97 91 88 82 100 97 100 100 99 97 98 98 89 85 88 99 97 99 94 93 87 77 98 94 80 86 75 90 82 72 50 45 52 48 47 47 46 45
63 74 82 83 93 96 87 93 96 78 82 90 92 87 92 100 100 100 100 84 89 83 83 77 100 89 95 81 82 81 84 91 98 98 91 75 73 66 50 56 65 69 61 55 55
72 75 74 80 79 82 91 89 88 74 78 92 89 91 69 73 98 97 95 83 79 87 78 72 79 98 87 98 95 94 97 91 85 95 93 91 64 53 48 55 69 73 66 58 59
62 84 69 76 73 97 90 71 70 74 84 86 87 90 72 58 71 79 87 83 63 70 86 69 83 98 96 82 71 73 81 86 94 97 89 89 70 43 47 54 67 74 63 57 59
60 68 68 66 88 92 70 69 73 73 71 75 73 74 56 58 67 67 68 61 54 52 65 68 85 98 92 83 85 89 78 69 77 87 97 86 69 45 54 64 66 71 69 66 67
58 88 57 69 80 84 85 80 69 63 69 64 69 62 66 54 60 67 66 68 54 47 53 53 76 75 84 65 87 100 95 84 83 92 82 87 65 45 53 63 64 70 69 69 68
44 99 97 92 88 94 90 79 75 72 61 65 71 76 75 72 64 65 61 59 51 48 55 54 78 73 66 73 73 79 84 94 90 79 81 62 63 44 52 60 59 62 68 71 70
45 64 72 91 92 93 84 79 76 73 75 75 79 77 74 72 68 68 64 59 57 49 54 64 85 68 82 63 67 73 76 88 88 81 75 65 65 46 41 47 52 53 66 70 67
45 63 95 80 91 86 86 72 72 65 87 74 81 81 82 71 61 61 66 67 60 56 64 67 82 78 78 68 68 74 75 83 76 69 66 70 53 42 47 45 49 52 58 60 59

GFSSW_850_rhum_084.txt.gz
RH
97 100 99 100 92 88 79 89 88 85 82 70 82 77 76 81 77 79 94 83 79 74 96 95 90 78 79 68 88 89 93 76 77 72 60 38 40 41 42 40 43 43 53 60 65
99 98 98 98 84 86 88 85 84 82 81 83 73 80 74 79 80 70 54 62 80 79 88 87 92 86 83 75 71 84 88 82 60 56 53 46 42 40 44 46 46 38 50 98 94
98 98 92 84 86 99 91 86 86 83 78 82 91 90 79 76 73 52 73 50 81 77 83 84 94 95 88 91 80 82 92 66 57 50 51 57 58 44 53 57 51 44 41 53 97
94 98 96 90 100 98 95 89 94 95 92 74 94 90 82 73 75 65 92 97 91 94 83 71 85 95 93 91 83 92 74 60 55 59 59 61 60 65 54 38 44 40 44 48 48
99 98 97 98 99 99 94 92 98 99 90 74 90 88 86 77 60 59 82 96 89 90 95 89 83 97 90 84 81 81 74 65 59 62 59 53 60 57 54 51 47 38 43 46 43
98 98 98 90 86 91 89 94 93 98 81 75 85 88 84 86 75 82 70 64 86 85 100 87 87 83 91 80 82 68 70 67 61 60 62 58 60 52 49 47 50 51 47 44 47
98 99 97 88 85 87 68 62 65 56 78 89 84 92 80 60 75 80 81 76 70 75 86 98 91 71 86 78 65 73 76 69 72 64 58 49 58 69 49 44 43 45 45 43 48
99 99 98 88 87 81 59 65 74 68 85 80 84 77 66 74 64 71 78 76 74 56 67 97 98 86 96 71 69 82 77 84 72 70 58 52 72 56 51 46 48 43 43 46 50
99 99 99 90 91 78 63 70 85 60 67 72 73 75 61 69 65 72 78 74 73 62 84 97 100 93 87 89 86 77 94 86 75 71 61 60 65 49 57 52 55 44 45 60 52
99 99 99 98 89 55 62 68 73 63 64 72 70 67 64 64 63 64 71 76 72 68 75 98 92 87 95 97 86 89 95 71 74 79 64 69 60 50 72 60 71 71 58 58 55
98 94 96 97 81 54 58 72 72 62 64 82 78 73 59 57 57 63 72 78 73 77 100 100 90 90 90 91 64 72 86 83 73 64 67 73 64 58 59 74 73 70 68 66 52
92 76 90 79 74 58 55 62 67 71 66 66 65 65 62 60 59 62 73 71 70 93 96 100 88 69 72 85 78 63 75 82 74 66 66 78 73 62 52 54 51 67 59 54 47
67 66 69 66 73 68 54 61 69 64 70 70 70 69 65 62 58 57 70 69 78 92 94 97 75 72 94 95 95 69 68 84 75 74 65 71 77 73 59 49 45 45 48 44 40
61 68 75 70 79 73 68 63 72 72 89 89 81 72 71 66 71 68 67 74 77 91 91 98 80 81 100 100 87 86 57 63 74 78 91 66 88 74 68 62 58 47 41 40 43
59 68 76 78 83 81 80 77 71 75 86 86 96 80 76 68 76 78 77 73 76 84 84 92 82 98 100 98 79 83 61 70 72 85 76 75 84 76 56 68 54 48 47 44 39
59 67 77 83 86 87 90 84 82 81 87 96 97 90 86 85 83 88 80 70 87 85 82 91 86 73 88 97 80 82 80 85 88 86 97 80 85 81 71 53 46 46 39 39 37
56 69 82 89 93 95 92 86 84 91 78 96 100 100 98 87 88 90 86 91 92 95 94 99 91 86 84 100 90 88 88 99 100 99 87 78 89 72 59 47 43 42 36 40 39
57 72 86 98 98 97 93 83 85 75 89 86 98 99 97 87 93 84 76 96 86 85 96 96 98 92 88 97 99 92 81 90 90 92 91 86 95 69 54 48 45 38 30 31 34
55 73 86 96 100 99 93 95 83 85 79 100 93 99 100 100 98 95 94 95 82 86 94 98 99 91 87 86 94 97 98 68 86 79 90 82 69 53 49 51 47 45 40 36 32
60 69 80 89 100 99 91 88 95 76 86 88 92 87 97 99 100 100 96 76 83 84 77 80 98 91 94 90 90 88 83 91 88 94 92 74 69 63 45 46 49 59 56 50 45
56 72 81 83 92 95 91 90 85 71 78 93 88 94 88 89 100 93 93 94 75 85 78 87 80 100 96 100 99 88 98 87 84 91 91 91 64 55 48 43 49 61 58 58 55
52 83 78 76 81 98 92 70 68 78 84 88 90 90 87 66 94 100 100 94 90 76 91 82 85 98 97 90 79 77 83 83 92 94 89 91 77 41 50 52 53 62 63 60 58
36 62 75 74 88 92 80 73 72 74 74 84 88 85 64 63 71 72 84 62 69 82 78 70 86 98 98 84 85 91 83 81 81 89 95 92 74 44 53 57 62 69 64 63 62
33 79 50 72 89 91 98 90 79 58 77 69 78 71 70 61 62 72 98 76 63 60 63 56 76 77 84 66 82 99 94 82 81 98 85 89 72 58 50 51 64 72 67 65 69
32 98 97 88 84 98 97 90 86 76 67 66 79 92 85 79 72 69 65 81 64 52 58 60 82 72 68 69 84 86 91 91 88 75 81 70 72 56 47 47 58 66 72 74 75
42 51 68 91 81 96 88 90 78 76 83 94 86 96 81 84 71 71 65 62 61 53 56 66 83 69 82 73 72 78 84 91 85 75 85 75 74 52 43 48 57 64 74 75 72
55 55 79 71 76 78 84 67 68 70 62 77 73 98 98 80 65 62 66 71 64 59 65 69 80 76 74 70 66 69 73 86 84 82 80 88 62 51 46 50 52 57 70 68 65

GFSSW_850_rhum_087.txt.gz
RH
99 99 99 99 91 85 87 89 87 83 79 74 78 83 72 74 75 72 74 67 82 81 92 92 91 81 76 78 89 91 91 76 66 66 53 44 42 44 41 38 43 44 63 81 65
98 98 98 96 94 96 100 96 86 89 88 76 77 90 87 78 71 57 54 55 72 78 89 86 96 89 78 75 78 86 79 69 59 55 52 43 42 48 45 48 48 45 52 77 96
99 96 98 98 98 98 100 97 98 96 94 88 73 84 88 81 67 57 75 84 87 77 84 92 95 83 87 81 74 80 78 61 59 54 47 51 53 45 48 51 40 38 40 48 87
98 97 96 96 95 93 98 100 97 97 98 79 72 81 85 73 61 70 88 97 99 91 94 88 87 85 79 86 78 86 72 63 59 59 55 60 50 55 49 42 37 36 35 40 52
98 99 97 94 86 85 98 88 91 96 96 73 92 89 85 70 60 57 58 66 84 84 98 94 91 92 83 82 83 88 70 64 58 63 61 54 60 52 53 50 47 45 42 37 43
99 98 97 93 88 87 85 55 51 57 74 87 84 95 70 67 80 78 69 65 72 86 86 99 85 76 85 78 77 74 68 68 62 60 65 60 60 52 46 51 51 48 44 37 40
97 98 98 98 87 87 69 58 62 70 90 87 86 74 70 67 74 75 70 71 69 72 75 92 92 98 85 83 66 72 73 76 74 68 59 56 66 65 50 49 47 48 48 38 40
98 98 95 97 94 87 60 70 70 72 72 75 70 72 61 78 69 70 74 71 70 57 54 72 99 99 98 86 68 79 72 89 67 68 60 55 70 53 51 49 45 46 49 40 38
87 96 98 97 99 73 59 69 72 64 64 62 63 70 65 73 70 68 78 75 73 62 76 87 97 95 86 96 84 79 88 81 78 71 63 59 68 50 48 55 48 45 53 37 36
76 80 91 96 98 67 53 66 66 62 65 65 62 65 63 63 65 65 72 75 77 75 97 97 98 88 91 100 89 79 80 78 75 79 64 68 62 53 50 60 49 48 51 38 39
52 58 78 90 80 60 51 66 65 58 67 68 71 73 60 57 62 65 71 75 75 77 93 98 99 97 96 92 77 63 80 77 69 70 66 64 66 57 67 79 71 56 63 55 38
48 59 64 68 65 63 52 60 67 70 67 67 66 64 63 61 61 65 76 74 74 91 94 97 97 78 74 82 90 64 79 79 73 67 70 70 67 60 58 76 73 59 63 58 49
46 61 67 66 68 70 58 61 68 71 71 68 70 66 64 64 58 61 75 71 79 90 96 93 91 59 86 80 100 74 78 84 74 72 66 74 76 68 60 55 64 63 53 48 47
46 62 71 72 80 77 72 63 66 68 88 78 84 73 71 69 67 73 70 73 75 89 92 98 92 70 98 96 96 84 61 65 78 76 78 69 78 70 65 62 55 55 57 56 44
44 63 75 80 83 83 80 77 67 69 90 79 86 84 78 68 74 78 77 77 76 84 83 96 93 87 91 95 96 97 54 61 72 79 76 79 79 66 63 65 59 56 50 48 51
43 64 80 85 89 88 87 83 75 83 81 90 93 89 88 85 83 84 83 76 83 85 83 81 87 76 83 88 91 93 73 74 82 79 93 76 79 68 64 54 52 47 48 44 41
46 68 80 93 90 97 87 81 87 88 70 97 99 100 97 87 83 90 87 92 90 96 96 98 85 87 83 94 89 100 75 94 93 94 86 77 86 62 58 53 45 43 45 44 42
48 70 81 93 98 97 89 83 78 69 88 76 94 100 98 96 89 86 69 94 81 89 94 96 98 83 90 97 100 81 74 85 91 90 87 84 92 59 51 49 40 39 38 35 40
52 67 80 91 98 98 88 92 78 85 76 100 95 100 99 100 99 90 87 90 80 81 95 98 100 80 81 88 98 98 92 64 84 80 82 77 66 47 49 49 49 44 41 40 35
48 72 84 95 98 99 90 84 92 73 87 86 94 92 97 100 100 98 94 79 87 73 69 86 98 87 93 82 93 97 78 88 89 91 84 71 66 48 41 40 43 46 47 40 40
41 75 90 97 99 98 93 89 85 71 78 93 94 99 95 99 100 97 97 80 73 79 68 92 89 98 92 96 98 98 100 88 80 82 78 75 53 48 44 41 42 45 45 47 45
20 85 89 93 93 98 94 76 66 77 86 82 92 88 98 88 94 100 100 100 76 72 91 83 88 96 93 88 83 86 84 76 86 94 87 83 58 40 44 50 52 50 55 57 55
17 67 84 90 95 97 85 84 76 74 75 88 90 88 78 71 96 92 99 76 85 75 84 76 87 96 96 84 89 100 84 77 81 86 92 84 65 45 51 48 54 63 64 63 67
21 74 54 79 80 90 93 87 92 67 78 85 84 86 81 71 66 89 100 83 84 81 77 67 78 76 83 66 81 99 91 79 79 94 90 85 65 51 50 50 45 54 66 68 67
22 93 80 83 75 93 87 85 70 72 65 68 89 97 99 94 71 79 100 98 86 75 70 68 94 71 73 69 83 84 89 91 88 77 80 66 69 49 50 50 45 49 72 74 72
36 51 74 81 81 83 78 77 71 64 72 72 90 81 95 99 100 100 84 100 98 75 75 66 81 69 82 78 75 80 84 88 86 80 79 79 78 54 45 46 48 54 73 73 70
54 58 66 67 68 65 75 66 72 72 64 68 71 82 91 99 99 99 82 72 68 77 75 70 78 77 79 73 68 66 70 87 86 83 73 83 59 52 50 50 44 48 65 67 63

GFSSW_850_rhum_090.txt.gz
RH
98 96 96 93 94 96 95 100 99 90 90 84 76 84 82 76 66 71 77 74 80 74 81 89 76 84 90 83 89 84 73 60 39 37 32 32 34 39 40 36 40 63 59 83 61
95 97 93 95 97 98 98 94 98 99 98 94 84 76 83 84 75 73 70 62 59 72 86 94 94 84 77 69 81 63 66 47 32 31 33 31 36 35 37 36 40 50 61 85 92
97 91 91 91 97 92 87 89 95 98 96 98 78 69 87 89 77 60 62 83 73 86 88 94 89 99 67 69 64 61 47 39 38 43 41 36 37 36 35 34 32 36 53 78 93
98 92 99 96 89 87 84 79 88 98 90 78 70 80 82 79 57 74 74 81 82 91 87 91 92 89 72 62 57 62 47 43 45 53 48 39 35 37 35 30 35 34 48 59 81
99 96 97 96 86 87 84 55 73 68 60 66 84 84 86 76 60 61 60 53 81 86 98 89 92 83 82 59 60 58 43 52 47 54 52 45 43 37 39 40 43 47 46 49 52
99 99 95 96 91 86 83 52 53 64 78 79 80 89 80 52 68 74 69 63 80 76 90 98 88 87 78 66 60 46 46 49 50 50 57 47 41 45 40 50 48 50 51 52 49
99 98 98 91 91 92 66 59 64 66 75 78 68 70 73 62 68 74 71 68 68 77 75 82 95 96 89 81 64 50 52 56 54 43 47 53 48 50 39 52 48 45 45 51 50
89 90 92 99 95 95 54 61 67 70 70 74 65 62 66 70 67 71 72 73 70 59 54 61 82 97 95 85 65 58 51 62 49 50 43 47 49 39 43 46 45 44 43 45 46
80 81 88 99 96 87 50 59 68 70 62 63 62 64 63 68 67 67 72 83 77 70 82 91 90 98 90 95 86 63 58 48 51 52 49 49 41 36 43 46 41 39 41 44 43
74 72 74 90 80 64 48 58 66 62 64 60 61 65 64 62 64 63 68 76 85 88 91 99 99 96 88 100 92 64 50 42 48 56 54 52 42 40 43 45 41 36 37 42 42
50 60 66 77 58 61 51 62 73 71 66 63 66 70 66 66 62 64 69 85 83 76 84 99 100 98 83 83 83 36 41 42 38 49 54 46 43 40 39 44 38 35 41 43 39
39 57 62 62 60 64 57 57 58 62 60 62 68 67 60 60 60 72 72 72 64 72 80 100 93 66 52 70 91 74 41 50 37 57 54 45 48 41 38 41 38 36 33 37 46
37 55 63 64 67 70 67 58 66 66 63 66 73 70 70 64 58 60 74 70 59 69 81 94 62 54 67 96 100 69 43 42 52 59 56 50 56 45 38 42 41 43 42 38 47
39 55 66 71 77 78 72 64 68 64 82 68 75 76 76 74 57 79 69 70 61 78 95 83 84 65 82 85 97 78 37 47 49 55 64 54 48 40 39 42 41 41 44 46 49
40 56 71 77 82 85 82 77 66 65 83 83 80 82 84 67 71 79 79 78 63 56 96 83 91 81 98 77 94 95 55 47 52 50 56 65 63 34 43 43 41 38 39 42 45
41 60 75 81 86 90 85 82 72 86 80 93 88 86 75 72 72 78 78 76 81 82 76 75 89 76 66 83 88 95 67 59 55 61 81 42 54 33 37 36 35 34 36 40 40
42 64 78 88 90 96 84 84 95 84 70 88 97 100 98 90 74 70 68 77 72 87 91 75 81 77 69 97 90 100 80 96 92 84 57 45 59 36 32 36 30 28 31 37 40
44 64 81 94 97 97 92 82 78 68 88 63 83 100 97 96 85 71 71 75 67 69 87 76 85 78 76 77 99 100 95 60 58 55 43 63 61 35 29 28 31 35 34 37 40
50 66 84 99 98 96 97 97 77 92 73 100 89 100 95 100 98 85 83 65 49 60 88 83 94 73 68 85 86 97 98 53 64 61 51 46 45 35 31 35 37 37 36 38 38
44 75 91 100 98 96 91 81 81 65 76 84 99 86 94 100 100 98 88 56 62 44 61 95 98 71 93 85 94 98 86 75 83 76 54 56 45 22 34 32 30 28 32 35 39
39 83 98 100 99 96 98 85 74 60 74 92 87 91 98 97 94 95 96 72 53 51 54 88 91 100 97 95 88 98 99 69 59 69 47 53 38 32 32 32 33 30 36 39 45
31 75 93 99 89 92 68 59 70 62 74 77 86 98 99 90 88 100 100 96 53 54 67 62 93 93 97 76 61 90 69 56 68 81 70 60 39 30 32 36 39 37 50 56 61
24 76 79 84 82 67 56 62 71 53 64 64 89 91 96 100 81 84 100 91 63 60 68 67 88 94 98 92 88 94 81 61 63 73 79 49 38 32 36 38 36 41 50 64 72
20 76 54 72 72 64 77 64 54 47 62 50 93 73 76 96 64 78 100 94 78 66 78 76 70 73 64 57 69 99 78 63 87 85 63 56 42 35 35 35 34 37 53 63 72
19 75 51 52 53 60 70 58 55 60 54 57 56 58 98 91 94 97 99 97 91 87 84 69 86 67 67 64 66 72 75 74 86 67 77 47 53 34 29 33 34 44 58 65 74
32 64 63 64 70 54 54 52 60 62 62 60 67 66 88 95 100 100 100 100 100 90 95 76 81 64 75 64 66 71 69 69 67 62 58 56 53 39 37 37 38 38 58 65 70
43 51 56 63 53 50 59 60 62 64 56 60 62 75 81 93 81 84 92 99 79 91 74 68 71 70 77 64 58 58 52 67 68 66 58 71 48 40 40 40 40 40 53 63 64

GFSSW_850_rhum_093.txt.gz
RH
99 99 87 92 90 89 99 88 90 90 96 99 94 91 73 69 76 86 72 64 80 88 87 80 80 76 74 68 67 77 94 62 37 28 22 23 22 24 25 30 32 49 49 66 77
99 99 92 92 92 94 92 86 87 87 96 92 91 80 69 82 91 74 70 66 62 78 93 80 67 72 78 62 68 65 78 54 30 22 22 24 26 29 30 29 35 43 72 74 85
99 98 98 98 96 87 93 86 77 86 89 92 83 66 74 90 74 57 74 64 68 76 83 89 87 85 73 56 58 54 56 41 30 27 44 33 30 31 30 28 28 34 62 85 94
99 99 99 97 96 86 90 84 53 99 76 61 61 75 79 90 61 61 59 69 50 86 88 87 80 77 71 68 44 54 41 34 34 60 48 40 42 29 30 28 28 30 46 71 82
98 99 99 92 93 88 89 66 74 57 63 64 76 78 88 69 53 69 53 53 60 79 94 92 78 72 71 58 44 43 36 33 38 55 60 49 39 33 29 31 31 31 43 50 64
98 99 98 98 97 94 91 54 57 60 70 73 74 81 78 53 62 77 72 70 66 69 86 86 84 74 72 70 59 36 39 38 35 58 53 45 37 31 33 30 35 36 42 40 50
98 99 98 98 98 98 88 56 64 64 73 70 70 86 68 52 64 76 76 77 73 74 73 81 90 95 70 74 63 54 49 41 41 36 51 41 40 35 32 35 38 36 36 41 44
86 92 96 98 98 98 86 55 64 67 68 66 62 81 56 58 72 70 76 70 75 74 74 89 84 100 78 78 60 60 56 51 40 36 34 43 45 29 32 32 39 34 34 41 43
76 89 90 93 98 93 70 50 66 62 56 60 75 77 50 60 71 67 73 68 72 76 88 84 96 97 94 94 92 75 93 46 39 42 34 44 41 22 30 34 36 34 33 33 37
54 69 71 81 90 65 56 49 69 61 70 80 78 71 60 54 63 68 75 75 70 70 83 87 86 93 97 100 92 85 70 39 36 44 40 42 39 25 30 32 32 31 30 32 34
42 52 57 67 67 65 60 77 75 71 72 54 54 50 55 58 67 69 71 72 67 63 74 93 100 99 94 86 55 73 46 34 27 33 40 43 37 29 33 34 33 29 28 29 32
36 46 58 65 67 67 66 70 74 72 54 61 65 68 65 68 53 59 73 62 53 58 71 97 97 58 61 64 90 95 68 40 25 36 41 42 40 30 31 33 32 29 26 27 30
35 46 60 67 72 82 80 72 58 65 59 55 61 60 60 69 51 50 66 53 45 49 63 82 62 49 60 94 100 91 63 44 32 45 44 45 44 36 30 30 32 31 28 27 26
36 47 62 70 91 88 93 71 63 64 87 62 65 69 71 66 53 56 64 58 47 59 86 76 61 62 77 96 84 86 42 44 36 53 54 42 53 35 32 32 29 32 30 31 29
36 44 63 77 88 95 85 79 66 80 87 72 71 81 81 64 61 66 77 64 55 57 68 93 75 62 73 74 72 94 74 41 47 48 44 49 48 29 27 34 32 30 29 30 32
33 48 64 87 97 91 82 80 81 92 90 88 75 83 92 93 57 62 64 69 61 55 70 93 94 72 69 60 63 86 71 75 52 56 84 43 41 26 33 29 27 26 27 28 32
27 53 69 90 96 93 83 95 93 85 63 83 77 98 100 100 79 55 54 64 69 86 88 83 98 84 82 99 96 98 86 96 94 93 54 31 45 29 25 25 23 25 26 27 30
31 56 76 97 97 94 91 87 92 55 92 51 61 93 99 100 97 60 58 69 56 52 68 71 92 94 78 84 100 100 98 84 73 70 47 42 43 31 21 21 27 28 26 26 30
34 60 98 99 98 86 87 89 75 92 50 96 68 99 99 99 98 79 82 60 39 46 85 68 89 84 68 72 78 100 95 58 58 34 42 40 30 28 27 28 30 29 30 32 33
47 94 99 99 97 97 79 67 51 50 64 66 92 66 85 100 99 99 78 49 41 34 50 97 90 62 80 71 82 97 95 75 79 64 54 40 27 30 32 30 28 28 30 31 31
54 71 93 98 93 79 84 60 53 57 59 61 57 72 87 100 92 97 81 58 39 35 43 75 88 100 84 77 92 99 100 81 57 64 43 51 33 27 30 29 28 27 28 28 31
57 68 64 80 78 66 56 47 56 43 49 60 84 96 99 100 91 100 95 75 42 37 57 79 92 93 98 72 52 66 74 54 68 64 60 62 41 27 31 32 32 31 41 43 45
39 75 53 73 66 60 41 47 40 42 53 45 75 75 57 99 96 97 100 84 56 45 76 79 87 95 99 91 86 86 76 72 52 76 74 59 42 26 32 32 31 32 39 48 54
40 79 54 51 50 47 55 53 46 44 46 50 52 55 59 64 82 94 100 86 60 56 84 78 95 97 76 66 64 95 76 55 85 77 46 46 38 33 31 32 28 33 38 48 57
33 66 44 40 42 42 46 47 50 54 47 45 47 52 98 77 59 80 100 98 84 84 84 85 99 61 56 55 56 70 68 61 91 61 71 44 43 29 26 29 29 32 42 49 56
40 56 49 41 49 41 41 44 53 56 53 50 57 59 73 81 92 95 94 100 100 90 96 69 81 59 70 57 57 65 58 60 59 55 51 49 49 34 33 33 32 31 40 48 56
28 33 50 45 41 41 46 50 55 55 50 52 58 60 72 71 64 69 75 82 93 95 82 61 60 64 74 56 52 66 58 59 58 54 53 65 48 37 37 33 37 36 40 45 52

GFSSW_850_rhum_096.txt.gz
RH
100 98 99 94 93 95 89 93 93 89 71 92 97 93 82 75 68 75 85 76 78 84 93 80 77 70 75 77 73 76 98 84 64 41 30 21 24 22 21 29 34 53 61 84 81
100 99 98 99 99 98 87 95 89 71 47 90 92 89 72 65 85 85 76 68 65 62 69 84 85 68 70 72 72 76 91 72 48 35 28 31 23 23 28 32 42 67 69 80 85
99 99 98 97 99 98 91 92 91 45 69 81 61 57 65 74 90 68 73 66 59 52 83 76 89 78 64 76 69 66 76 57 48 37 52 51 33 23 28 37 38 60 74 86 86
88 98 97 99 92 97 90 91 66 96 50 58 54 68 71 86 67 58 57 52 61 49 90 75 86 81 79 78 64 68 52 48 45 68 78 59 53 51 31 28 32 48 75 91 91
87 99 98 98 98 98 95 88 76 51 56 62 66 75 80 82 60 68 59 57 43 67 84 87 84 74 76 55 61 57 44 40 42 55 66 62 53 51 54 34 28 42 66 78 85
78 94 87 99 98 96 99 83 56 57 59 65 69 78 85 62 59 71 71 67 65 64 71 80 85 95 60 62 68 58 49 40 40 55 67 62 56 51 52 39 33 41 48 59 69
79 87 88 97 98 96 98 76 56 59 66 64 68 79 77 59 58 69 72 70 67 69 77 78 75 91 93 65 70 74 65 46 52 61 73 68 60 72 56 38 34 35 40 41 53
42 58 84 93 98 98 95 64 52 58 60 62 58 81 72 58 52 67 68 63 69 71 73 83 86 78 99 76 65 88 64 80 58 50 59 69 79 49 52 44 38 35 36 39 45
35 41 59 92 95 91 64 53 49 60 56 54 61 83 68 57 63 62 65 61 64 67 81 74 91 94 94 93 95 97 90 77 52 40 39 59 60 38 35 34 40 38 34 38 42
26 35 50 70 80 63 60 53 52 56 65 79 77 71 72 55 60 62 66 70 64 62 71 77 83 96 98 100 96 90 96 60 49 39 46 42 43 32 27 30 31 35 33 32 40
24 34 48 60 70 64 64 82 83 88 75 60 56 52 52 55 63 63 62 63 62 58 72 94 95 97 89 91 84 75 62 56 40 35 42 50 46 37 29 29 31 33 33 30 31
28 35 50 59 69 68 76 76 80 78 67 55 57 59 59 63 52 52 62 58 54 72 83 87 93 58 68 80 96 99 94 56 45 38 44 50 51 36 32 34 32 31 30 29 28
32 37 52 67 77 86 87 76 63 65 73 53 58 57 64 64 53 47 62 53 50 56 59 85 63 56 65 84 100 92 91 67 75 45 50 44 55 44 31 32 32 33 30 27 27
34 41 59 70 95 88 89 84 62 57 81 67 63 68 78 66 55 50 57 59 49 61 66 79 54 70 67 93 92 85 63 65 52 63 100 65 89 76 54 37 37 33 31 29 27
26 43 64 81 97 91 86 78 64 84 94 68 68 75 89 83 61 63 64 66 64 59 65 90 81 66 97 97 75 80 81 72 79 62 55 65 66 63 46 39 35 33 31 30 29
20 52 67 97 97 87 77 75 86 97 89 84 66 76 97 99 82 63 64 67 60 58 63 90 88 85 70 72 71 82 77 74 82 85 98 74 55 40 36 35 35 30 29 31 30
29 57 71 96 93 87 92 90 98 91 63 72 63 88 100 100 88 56 56 66 79 85 97 99 95 83 80 98 91 98 99 99 98 98 88 58 56 40 28 27 29 29 30 30 28
38 59 79 93 92 89 91 94 84 62 80 47 54 86 100 100 98 64 56 79 63 59 89 86 98 89 88 90 99 99 100 98 86 90 62 46 89 44 27 26 26 27 26 27 27
45 88 98 94 89 96 89 95 74 78 60 82 69 98 96 100 98 92 82 74 43 51 97 81 98 76 83 84 82 100 100 90 99 52 74 49 30 27 33 35 29 29 29 30 30
70 98 84 80 76 88 83 64 63 56 53 54 82 56 91 99 96 99 90 55 37 37 54 88 93 71 77 67 82 97 94 97 99 96 91 50 42 40 38 35 35 33 31 31 31
62 82 79 62 75 81 94 62 53 46 48 80 72 83 79 99 96 93 85 55 35 34 43 68 85 99 75 77 87 98 93 95 79 77 83 70 50 33 40 36 34 31 30 31 31
71 92 54 74 89 76 79 46 44 40 46 51 80 89 74 88 98 100 90 70 39 34 55 85 98 96 87 62 55 65 71 73 96 73 93 88 57 38 39 36 34 38 38 35 32
49 76 44 65 87 81 43 44 38 43 49 48 63 54 56 88 99 94 99 75 64 42 95 85 96 99 99 95 81 83 72 72 72 85 82 94 57 37 36 34 32 36 44 48 47
47 91 57 55 45 47 61 51 46 44 43 43 45 52 71 64 68 94 100 82 69 71 81 82 95 99 98 75 79 94 75 68 90 93 61 95 48 37 38 36 37 35 42 51 57
47 79 55 65 51 40 41 44 49 54 44 42 48 59 91 80 71 84 93 96 74 81 78 81 100 97 58 55 63 75 82 72 83 72 79 55 46 40 37 34 32 34 41 51 58
44 49 38 38 44 44 46 50 52 55 50 48 57 59 72 81 85 92 85 90 98 78 86 80 96 63 82 55 58 70 66 64 66 62 58 55 57 38 36 35 36 34 41 47 56
26 35 38 43 42 44 52 50 52 52 48 49 55 62 67 66 64 63 70 74 82 90 88 70 93 78 91 56 54 78 64 65 60 54 56 70 53 49 48 42 38 40 41 44 51

GFSSW_850_rhum_099.txt.gz
RH
92 94 98 98 99 99 97 87 96 91 76 64 91 93 87 79 76 66 69 74 85 85 81 78 80 73 67 72 72 81 96 93 66 58 47 30 27 22 26 34 48 61 70 60 78
80 89 95 96 99 99 95 87 92 91 61 98 83 65 55 60 60 70 70 93 92 82 70 76 73 83 70 74 64 83 94 83 66 54 55 58 34 26 39 57 73 73 74 76 78
72 86 90 98 99 91 98 89 93 75 91 56 54 49 63 73 82 83 88 78 71 63 54 65 68 78 76 69 70 72 86 64 68 59 65 62 46 42 44 53 69 81 86 87 79
90 90 90 90 99 98 98 91 87 95 49 54 57 64 67 85 79 65 60 47 47 53 64 81 82 89 79 79 70 89 64 66 53 79 77 65 59 58 53 45 49 59 65 85 86
62 76 75 62 92 97 97 96 72 86 57 60 64 67 76 89 72 69 59 55 56 64 69 76 83 82 87 72 70 82 68 57 53 83 86 74 70 70 70 50 61 63 51 83 86
64 70 65 74 88 93 96 97 70 58 62 64 66 70 80 88 61 67 60 65 67 66 69 77 80 87 88 66 70 75 69 60 49 83 81 77 74 73 56 51 64 54 47 59 84
79 50 45 63 86 85 98 94 64 56 64 60 64 70 78 74 59 59 65 67 60 64 71 80 86 89 96 68 65 77 82 58 69 81 86 71 82 77 73 60 57 65 50 56 60
68 47 36 53 84 92 89 60 60 53 58 61 57 65 78 66 53 62 63 61 69 64 60 68 78 80 92 96 75 83 85 82 65 65 72 66 84 69 75 78 78 62 59 59 56
50 50 34 47 56 92 60 58 50 52 59 54 57 86 71 67 61 63 64 62 62 64 68 81 85 94 95 99 96 96 100 90 65 55 84 72 78 70 66 86 86 67 43 59 54
40 32 33 50 57 66 61 65 64 63 74 61 75 74 66 60 60 59 60 61 65 62 70 76 81 88 98 100 94 96 97 76 71 56 77 84 66 49 79 80 81 54 48 50 46
30 35 36 52 59 65 70 72 79 84 77 68 61 56 53 59 58 56 63 63 64 60 81 90 96 97 96 90 100 78 90 89 51 43 67 79 66 57 55 76 80 63 45 39 43
30 35 41 54 66 73 79 82 77 72 67 54 61 57 59 60 61 54 60 62 57 79 92 89 94 65 76 76 92 100 94 74 55 40 44 54 57 45 37 36 44 50 42 33 38
32 36 48 64 79 82 89 84 70 63 87 59 59 58 65 67 62 54 59 59 63 71 68 86 66 53 70 86 94 96 99 74 61 50 51 54 62 57 41 34 35 34 33 33 31
31 35 59 64 84 88 87 90 62 60 78 68 64 70 72 82 65 58 62 60 63 74 71 84 74 60 74 91 95 99 93 74 65 78 82 75 88 65 53 43 41 35 34 31 30
24 41 72 75 76 80 78 77 63 81 92 62 73 72 93 91 88 63 62 62 71 68 75 86 95 77 100 92 82 98 86 77 80 84 76 93 97 69 58 50 48 41 34 33 31
26 54 74 94 97 85 79 73 84 85 90 87 69 78 98 98 92 69 67 64 64 61 72 88 92 89 76 78 85 84 90 90 88 97 96 91 98 50 58 52 45 38 34 32 31
30 63 74 90 90 87 88 89 90 90 59 70 72 91 92 98 87 66 64 80 85 94 98 98 100 86 78 97 91 98 99 98 98 98 92 73 79 54 41 39 39 37 33 32 31
42 64 74 77 84 89 90 90 89 63 80 59 64 89 99 100 95 87 68 87 66 83 97 94 97 91 84 90 98 100 100 97 93 96 76 65 76 58 35 31 31 31 30 30 30
49 66 76 64 71 88 90 91 79 86 61 78 73 93 98 100 99 91 88 85 60 70 99 95 98 88 81 78 86 100 99 97 90 69 81 75 48 31 38 37 34 33 31 30 29
60 96 69 56 72 82 84 72 69 55 52 64 88 64 86 99 99 94 93 65 55 42 62 86 96 74 83 74 86 92 88 97 96 92 86 61 42 44 44 40 37 38 34 32 33
77 97 70 64 72 73 86 71 55 43 50 78 89 86 88 98 100 97 89 61 39 38 43 73 80 96 78 84 90 92 98 95 94 89 86 82 59 45 43 39 39 37 34 32 32
78 95 54 74 69 89 80 49 44 46 46 61 77 84 78 80 100 90 85 83 68 38 86 93 91 85 85 89 65 74 72 83 95 90 97 89 65 42 43 42 42 42 38 36 34
69 70 59 72 81 88 47 48 43 49 52 53 60 64 60 88 100 81 99 79 69 75 94 84 96 95 91 86 78 82 78 75 83 86 95 97 66 41 40 39 39 44 44 43 40
50 88 66 63 44 61 66 57 57 45 46 47 54 68 76 83 78 89 99 85 80 78 87 89 86 98 91 72 82 95 80 77 86 93 98 94 57 46 40 40 40 42 47 49 50
49 80 59 81 62 54 58 48 58 59 47 47 57 79 74 89 76 89 92 93 73 77 78 86 98 93 83 68 73 80 82 81 85 68 82 73 55 47 39 39 37 40 48 53 57
40 43 44 46 42 48 53 53 61 59 54 56 66 63 70 84 87 90 83 98 95 78 85 86 94 75 87 57 66 81 79 78 72 65 64 59 57 48 40 39 39 42 46 55 58
51 33 31 50 50 59 59 56 60 56 51 51 59 66 65 73 71 68 73 73 78 92 84 81 93 90 96 60 60 79 67 72 66 57 58 72 60 51 51 47 46 44 44 48 55

GFSSW_850_rhum_105.txt.gz
RH
63 84 93 93 98 99 99 95 98 84 91 87 99 92 96 91 62 57 55 49 62 73 97 77 66 63 64 75 75 69 90 86 74 67 75 56 46 37 31 28 47 63 63 77 82
79 87 89 94 99 98 99 86 99 92 97 92 99 99 84 60 60 63 71 67 79 88 84 77 60 67 74 82 76 78 89 75 60 54 67 79 64 40 39 47 62 64 69 81 95
54 91 97 99 98 98 99 100 98 98 96 61 58 57 60 70 78 77 79 75 78 84 71 74 66 85 84 79 82 73 82 76 59 60 76 91 88 65 51 48 65 76 87 69 59
50 82 90 96 99 99 99 99 98 99 86 58 63 72 71 82 80 64 70 74 76 75 67 63 80 92 80 86 84 88 69 72 70 67 66 86 94 78 58 62 54 69 40 56 59
27 88 89 91 98 98 99 99 97 98 56 66 82 71 82 88 74 67 65 55 58 65 66 73 80 88 87 81 78 96 64 64 67 61 95 89 92 82 58 54 58 64 52 56 62
40 60 92 89 92 97 99 99 98 92 56 66 87 72 84 93 63 64 61 58 61 55 66 76 76 79 79 85 84 92 71 59 62 72 79 91 89 94 78 56 57 64 57 53 59
25 36 80 91 86 97 98 98 100 74 57 64 78 76 71 50 61 61 60 65 64 66 65 62 73 78 98 86 94 93 94 76 63 66 87 92 89 96 88 62 75 70 67 61 59
24 30 47 88 87 94 97 100 78 57 53 74 74 64 57 67 65 53 59 63 68 68 70 70 79 80 97 97 95 98 83 83 63 67 83 89 99 87 90 67 77 75 72 70 69
25 24 22 47 68 77 95 78 66 51 55 62 62 86 67 65 65 63 61 59 65 62 70 70 75 85 95 98 95 100 96 96 73 70 91 84 97 86 98 83 79 76 70 67 72
25 18 18 29 67 78 67 68 69 68 64 56 77 83 60 64 62 60 59 62 62 64 66 66 74 87 92 100 96 98 92 93 79 82 82 89 84 86 94 95 90 80 67 63 64
26 16 17 32 56 78 69 70 72 81 79 66 70 67 61 59 56 58 60 64 63 69 74 84 88 92 75 98 95 100 98 91 76 74 85 90 77 83 85 85 94 82 68 64 61
27 14 18 41 63 72 73 72 70 63 57 56 57 65 63 63 66 59 59 63 64 83 86 84 89 72 66 85 94 100 98 95 81 68 77 84 81 75 84 80 98 92 73 67 60
27 14 20 44 71 77 77 80 75 58 70 60 60 61 66 72 76 66 62 63 66 76 82 89 68 62 64 100 98 99 90 99 82 86 83 80 92 91 93 88 83 88 77 66 66
28 14 25 54 75 90 94 89 66 66 87 67 67 73 76 80 74 66 68 64 63 78 78 84 74 82 71 100 89 96 78 79 85 89 100 91 99 95 90 89 86 86 76 62 56
26 16 34 64 82 92 73 76 60 74 50 40 75 74 88 83 89 64 64 62 73 72 74 74 91 89 86 80 92 100 79 80 92 99 96 98 86 73 84 86 87 78 74 59 56
27 20 52 70 78 81 74 64 71 76 45 81 78 88 90 82 76 76 67 66 62 71 78 91 87 95 92 80 94 96 93 83 96 100 95 90 80 69 84 63 62 59 66 66 57
26 28 69 72 84 81 69 79 80 66 51 61 79 91 97 91 72 84 71 81 87 92 96 93 99 97 80 93 96 100 84 97 98 97 93 86 77 58 57 48 46 48 47 53 61
23 58 83 76 92 80 86 76 52 63 79 57 77 88 95 93 88 79 81 87 84 98 97 97 99 97 82 89 96 100 100 92 95 97 97 90 82 56 43 39 39 38 39 41 39
42 79 84 84 92 86 86 83 68 81 64 72 69 86 74 96 83 78 96 89 72 84 100 96 97 83 87 89 88 100 98 96 85 78 91 89 71 42 40 43 40 42 38 36 32
49 74 82 87 87 96 80 69 81 70 58 69 83 81 99 95 85 82 92 63 68 70 83 90 93 77 80 79 80 97 93 96 94 82 94 83 60 53 54 48 47 48 44 36 34
56 69 89 89 94 92 83 77 65 48 61 74 88 86 86 90 88 82 87 70 85 63 69 89 76 83 75 84 88 90 95 93 84 89 87 85 60 45 58 53 45 49 40 38 35
78 98 94 94 85 89 87 61 50 50 58 74 74 68 79 85 84 78 98 87 76 78 85 84 82 98 82 70 76 69 74 87 90 90 94 89 75 48 54 55 50 52 49 41 39
78 98 100 100 88 88 54 53 47 55 52 58 60 65 65 83 84 60 88 70 84 77 86 83 87 92 79 78 72 87 79 79 84 86 94 88 77 45 48 50 53 53 50 48 43
45 94 97 98 58 68 68 59 59 49 52 54 67 70 75 84 82 95 98 75 78 82 84 86 96 88 84 67 75 94 87 83 82 93 92 94 75 50 47 46 46 52 54 52 47
52 71 63 84 71 68 59 61 66 60 50 56 71 73 84 88 83 88 93 78 70 77 78 86 99 100 84 74 80 78 81 84 86 86 90 89 74 55 52 48 45 44 54 55 56
54 66 53 61 61 67 58 63 65 62 58 61 75 65 68 84 88 88 80 88 92 79 79 83 92 90 85 68 78 86 80 81 78 87 85 82 75 54 50 50 51 50 50 53 57
44 37 32 60 63 63 70 67 65 62 56 56 66 75 78 74 71 70 72 77 78 86 86 82 89 92 83 68 67 81 69 81 75 64 80 80 66 51 52 54 58 55 51 50 51

GFSSW_850_rhum_108.txt.gz
RH
59 65 72 98 98 95 98 99 86 99 94 100 96 100 98 98 68 55 47 46 48 64 84 88 73 68 62 68 79 76 89 85 78 74 62 53 71 62 51 44 40 61 68 64 97
67 63 86 97 95 95 98 98 98 98 99 98 86 86 99 62 59 53 67 57 83 86 99 84 71 62 65 86 78 82 91 72 59 59 60 50 66 83 73 48 42 64 63 81 98
96 81 86 92 98 98 96 95 97 96 99 99 78 72 64 67 75 71 72 80 89 86 79 69 74 77 82 81 84 84 84 59 59 64 57 57 66 75 88 76 51 70 66 99 98
84 76 78 93 96 98 97 97 97 96 99 65 92 67 67 77 68 65 72 74 77 59 67 71 76 86 78 79 81 94 74 66 60 70 70 74 66 77 90 85 53 58 55 91 99
33 81 86 92 95 99 93 96 97 98 97 60 87 70 78 89 70 69 64 54 57 59 69 72 80 91 84 85 81 91 76 78 70 62 65 74 80 88 83 75 76 55 55 62 99
39 72 81 75 92 99 97 97 98 98 95 62 77 76 84 97 64 64 62 59 64 62 63 65 76 79 86 82 88 83 82 85 77 68 63 70 76 87 81 81 78 76 54 52 60
44 36 91 84 90 92 98 98 98 99 74 60 70 76 77 55 62 60 64 61 63 68 69 69 73 81 80 80 100 91 94 85 78 60 69 82 89 82 77 88 92 66 53 49 57
45 46 93 88 50 58 97 97 99 71 56 60 82 67 52 62 68 57 54 61 65 68 70 70 76 86 82 91 96 99 93 97 81 58 68 78 84 72 94 90 96 87 60 55 59
55 54 37 94 56 57 82 96 73 62 53 64 68 81 65 63 62 63 62 61 62 63 68 68 72 84 93 91 99 98 98 96 77 52 56 85 77 69 85 94 95 92 85 74 62
79 55 39 79 65 53 57 65 68 71 60 58 73 82 59 64 64 62 62 62 65 66 65 69 70 89 88 99 94 96 98 95 82 65 57 86 82 84 95 96 92 94 85 83 80
99 80 49 48 71 49 65 65 77 77 76 65 66 68 62 61 60 61 61 63 65 70 70 84 91 92 82 76 99 95 96 98 74 72 71 84 78 72 84 95 87 93 90 81 79
100 64 76 34 91 62 62 70 64 59 60 57 64 67 63 65 69 64 60 66 65 83 86 85 93 66 71 70 96 96 94 95 80 77 70 89 91 90 86 88 91 94 92 82 75
99 80 71 29 91 76 66 71 72 58 68 62 61 63 66 74 78 67 64 66 69 78 84 93 70 67 75 82 99 91 98 96 86 84 86 90 96 96 91 91 92 82 88 78 72
98 99 60 36 78 78 78 80 72 61 84 62 69 73 72 83 74 66 67 67 65 79 79 88 71 82 82 95 98 99 90 94 80 92 100 96 98 96 94 93 90 89 91 77 72
98 83 76 74 81 79 67 76 58 68 76 38 77 75 86 80 83 70 69 64 76 72 77 78 92 85 95 93 97 100 86 89 96 96 100 96 83 99 86 91 85 84 86 75 65
87 79 98 94 85 73 67 61 62 75 50 84 79 92 80 77 75 76 68 68 66 78 78 87 82 87 92 96 97 96 93 86 88 90 95 99 73 86 93 81 76 73 86 70 64
92 72 99 93 73 71 62 66 78 75 54 67 79 90 84 78 74 83 86 80 97 94 96 91 96 98 97 99 96 100 88 98 94 95 96 87 77 57 74 64 64 59 71 69 65
86 64 100 99 81 67 67 75 79 56 76 56 82 87 94 89 85 80 87 88 93 98 97 97 97 98 81 92 99 99 90 92 92 94 92 82 83 59 45 49 54 50 54 70 62
93 82 100 100 82 73 72 85 60 78 68 73 70 88 76 92 74 85 96 92 73 91 99 96 98 86 79 83 94 100 94 92 84 76 92 92 64 40 46 46 44 46 48 54 53
88 100 100 100 91 87 79 65 80 68 60 69 85 76 94 93 75 72 88 72 92 67 81 92 89 73 77 82 92 99 95 94 92 84 90 84 63 65 60 56 53 50 47 44 46
88 90 100 100 96 92 87 76 71 51 66 75 86 86 83 79 80 86 89 73 88 85 70 88 74 74 72 87 93 92 96 90 83 89 92 88 70 49 62 60 57 60 49 44 41
82 98 100 100 93 91 89 67 52 55 68 72 74 75 65 80 82 87 96 88 76 86 84 85 82 98 83 68 80 73 78 90 90 89 94 90 80 50 58 63 58 60 57 48 43
95 100 100 100 91 91 58 56 49 56 55 63 66 64 67 73 78 71 95 70 86 86 94 89 89 91 72 64 68 86 85 85 82 86 93 88 76 50 52 55 62 60 53 51 45
62 98 100 100 87 67 68 60 61 51 53 62 73 70 72 79 85 91 97 72 78 80 83 82 90 86 95 86 76 90 85 90 82 93 95 92 67 60 55 54 51 58 56 51 49
45 87 87 97 81 72 58 62 65 61 52 62 74 74 85 94 88 88 96 72 69 70 74 85 96 88 83 75 80 83 83 86 92 87 83 78 70 58 58 58 57 57 58 54 53
52 73 58 65 68 67 61 66 63 62 60 60 73 74 75 85 82 90 72 80 92 76 83 81 92 89 83 71 79 91 87 83 83 84 84 78 74 56 53 53 55 55 53 56 60
47 45 35 65 66 66 70 70 63 62 57 56 70 79 78 75 68 70 72 77 78 82 85 83 88 90 80 68 73 81 69 81 76 69 77 72 64 54 60 62 68 62 56 55 60

GFSSW_850_rhum_111.txt.gz
RH
35 28 91 99 98 92 96 92 95 93 94 99 98 97 98 98 73 54 43 45 47 52 55 90 81 73 66 66 78 80 84 76 68 77 64 47 44 54 55 56 51 49 53 53 45
37 30 83 100 99 95 95 93 93 90 93 98 97 84 81 55 51 49 59 58 70 85 94 88 84 69 62 78 77 82 85 67 48 48 56 52 51 52 55 58 65 62 46 52 86
38 39 63 70 94 97 96 96 92 93 94 98 75 78 90 58 58 72 73 90 91 87 81 75 70 69 83 80 87 85 82 53 53 50 61 66 59 51 70 71 72 64 75 70 67
76 38 35 65 95 91 97 95 97 90 94 95 67 82 66 65 54 65 86 75 71 61 60 73 71 85 68 79 78 93 77 70 55 56 61 63 69 66 58 63 49 66 74 73 98
97 55 38 58 86 97 97 93 97 93 96 82 68 80 68 74 57 68 66 54 51 54 62 71 78 88 87 72 80 84 72 72 71 74 65 64 68 67 68 67 56 60 59 71 72
100 99 48 68 57 93 98 99 96 94 98 83 65 78 72 82 62 67 63 56 63 65 64 66 72 80 85 87 84 80 83 74 77 74 74 63 58 75 77 79 76 63 70 72 69
100 100 60 88 93 90 99 99 98 98 95 65 71 75 72 50 55 60 63 59 64 64 68 70 72 77 79 76 85 94 100 92 74 77 71 66 69 66 70 75 82 74 67 71 70
100 97 94 88 92 85 98 98 98 98 67 57 83 75 49 56 66 63 55 59 61 66 70 71 72 83 86 83 79 94 89 86 60 70 67 68 74 59 68 79 83 72 72 83 66
100 100 98 50 99 83 98 98 99 77 54 65 76 65 59 65 61 64 62 64 62 63 68 74 77 83 91 78 80 85 89 74 62 66 64 72 68 69 78 93 80 68 85 100 88
100 100 100 76 86 81 99 99 80 74 61 62 68 78 57 63 62 63 63 63 66 67 70 73 71 87 89 88 92 94 96 84 79 70 64 79 66 86 93 85 82 93 93 92 99
100 100 93 68 84 96 98 87 86 81 72 59 63 65 62 63 62 63 64 62 69 71 80 85 90 91 73 78 83 91 95 94 73 62 75 83 64 67 90 92 91 90 86 79 97
100 100 92 86 76 99 94 84 63 56 62 63 67 66 67 66 70 67 64 66 66 81 84 83 95 70 66 72 82 90 97 87 71 64 73 68 68 69 89 85 90 94 91 68 91
100 99 98 72 75 99 89 79 69 54 65 65 61 65 69 74 79 70 65 68 72 82 84 92 71 68 75 87 92 91 97 93 85 77 74 76 98 96 87 88 94 98 88 73 96
100 96 89 68 83 95 91 76 70 60 82 66 70 75 78 82 73 69 69 70 68 79 80 89 73 79 83 95 91 97 94 100 79 99 99 96 99 95 91 88 90 91 86 88 98
96 99 90 70 86 100 82 81 60 64 71 41 82 81 77 75 78 73 70 67 78 74 77 76 77 84 85 94 98 100 100 98 88 100 100 97 84 100 85 92 87 85 92 95 89
100 92 83 65 89 93 77 67 64 77 62 88 83 93 77 76 76 76 70 71 70 81 83 84 70 86 94 97 98 97 96 95 84 91 97 98 75 87 93 83 77 80 92 96 75
100 98 88 59 89 89 71 66 84 79 58 72 92 77 87 85 74 80 89 82 95 94 94 92 98 98 98 99 88 100 85 91 90 94 96 95 74 64 69 69 66 74 95 79 70
100 95 82 67 81 81 71 76 76 52 75 64 90 78 99 90 82 77 84 90 88 97 98 97 97 94 88 99 100 100 86 92 87 92 92 71 86 62 48 47 56 63 71 75 72
100 96 79 83 90 80 74 88 63 75 68 82 75 90 86 91 74 79 96 92 76 90 99 98 89 77 82 97 99 99 92 96 85 76 81 84 56 45 44 47 50 51 71 78 71
99 94 98 99 89 88 82 73 77 62 64 66 88 81 94 85 76 84 89 74 96 70 80 93 87 65 76 90 86 90 88 91 90 85 91 73 71 72 61 62 58 54 63 84 73
97 97 100 100 97 89 94 78 73 59 70 74 86 87 76 89 77 96 88 75 86 89 76 91 75 71 72 91 98 91 93 85 83 84 82 78 93 53 63 65 68 66 54 72 71
93 98 100 99 97 93 90 66 57 60 72 72 72 75 67 84 77 94 91 87 76 89 91 86 82 96 85 73 84 75 86 90 86 88 90 84 88 52 58 67 67 72 62 59 72
98 99 100 99 98 94 65 59 51 58 60 65 71 67 66 71 79 76 97 68 83 90 88 88 89 87 70 60 65 84 83 87 81 84 96 88 77 50 52 53 66 72 68 61 60
77 99 100 100 93 68 69 62 64 53 55 63 74 70 71 75 87 85 97 70 77 77 78 76 90 88 95 88 84 90 83 88 83 87 89 87 68 64 63 62 62 67 64 65 64
65 98 94 96 97 73 60 62 66 63 55 68 75 75 87 96 88 86 93 73 63 68 75 80 88 96 80 79 81 87 88 87 95 87 83 77 73 69 66 66 66 60 55 57 64
71 86 86 75 84 74 66 69 64 62 63 65 75 78 78 86 78 86 72 79 93 78 81 82 91 84 81 82 79 81 83 82 83 80 83 76 77 60 59 60 64 67 57 60 65
69 57 44 70 73 68 74 72 62 63 60 58 71 80 76 75 70 72 73 77 79 83 86 87 87 84 82 69 74 80 70 80 75 78 71 82 69 61 69 74 77 66 66 65 59

GFSSW_850_rhum_114.txt.gz
RH
88 50 51 65 72 51 88 89 90 91 89 95 94 81 70 54 59 64 59 55 52 49 60 90 84 79 76 67 70 61 66 62 46 38 35 31 30 32 32 39 43 44 47 44 50
99 83 56 68 80 50 89 89 89 90 92 93 94 82 85 57 49 50 51 60 54 82 95 94 85 73 65 64 66 58 58 48 33 29 31 30 42 40 40 31 39 51 48 55 69
100 100 92 84 88 90 76 96 94 94 92 94 94 79 58 56 64 73 76 90 91 90 91 80 70 74 62 61 60 54 60 36 34 35 37 37 40 43 45 49 39 41 46 62 72
100 100 100 64 57 62 86 91 90 90 92 92 83 77 63 59 39 73 90 78 80 73 62 78 73 63 56 57 52 59 45 44 43 41 42 43 42 42 45 44 43 43 46 62 64
99 100 99 95 90 71 69 92 92 93 94 95 69 76 68 80 58 66 68 57 48 50 67 71 67 60 56 46 51 54 44 43 45 52 53 51 45 44 44 47 54 50 53 57 62
91 100 98 95 66 44 79 94 93 94 93 94 74 79 75 58 58 68 64 60 63 65 67 73 62 65 61 55 54 45 52 55 54 54 58 55 49 45 46 50 62 65 62 62 58
87 100 99 100 97 89 64 90 91 93 95 91 77 80 69 58 57 59 62 63 61 67 66 71 73 72 58 50 50 56 64 55 50 54 59 56 62 54 38 44 60 69 62 53 56
98 100 100 99 79 59 90 90 96 95 94 68 83 85 62 56 56 67 62 57 61 65 71 77 73 76 71 60 58 57 57 70 31 38 49 61 70 41 38 37 49 64 64 55 52
92 95 100 98 77 54 74 92 97 95 79 72 84 69 56 62 63 65 62 62 65 65 68 81 78 67 65 71 73 68 76 45 36 30 42 60 62 41 46 41 43 56 60 68 56
71 97 100 100 95 73 57 96 91 83 74 76 70 75 56 64 62 62 64 63 65 69 70 72 68 65 67 79 74 58 71 56 51 41 56 56 55 48 63 67 68 64 67 70 65
65 93 100 100 86 52 55 86 87 87 77 64 63 66 63 64 62 65 64 68 69 66 66 72 76 70 49 48 63 69 78 75 50 42 51 80 55 48 69 72 67 72 72 76 66
65 84 100 98 85 65 85 81 71 62 64 69 70 66 66 66 68 69 63 60 60 62 66 73 73 43 49 53 59 68 72 72 52 43 51 60 64 43 52 65 67 72 72 75 71
76 100 100 91 67 64 79 77 74 60 61 67 61 67 72 74 72 69 67 64 57 60 61 74 47 46 57 64 75 70 84 73 75 74 56 61 69 56 75 74 73 70 69 80 65
100 99 96 96 79 67 75 79 75 65 81 65 67 74 82 85 64 71 71 67 60 64 58 62 51 61 61 71 84 91 85 99 98 98 97 56 85 83 79 85 75 72 76 83 74
96 99 93 80 61 79 74 84 72 64 69 59 76 79 79 68 71 67 70 70 63 56 64 63 56 62 76 72 100 97 99 100 99 99 100 87 86 100 93 91 76 65 71 72 84
94 100 95 88 69 81 78 78 64 76 67 83 77 78 70 67 69 71 69 72 69 68 66 72 60 68 73 72 94 97 100 100 100 100 96 85 71 99 95 71 65 59 70 80 91
89 100 98 87 70 85 75 69 88 74 50 79 85 71 82 78 62 63 67 67 81 92 90 72 87 82 96 97 78 92 93 82 93 93 95 94 62 74 54 64 66 64 74 97 90
76 100 94 84 79 81 70 74 64 46 68 64 75 70 96 77 72 61 66 71 73 86 90 87 80 82 92 99 100 99 93 89 90 91 93 73 86 82 45 44 45 71 78 96 93
100 99 98 98 91 77 74 82 54 64 55 78 79 93 84 76 68 65 82 73 62 66 91 81 80 80 96 98 98 92 89 95 80 63 70 92 65 47 45 49 46 77 88 99 94
100 98 100 99 88 78 74 68 57 54 61 60 84 65 83 82 77 80 78 64 80 70 62 77 86 56 68 88 74 88 95 90 77 75 88 85 89 90 62 63 56 82 90 99 94
100 100 100 99 86 86 89 73 65 64 66 62 65 70 60 72 65 86 79 60 76 76 66 74 67 68 62 84 99 85 83 76 66 66 66 76 93 58 64 65 61 72 93 98 86
100 100 100 99 92 87 82 52 58 56 71 62 62 61 59 63 63 88 81 70 71 84 73 72 69 83 84 61 74 67 77 75 78 71 72 62 91 44 51 61 61 66 94 87 78
99 100 100 99 87 90 58 57 51 56 61 60 64 60 58 63 68 62 96 61 72 79 73 70 73 75 67 67 61 67 65 72 66 70 86 70 86 44 46 53 60 64 73 91 84
98 99 100 100 85 57 60 58 57 56 54 57 61 62 62 61 66 62 92 60 73 69 76 70 69 88 81 79 77 88 69 67 81 73 64 68 62 54 54 53 55 60 70 74 80
99 94 92 96 95 63 55 51 57 56 54 64 64 66 78 72 68 66 77 62 56 67 67 62 88 74 68 67 68 73 71 64 88 65 77 62 64 59 56 54 55 56 63 74 82
75 96 98 78 78 74 57 54 51 55 54 59 62 64 70 73 66 70 62 72 80 57 66 61 80 70 74 56 53 63 63 57 62 58 58 55 64 51 55 53 56 61 63 68 72
75 75 59 78 74 72 52 50 48 51 57 56 58 66 69 63 65 66 68 68 66 70 65 67 66 66 75 59 60 65 72 68 63 62 57 65 62 51 55 61 69 68 68 72 75

GFSSW_850_rhum_117.txt.gz
RH
100 100 99 76 38 66 80 84 91 88 90 90 89 89 74 58 53 80 79 63 64 61 52 72 69 65 62 54 51 49 53 57 45 36 28 21 21 21 21 23 22 22 25 30 39
100 100 100 99 53 50 88 90 86 90 86 92 92 89 70 57 79 72 63 52 50 69 88 74 72 70 62 56 55 50 50 41 28 26 26 22 22 21 22 24 23 23 30 40 43
98 97 100 100 94 53 82 86 92 94 91 90 90 82 69 54 72 53 69 81 80 82 91 82 77 70 60 53 54 51 58 37 32 28 28 28 28 27 26 32 35 24 24 39 47
84 93 100 100 98 67 90 90 89 86 89 88 89 67 68 83 48 74 84 87 83 82 77 67 62 57 48 46 43 49 39 36 34 33 35 36 34 30 29 31 30 35 34 28 37
84 85 99 99 100 89 70 91 92 90 95 89 89 67 71 78 54 76 64 59 62 65 62 61 55 50 48 37 35 37 34 35 34 33 35 36 38 37 34 31 29 32 42 46 43
88 94 92 99 100 80 60 78 85 93 91 90 90 67 86 61 62 71 70 61 55 56 57 57 52 48 48 44 41 37 35 34 33 36 39 39 38 38 37 35 32 33 38 42 48
83 86 98 100 100 92 86 83 87 89 95 94 84 86 86 57 62 68 61 65 60 56 54 57 58 56 44 41 37 37 42 35 33 32 34 37 47 44 38 34 33 34 37 40 49
74 88 97 100 100 87 66 49 77 88 94 93 67 98 68 52 60 55 66 60 61 62 63 60 64 63 55 51 47 48 46 58 31 25 24 33 69 39 35 38 34 32 40 44 48
72 74 95 100 99 80 66 67 60 93 91 72 86 91 53 50 66 64 65 55 58 59 62 62 67 57 48 63 70 47 65 42 32 19 21 31 67 40 36 35 34 32 30 38 48
64 74 86 96 100 92 94 90 91 89 79 90 82 86 62 55 62 62 62 61 58 56 59 62 56 51 52 73 80 54 59 45 39 28 36 60 58 41 33 34 32 31 31 37 48
60 72 73 96 100 95 85 95 93 96 94 73 63 59 55 61 64 63 60 61 59 55 57 55 70 71 59 41 46 49 55 60 40 30 34 36 46 62 37 41 41 37 42 43 54
72 62 65 100 100 97 98 82 67 61 79 84 74 68 68 67 62 63 63 55 49 59 49 62 82 44 34 32 42 46 52 50 39 34 40 44 44 35 38 49 56 53 51 61 57
76 86 88 100 99 93 98 88 62 56 58 72 67 58 66 72 60 57 59 51 48 51 50 62 46 35 39 45 55 54 63 61 60 53 59 66 54 41 39 42 46 56 57 55 56
80 100 95 91 95 97 99 79 69 58 91 67 60 69 76 73 61 62 62 58 50 58 50 52 39 44 46 54 58 93 55 89 89 94 88 48 74 56 42 48 54 50 56 59 58
62 95 100 99 96 98 87 78 74 68 65 57 66 78 75 66 60 57 66 64 63 53 54 60 52 50 58 58 93 89 83 100 100 100 98 72 95 71 43 68 65 59 63 61 63
58 86 100 97 85 82 74 79 72 91 72 74 66 68 66 55 54 58 63 68 60 64 56 62 51 55 63 60 79 92 100 100 100 100 91 68 90 99 99 89 66 66 65 72 82
81 93 100 100 95 82 76 74 97 81 48 80 74 66 70 65 55 53 55 61 73 91 95 67 74 64 85 99 70 87 98 97 97 97 81 94 92 100 88 72 76 77 86 94 92
81 87 100 94 74 80 74 84 84 48 64 54 62 58 90 61 64 50 57 63 59 76 83 86 92 85 95 99 100 98 94 97 95 92 80 52 87 99 72 55 73 78 94 97 90
98 98 100 91 89 74 72 98 51 70 46 67 65 96 70 61 63 54 76 60 52 60 90 82 83 62 75 96 97 86 88 83 96 94 77 94 97 85 62 69 78 85 96 98 83
99 99 98 99 96 82 72 70 48 42 51 55 84 58 73 74 71 79 62 52 61 64 60 74 88 52 58 80 83 94 86 89 87 93 91 91 89 96 90 89 87 87 97 100 93
98 99 100 99 85 72 90 61 56 50 50 51 49 55 49 62 58 74 61 51 63 66 60 69 76 87 74 97 100 92 81 70 65 60 93 83 94 94 77 76 89 88 100 100 99
99 100 100 92 87 72 74 42 51 49 61 52 52 52 50 48 52 82 80 58 62 70 71 59 70 93 75 51 56 68 70 66 93 67 69 61 96 59 59 71 81 89 100 98 100
99 100 100 99 85 83 50 51 46 50 53 53 55 52 47 52 62 57 90 50 57 66 80 64 70 95 75 52 50 68 54 57 57 66 71 71 94 45 48 60 73 93 99 96 99
98 100 99 99 80 53 50 49 53 52 50 48 51 51 50 51 49 58 91 49 60 59 72 70 64 84 80 74 73 87 54 59 87 77 75 85 78 55 52 54 57 66 75 86 92
98 89 91 97 75 49 43 42 48 52 48 51 55 56 66 60 52 54 73 56 48 53 55 55 77 58 54 58 53 56 56 51 69 54 79 65 66 59 52 51 53 55 60 67 76
82 83 86 69 63 56 47 43 43 47 47 51 58 52 58 62 62 58 54 66 70 49 53 49 67 60 62 48 49 65 58 55 54 50 53 55 64 49 50 52 55 57 61 65 69
86 77 59 68 63 59 43 39 40 43 51 50 45 57 60 55 53 51 52 53 56 59 57 56 56 60 66 51 50 57 71 62 58 55 52 68 57 44 54 60 63 61 61 68 70

GFSSW_850_rhum_120.txt.gz
RH
92 97 100 99 99 76 43 46 76 86 84 88 88 92 79 55 45 53 88 72 65 71 53 72 66 61 57 53 49 45 63 67 52 43 36 26 25 21 20 20 20 20 21 20 24
71 92 100 100 99 98 54 47 86 79 86 87 91 92 79 55 45 81 64 60 55 48 45 71 65 60 64 56 50 52 63 56 37 31 31 27 26 25 23 22 20 20 20 21 23
84 95 99 99 100 98 92 56 84 82 86 90 92 88 62 50 83 61 62 53 45 52 86 86 78 72 64 59 53 52 66 49 42 37 35 34 33 29 28 33 26 24 28 27 24
99 96 91 96 100 98 95 64 76 84 78 90 91 84 63 59 56 84 57 91 80 90 91 82 69 66 56 54 48 56 45 44 42 36 35 37 33 36 35 32 28 28 30 30 33
85 92 85 75 94 99 98 96 80 87 85 98 92 82 69 81 57 67 52 56 60 67 67 62 57 53 55 45 38 39 35 33 32 32 34 34 35 37 36 34 33 32 30 29 32
87 84 86 89 83 100 99 80 88 85 91 85 87 80 80 60 63 69 67 59 55 56 54 54 51 48 48 47 47 41 38 36 34 35 34 35 38 38 37 35 35 35 34 32 30
52 84 86 87 100 100 96 92 83 83 94 91 85 68 86 60 58 67 67 63 58 55 52 53 55 54 49 49 40 38 46 40 36 32 34 32 41 42 36 36 36 36 34 33 32
52 78 70 92 98 100 99 85 94 82 89 93 73 96 78 59 62 60 63 62 61 58 60 60 60 61 58 51 48 55 54 68 41 33 29 34 57 37 33 35 36 35 35 33 32
53 68 74 79 91 100 94 83 90 95 95 76 81 92 59 58 50 63 65 61 54 58 59 58 56 57 56 67 78 65 82 62 46 29 26 28 41 34 27 33 37 37 36 34 31
77 52 66 72 96 100 96 94 96 97 84 97 88 82 72 62 60 61 61 59 56 55 58 61 55 64 64 80 92 77 75 57 52 35 33 37 36 41 44 40 44 43 37 34 32
83 51 76 58 81 100 98 96 99 96 96 77 72 63 56 59 62 62 58 60 59 51 67 51 80 93 68 56 58 64 69 71 46 33 35 38 38 34 34 38 50 48 38 34 32
82 55 81 54 67 100 97 80 68 74 83 86 70 63 64 63 60 59 61 56 53 70 58 80 93 58 43 44 46 49 57 59 45 38 42 54 67 43 39 39 49 48 42 36 30
83 65 96 78 100 99 100 84 83 58 65 76 75 64 62 67 58 56 59 51 48 58 60 72 53 39 41 48 56 56 63 62 60 47 54 66 74 62 51 45 42 48 53 53 52
85 63 100 95 97 98 96 100 85 60 97 77 63 62 68 71 60 58 58 53 50 60 54 58 42 42 47 55 52 87 56 63 78 94 94 57 89 69 53 44 46 49 59 54 56
86 70 99 94 97 98 94 91 75 61 97 64 61 74 69 63 58 59 59 61 66 59 60 69 57 56 65 61 67 91 79 91 99 99 99 79 98 83 48 50 49 53 50 55 54
85 70 91 97 96 98 88 79 65 94 96 74 67 68 64 57 51 57 63 67 61 62 60 66 51 55 63 57 66 72 92 97 99 96 97 71 96 99 99 97 85 54 56 67 71
81 78 100 99 100 82 79 67 95 98 59 74 71 62 78 63 53 52 56 69 74 92 91 71 79 59 84 99 71 86 99 97 98 100 93 100 95 99 98 93 93 77 92 93 85
77 84 97 100 88 84 71 90 96 56 73 50 62 56 88 59 65 50 61 77 63 76 94 94 95 86 89 97 99 97 100 98 96 97 93 100 97 98 97 87 92 96 98 91 85
84 97 96 96 93 71 72 87 77 78 48 67 66 85 71 60 65 57 85 62 53 62 92 90 82 59 68 81 95 91 99 98 99 90 85 98 94 90 93 95 87 94 95 99 94
88 100 100 99 97 79 76 84 54 43 50 55 82 64 77 76 70 80 62 54 57 59 59 80 97 87 66 80 83 98 87 99 99 96 95 96 97 98 100 100 92 95 97 100 99
91 99 100 99 84 76 92 70 54 47 49 53 49 54 59 62 63 78 68 58 56 58 64 71 96 76 80 98 99 94 96 83 94 84 96 95 98 98 100 98 96 96 99 100 100
98 99 100 88 92 76 84 44 49 48 58 50 49 55 49 47 51 86 86 60 61 64 84 79 78 97 86 51 60 65 98 65 95 96 99 96 98 84 93 93 89 96 99 100 100
98 100 99 99 95 81 52 48 45 48 51 49 54 50 46 50 64 59 93 49 57 61 73 72 84 94 84 64 58 76 59 56 66 76 94 96 98 58 65 76 89 94 100 100 98
98 100 99 98 89 61 51 50 53 50 50 47 52 49 49 49 47 56 96 51 52 57 64 73 67 84 98 100 89 90 57 64 84 88 91 94 88 65 63 63 63 74 94 98 100
99 96 91 100 82 58 44 42 51 54 48 48 55 56 80 59 50 55 79 66 49 48 56 60 78 60 57 57 64 70 65 66 72 68 93 77 78 69 65 62 62 66 74 84 92
82 85 84 80 74 57 48 43 43 48 47 54 58 52 56 64 66 57 56 67 68 52 51 51 70 61 64 52 62 74 77 69 87 96 65 76 76 61 64 67 67 69 74 79 85
75 74 67 64 62 61 51 41 40 44 51 50 48 59 59 60 51 52 50 52 56 62 65 59 66 73 71 50 51 81 90 69 65 58 60 81 66 63 72 72 74 75 80 87 90